[[{"header":{"parameterUnit":"m.s-1","parameterCategory":1,"la1":30.6,"la2":29.2853,"lo1":-89.7004,"lo2":-87.6739,"dy":0.0162,"dx":0.0183,"nx":112,"ny":82,"refTime":"2024-09-18T12:00:00:Z","depth":0,"parameterNumber":2,"parameterNumberName":"U-component_of_WINDS"},"data":[0.0,0.0,0.0,0.0,0.0,0.0,0.0,0.0,0.0,0.0,0.0,0.0,0.0,0.0,0.0,0.0,0.0,0.0,0.0,0.0,0.0,0.0,0.0,0.0,0.0,0.0,0.0,0.0,0.0,0.0,0.0,0.0,0.0,0.0,0.0,0.0,0.0,0.0,0.0,0.0,0.0,0.0,0.0,0.0,0.0,0.0,0.0,0.0,0.0,0.0,0.0,0.0,0.0,0.0,0.0,0.0,0.0,0.0,0.0,0.0,0.0,0.0,0.0,0.0,0.0,0.0,0.0,0.0,0.0,0.0,0.0,0.0,0.0,0.0,0.0,0.0,0.0,0.0,0.0,0.0,0.0,0.0,0.0,0.0,0.0,0.0,0.0,0.0,0.0,0.0,1.0124,1.1889,1.2957,1.3263,1.257,1.2426,1.1794,1.0453,0.0,0.0,0.0,0.0,0.0,0.0,0.0,0.0,0.0,0.0,0.0,0.0,0.0,0.0,0.0,0.0,0.0,0.0,0.0,0.0,0.0,0.0,0.0,0.0,0.0,0.0,0.0,0.0,0.0,0.0,0.0,0.0,0.0,0.0,0.0,0.0,0.0,0.0,0.0,0.0,0.0,0.0,0.0,0.0,0.0,0.0,0.0,0.0,0.0,0.0,0.0,0.0,0.0,0.0,0.0,0.0,0.0,0.0,0.0,0.0,0.0,0.0,0.0,0.0,0.0,0.0,0.0,0.0,0.0,0.0,0.0,0.0,0.0,0.0,0.0,0.0,0.0,0.0,0.0,0.0,0.0,0.0,0.0,0.0,0.0,0.0,0.0,0.0,0.0,0.0,0.0,0.0,0.0,0.0,0.0,0.0,0.0,0.0,0.0,0.0,0.0,0.0,0.0,0.0,1.0897,1.31,1.3289,1.3296,1.3387,1.2923,1.2216,1.1204,0.0,0.0,0.0,0.0,0.0,0.0,0.0,0.0,0.0,0.0,0.0,0.0,0.0,0.0,0.0,0.0,0.0,0.0,0.0,0.0,0.0,0.0,0.0,0.0,0.0,0.0,0.0,0.0,0.0,0.0,0.0,0.0,0.0,0.0,0.0,0.0,0.0,0.0,0.0,0.0,0.0,0.0,0.0,0.0,0.0,0.0,0.0,0.0,0.0,0.0,0.0,0.0,0.0,0.0,0.0,0.0,0.0,0.0,0.0,0.0,0.0,0.0,0.0,0.0,0.0,0.0,0.0,0.0,0.0,0.0,0.0,0.0,0.0,0.0,0.0,0.0,0.0,0.0,0.0,0.0,0.0,0.0,0.0,0.0,0.0,0.0,0.0,0.0,0.0,0.0,0.0,0.0,0.0,0.0,0.0,0.0,0.0,0.0,0.0,0.0,0.0,0.0,0.0,1.0595,1.1796,1.3434,1.3818,1.3737,1.3215,1.2908,1.2166,1.079,0.9437,0.0,0.0,0.0,0.0,0.0,0.0,0.0,0.0,0.0,0.0,0.0,0.0,0.0,0.0,0.0,0.0,0.0,0.0,0.0,0.0,0.0,0.0,0.0,0.0,0.0,0.0,0.0,0.0,0.0,0.0,0.0,0.0,0.0,0.0,0.0,0.0,0.0,0.0,0.0,0.0,0.0,0.0,0.0,0.0,0.0,0.0,0.0,0.0,0.0,0.0,0.0,0.0,0.0,0.0,0.0,0.0,0.0,0.0,0.0,0.0,0.0,0.0,0.0,0.0,0.0,0.0,0.0,0.0,0.0,0.0,0.0,0.0,0.0,0.0,0.0,0.0,0.0,0.0,0.0,0.0,0.0,0.0,0.0,0.0,0.0,0.0,0.0,0.0,0.0,0.0,0.0,0.0,0.0,0.0,0.0,0.0,0.0,0.0,0.0,0.0,0.0,0.0,1.1477,1.2367,1.3282,1.3863,1.3765,1.2691,1.2508,1.1775,1.0253,0.9123,0.0,0.0,0.0,0.0,0.0,0.0,0.0,0.0,0.0,0.0,0.0,0.0,0.0,0.0,0.0,0.0,0.0,0.0,0.0,0.0,0.0,0.0,0.0,0.0,0.0,0.0,0.0,0.0,0.0,0.0,0.0,0.0,0.0,0.0,0.0,0.0,0.0,0.0,0.0,0.0,0.0,0.0,0.0,0.0,0.0,0.0,0.0,0.0,0.0,0.0,0.0,0.0,0.0,0.0,0.0,0.0,0.0,0.0,0.0,0.0,0.0,0.0,0.0,0.0,0.0,0.0,0.0,0.0,0.0,0.0,0.0,0.0,0.0,0.0,0.0,0.0,0.0,0.0,0.0,0.0,0.0,0.0,0.0,0.0,0.0,0.0,0.0,0.0,0.0,0.0,0.0,0.0,0.0,0.0,0.0,0.0,0.0,0.0,0.0,0.0,0.0,0.0,1.1381,1.2193,1.2706,1.292,1.2756,1.2117,1.1599,1.0936,1.0077,0.8716,0.0,0.0,0.0,0.0,0.0,0.0,0.0,0.0,0.0,0.0,0.0,0.0,0.0,0.0,0.0,0.0,0.0,0.0,0.0,0.0,0.0,0.0,0.0,0.0,0.0,0.0,0.0,0.0,0.0,0.0,0.0,0.0,0.0,0.0,0.0,0.0,0.0,0.0,0.0,0.0,0.0,0.0,0.0,0.0,0.0,0.0,0.0,0.0,0.0,0.0,0.0,0.0,0.0,0.0,0.0,0.0,0.0,0.0,0.0,0.0,0.0,0.0,0.0,0.0,0.0,0.0,0.0,0.0,0.0,0.0,0.0,0.0,0.0,0.0,0.0,0.0,0.0,0.0,0.0,0.0,0.0,0.0,0.0,0.0,0.0,0.0,0.0,0.0,0.0,0.0,0.0,0.0,0.0,0.0,0.0,0.0,0.0,0.0,0.0,0.0,0.0,0.0,1.0634,1.1558,1.2205,1.2653,1.2666,1.2049,1.1809,1.1166,0.9894,0.0,0.0,0.0,0.0,0.0,0.0,0.0,0.0,0.0,0.0,0.0,0.0,0.0,0.0,0.0,0.0,0.0,0.0,0.0,0.0,0.0,0.0,0.0,0.0,0.0,0.0,0.0,0.0,0.0,0.0,0.0,0.0,0.0,0.0,0.0,0.0,0.0,0.0,0.0,0.0,0.0,0.0,0.0,0.0,0.0,0.0,0.0,0.0,0.0,0.0,0.0,0.0,0.0,0.0,0.0,0.0,0.0,0.0,0.0,0.0,0.0,0.0,0.0,0.0,0.0,0.0,0.0,0.0,0.0,0.0,0.0,0.0,0.0,0.0,0.0,0.0,0.0,0.0,0.0,0.0,0.0,0.0,0.0,0.0,0.0,0.0,0.0,0.0,0.0,0.0,0.0,0.0,0.0,0.0,0.0,0.0,0.0,0.0,0.0,0.0,0.0,0.0,0.9078,1.0227,1.1156,1.1655,1.2076,1.2082,1.1517,1.1296,1.0669,0.9396,0.0,0.0,0.0,0.0,0.0,0.0,0.0,0.0,0.0,0.0,0.0,0.0,0.0,0.0,0.0,0.0,0.0,0.0,0.0,0.0,0.0,0.0,0.0,0.0,0.0,0.0,0.0,0.0,0.0,0.0,0.0,0.0,0.0,0.0,0.0,0.0,0.0,0.0,0.0,0.0,0.0,0.0,0.0,0.0,0.0,0.0,0.0,0.0,0.0,0.0,0.0,0.0,0.0,0.0,0.0,0.0,0.0,0.0,0.0,0.0,0.0,0.0,0.0,0.0,0.0,0.0,0.0,0.0,0.0,0.0,0.0,0.0,0.0,0.0,0.0,0.0,0.0,0.0,0.0,0.0,0.0,0.0,0.0,0.0,0.0,0.0,0.0,0.0,0.0,0.0,0.0,0.0,0.0,0.0,0.0,0.0,0.0,0.0,0.0,0.0,0.0,0.0,0.9108,1.0303,1.108,1.1104,1.1099,1.0876,1.0358,0.9817,0.9218,0.0,0.0,0.0,0.0,0.0,0.0,0.0,0.0,0.0,0.0,0.0,0.0,0.0,0.0,0.0,0.0,0.0,0.0,0.0,0.0,0.0,0.0,0.0,0.0,0.0,0.0,0.0,0.0,0.0,0.0,0.0,0.0,0.0,0.0,0.0,0.0,0.0,0.0,0.0,0.0,0.0,0.0,0.0,0.0,0.0,0.0,0.0,0.0,0.0,0.0,0.0,0.0,0.0,0.0,0.0,0.0,0.0,0.0,0.0,0.0,0.0,0.0,0.0,0.0,0.0,0.0,0.0,0.0,0.0,0.0,0.0,0.0,0.0,0.0,0.0,0.0,0.0,0.0,0.0,0.0,0.0,0.0,0.0,0.0,0.0,0.0,0.0,0.0,0.0,0.0,0.0,0.0,0.0,0.0,0.0,0.0,0.0,0.0,0.0,0.0,0.0,0.0,0.0,0.8504,0.9721,1.0608,1.0793,1.0815,1.0677,1.0322,0.9985,0.9413,0.8557,0.0,0.0,0.0,0.0,0.0,0.0,0.0,0.0,0.0,0.0,0.0,0.0,0.0,0.0,0.0,0.0,0.0,0.0,0.0,0.0,0.0,0.0,0.0,0.0,0.0,0.0,0.0,0.0,0.0,0.0,0.0,0.0,0.0,0.0,0.0,0.0,0.0,0.0,0.0,0.0,0.0,0.0,0.0,0.0,0.0,0.0,0.0,0.0,0.0,0.0,0.0,0.0,0.0,0.0,0.0,0.0,0.0,0.0,0.0,0.0,0.0,0.0,0.0,0.0,0.0,0.0,0.0,0.0,0.0,0.0,0.0,0.0,0.0,0.0,0.0,0.0,0.0,0.0,0.0,0.0,0.0,0.0,0.0,0.0,0.0,0.0,0.0,0.0,0.0,0.0,0.0,0.0,0.0,0.0,0.0,0.0,0.0,0.0,0.0,0.0,0.0,0.0,0.8369,0.954,1.0394,1.0671,1.0797,1.0707,1.0328,1.0154,0.9588,0.8498,0.0,0.0,0.0,0.0,0.0,0.0,0.0,0.0,0.0,0.0,0.0,0.0,0.0,0.0,0.0,0.0,0.0,0.0,0.0,0.0,0.0,0.0,0.0,0.0,0.0,0.0,0.0,0.0,0.0,0.0,0.0,0.0,0.0,0.0,0.0,0.0,0.0,0.0,0.0,0.0,0.0,0.0,0.0,0.0,0.0,0.0,0.0,0.0,0.0,0.0,0.0,0.0,0.0,0.0,0.0,0.0,0.0,0.0,0.0,0.0,0.0,0.0,0.0,0.0,0.0,0.0,0.0,0.0,0.0,0.0,0.0,0.0,0.0,0.0,0.0,0.0,0.0,0.0,0.0,0.0,0.0,0.0,0.0,0.0,0.0,0.0,0.0,0.0,0.0,0.0,0.0,0.0,0.0,0.0,0.0,0.0,0.0,0.0,0.0,0.0,0.0,0.0,0.8602,0.9648,1.0406,1.0707,1.093,1.0858,1.0334,1.0274,0.9715,0.8419,0.0,0.0,0.0,0.0,0.0,0.0,0.0,0.0,0.0,0.0,0.0,0.0,0.0,0.0,0.0,0.0,0.0,0.0,0.0,0.0,0.0,0.0,0.0,0.0,0.0,0.0,0.0,0.0,0.0,0.0,0.0,0.0,0.0,0.0,0.0,0.0,0.0,0.0,0.0,0.0,0.0,0.0,0.0,0.0,0.0,0.0,0.0,0.0,0.0,0.0,0.0,0.0,0.0,0.0,0.0,0.0,0.0,0.0,0.0,0.0,0.9469,0.8934,0.0,0.0,0.0,0.0,0.0,0.0,0.0,0.0,0.0,0.0,0.0,0.0,0.0,0.0,0.0,0.0,0.0,0.0,0.0,0.0,0.0,0.0,0.0,0.0,0.0,0.0,0.0,0.0,0.0,0.0,0.0,0.0,0.0,0.0,0.0,0.0,0.0,0.0,0.0,0.0,0.8848,0.9763,1.0472,1.096,1.0876,1.0659,1.0339,1.0106,0.96,0.8665,0.8133,0.0,0.0,0.0,0.0,0.0,0.0,0.0,0.0,0.0,0.0,0.0,0.0,0.0,0.0,0.0,0.0,0.0,0.0,0.0,0.0,0.0,0.0,0.0,0.0,0.0,0.0,0.0,0.0,0.0,0.0,0.0,0.0,0.0,0.0,0.0,0.0,0.0,0.0,0.0,0.0,0.0,0.0,0.0,0.0,0.0,0.0,0.0,0.0,0.0,0.0,0.0,0.0,0.0,0.0,0.0,0.0,0.0,0.0,0.0,1.0051,0.9649,0.0,0.0,0.0,0.0,0.0,0.0,0.0,0.0,0.0,0.0,0.0,0.0,0.0,0.0,0.0,0.0,0.0,0.0,0.0,0.0,0.0,0.0,0.0,0.0,0.0,0.0,0.0,0.0,0.0,0.0,0.0,0.0,0.0,0.0,0.0,0.0,0.0,0.0,0.0,0.0,0.9112,0.9823,1.0438,1.1032,1.0972,1.0785,1.0526,1.0244,0.9811,0.9122,0.8581,0.0,0.0,0.0,0.0,0.0,0.0,0.0,0.0,0.0,0.0,0.0,0.0,0.0,0.0,0.0,0.0,0.0,0.0,0.0,0.0,0.0,0.0,0.0,0.0,0.0,0.0,0.0,0.0,0.0,0.0,0.0,0.0,0.0,0.0,0.0,0.0,0.0,0.0,0.0,0.0,0.0,0.0,0.0,0.0,0.0,0.0,0.0,0.0,0.0,0.0,0.0,0.0,0.0,1.0315,1.043,1.0929,1.0255,1.0056,1.0235,1.0613,1.0442,0.9864,0.977,0.0,0.0,0.0,0.0,0.0,0.0,0.0,0.0,0.0,0.0,0.0,0.0,0.0,0.0,0.0,0.0,0.0,0.0,0.0,0.0,0.0,0.0,0.8114,0.8511,0.8571,0.829,0.7405,0.0,0.0,0.0,0.0,0.0,0.0,0.0,0.0,0.0,0.0,0.0,0.9205,0.9742,1.022,1.0826,1.0887,1.0799,1.0617,1.0384,1.0091,0.9662,0.9134,0.8641,0.0,0.0,0.0,0.0,0.0,0.0,0.0,0.0,0.0,0.0,0.0,0.0,0.0,0.0,0.0,0.0,0.0,0.0,0.0,0.0,0.0,0.0,0.0,0.0,0.0,0.0,0.0,0.0,0.0,0.0,0.0,0.0,0.9262,0.9476,0.0,0.0,0.0,0.0,0.0,0.0,0.0,0.0,0.0,0.0,0.0,0.0,0.0,0.9561,1.0004,1.0423,1.0642,1.0709,1.0923,1.1061,1.1163,1.1046,1.1026,1.1059,1.1118,0.0,0.9696,0.9286,0.0,0.0,0.0,0.0,0.0,0.0,0.0,0.0,0.0,0.0,0.0,0.0,0.0,0.0,0.0,0.0,0.0,0.0,0.0,0.0,0.0,0.0,0.8813,0.8708,0.8675,0.8632,0.8503,0.7949,0.7352,0.6869,0.6605,0.6321,0.0,0.0,0.0,0.0,0.0,0.0,0.8755,0.9289,0.97,1.0021,1.0048,1.0081,1.0164,1.0155,1.0154,1.0197,0.9686,0.9362,0.929,0.8371,0.0,0.0,0.0,0.0,0.0,0.0,0.0,0.0,0.0,0.0,0.0,0.0,0.0,0.0,0.0,0.0,0.0,0.0,0.0,0.0,0.0,0.0,0.0,0.0,0.0,0.0,0.0,0.0,0.0,0.905,0.9755,0.9664,0.9817,0.9642,0.0,0.0,0.0,0.0,0.0,0.0,0.0,0.0,0.0,0.9904,1.0155,1.0388,1.0545,1.0983,1.1216,1.121,1.1236,1.1267,1.1244,1.0975,1.0616,1.0188,1.0188,0.9626,0.8736,0.935,0.919,0.8519,0.0,0.0,0.0,0.0,0.8416,0.8397,0.8572,0.8624,0.8586,0.8408,0.0,0.0,0.0,0.0,0.0,0.0,0.0,0.8204,0.7934,0.8239,0.8505,0.8122,0.8024,0.8024,0.8024,0.7603,0.7324,0.7688,0.7657,0.7375,0.6746,0.6701,0.0,0.0,0.0,0.8167,0.8876,0.9309,0.9646,0.9865,0.9903,0.9935,0.9975,0.9843,0.9885,1.0165,0.9817,0.9655,0.9728,0.9134,0.8554,0.0,0.0,0.0,0.0,0.0,0.0,0.0,0.0,0.0,0.0,0.0,0.0,0.0,0.0,0.0,0.0,0.0,0.0,0.0,0.0,0.0,0.0,0.0,0.0,0.0,0.0,0.0,0.0,0.9551,1.0239,1.001,1.0559,1.0477,0.0,0.0,0.0,0.0,0.0,0.0,0.9585,0.9989,1.025,1.0302,1.0641,1.08,1.0747,1.1205,1.1424,1.1424,1.1328,1.127,1.1265,1.0918,1.0308,0.9557,0.9557,0.8976,0.8139,0.9135,0.9101,0.8428,0.8519,0.8536,0.8517,0.8779,0.8832,0.8808,0.8955,0.9141,0.9293,0.9153,0.9023,0.8883,0.8636,0.0,0.0,0.0,0.0,0.8123,0.7828,0.8003,0.8163,0.7777,0.7676,0.7665,0.7642,0.7401,0.7358,0.7981,0.816,0.8023,0.7415,0.7384,0.0,0.7323,0.7673,0.8087,0.8479,0.8799,0.9123,0.9455,0.9447,0.9531,0.9798,0.9593,0.9621,1.0025,0.9796,0.97,0.9793,0.9572,0.9127,0.8472,0.0,0.0,0.0,0.0,0.0,0.0,0.0,0.0,0.0,0.0,0.0,0.0,0.0,0.0,0.0,0.0,0.0,0.0,0.0,0.0,0.0,0.0,0.0,0.0,0.0,0.0,0.0,0.0,0.0,1.0761,1.16,0.0,0.0,0.0,0.0,0.9396,1.0218,1.0546,1.009,1.0565,1.0689,1.0311,1.0327,1.041,1.0615,1.082,1.0934,1.0939,1.1114,1.1209,1.1209,1.119,1.0725,0.9965,0.9965,0.9393,0.8448,0.815,0.7771,0.737,0.7384,0.7268,0.7117,0.7336,0.7412,0.7438,0.7635,0.8205,0.8868,0.9051,0.93,0.9431,0.8711,0.8184,0.0,0.0,0.7338,0.7687,0.7841,0.8036,0.8195,0.8179,0.8156,0.8135,0.8,0.7956,0.7753,0.7116,0.7386,0.7643,0.7351,0.0,0.7304,0.7295,0.696,0.6763,0.6992,0.7202,0.7594,0.8307,0.8215,0.8504,0.9527,0.9428,0.9472,0.9881,0.9661,0.9514,0.9516,0.9386,0.9168,0.888,0.8214,0.0,0.0,0.0,0.0,0.0,0.0,0.0,0.0,0.0,0.0,0.0,0.0,0.0,0.0,0.0,0.0,0.0,0.0,0.0,0.0,0.0,0.0,0.0,0.0,0.0,0.0,0.0,0.0,1.1772,1.2014,0.0,1.0905,1.0708,1.0435,0.9959,1.0534,1.071,1.0259,1.0657,1.083,1.0692,1.0801,1.0901,1.1,1.1052,1.109,1.109,1.1161,1.1194,1.1194,1.1194,1.0482,0.9221,0.9221,0.8442,0.7125,0.7006,0.7304,0.7887,0.7887,0.7832,0.7788,0.7843,0.7887,0.7894,0.7956,0.8184,0.8421,0.8506,0.8604,0.866,0.8389,0.8192,0.8019,0.7834,0.7865,0.7897,0.7489,0.7426,0.7372,0.6952,0.6858,0.6846,0.6797,0.6785,0.6707,0.6447,0.7037,0.7417,0.6938,0.7064,0.7151,0.6885,0.704,0.7155,0.7104,0.7277,0.7444,0.758,0.7539,0.7603,0.7911,0.8258,0.8593,0.8908,0.8765,0.8858,0.9287,0.8811,0.8571,0.8641,0.8229,0.7796,0.0,0.0,0.0,0.0,0.0,0.0,0.0,0.0,0.0,0.0,0.0,0.0,0.0,0.0,0.0,0.0,0.0,0.0,0.0,0.0,0.0,0.0,0.0,0.0,0.0,1.0853,1.1706,1.172,1.1921,1.1794,1.1129,1.0967,1.0713,1.0281,1.0688,1.0825,1.0521,1.0811,1.0995,1.0995,1.1127,1.1194,1.1194,1.1194,1.1231,1.1302,1.1001,1.0913,1.0957,1.0647,0.9758,0.8457,0.8457,0.7575,0.6134,0.6134,0.6486,0.7083,0.7446,0.7589,0.7589,0.7589,0.7589,0.7637,0.79,0.7996,0.8044,0.831,0.8402,0.8354,0.8067,0.7996,0.7948,0.7661,0.7589,0.747,0.6993,0.6873,0.6753,0.6299,0.6059,0.5928,0.5891,0.5761,0.568,0.5808,0.6663,0.7226,0.6809,0.6951,0.7017,0.6709,0.6803,0.6848,0.6706,0.68,0.6931,0.7056,0.7,0.7012,0.7123,0.743,0.7699,0.7878,0.7731,0.7839,0.834,0.7888,0.7714,0.7884,0.7593,0.7205,0.6757,0.0,0.0,0.0,0.0,0.0,0.0,0.0,0.0,0.0,0.0,0.0,0.0,0.0,0.0,0.0,0.0,0.0,0.0,0.0,0.0,0.0,0.0,0.0,0.9145,1.009,1.0688,1.0657,1.1435,1.1515,1.0341,1.0982,1.1134,1.0368,1.0655,1.0882,1.0882,1.107,1.1183,1.1183,1.1188,1.1163,1.1139,1.1139,1.1217,1.1373,1.0521,1.0212,1.036,0.9518,0.8628,0.775,0.775,0.6935,0.5568,0.5568,0.527,0.4918,0.5939,0.6362,0.6362,0.6362,0.6362,0.6462,0.7232,0.7506,0.763,0.8425,0.8676,0.8524,0.7755,0.7506,0.7357,0.6559,0.6362,0.6362,0.6362,0.6362,0.6362,0.6362,0.5962,0.556,0.5491,0.5072,0.4823,0.5215,0.6233,0.7012,0.6982,0.6979,0.6931,0.6789,0.6155,0.0,0.5716,0.5713,0.5975,0.6691,0.6595,0.6713,0.7289,0.7062,0.6872,0.6865,0.6614,0.6538,0.6693,0.6669,0.6659,0.6676,0.631,0.5909,0.5503,0.0,0.0,0.0,0.0,0.0,0.0,0.0,0.0,0.0,0.0,0.0,0.0,0.0,0.0,0.0,0.0,0.0,0.0,0.0,0.0,0.0,0.905,0.9311,0.9909,1.064,1.125,1.1577,1.1492,1.1352,1.1167,1.0747,1.0452,1.0383,1.0466,1.0529,1.0529,1.0717,1.0829,1.0829,1.0933,1.0591,0.9763,0.9741,0.9341,0.8524,0.8287,0.8206,0.8246,0.801,0.7445,0.6637,0.6637,0.6072,0.5163,0.5163,0.5085,0.4966,0.5164,0.5236,0.5236,0.5236,0.5236,0.5261,0.5484,0.5559,0.5609,0.5832,0.5907,0.5857,0.5634,0.5559,0.5534,0.5309,0.5236,0.5236,0.5236,0.5236,0.5236,0.5236,0.5135,0.5004,0.5003,0.4872,0.4814,0.4915,0.5205,0.5638,0.6235,0.6339,0.6327,0.629,0.605,0.5855,0.5855,0.5762,0.5777,0.5972,0.5943,0.596,0.602,0.6285,0.6374,0.6183,0.5966,0.6032,0.6458,0.5962,0.5869,0.626,0.6304,0.6129,0.0,0.0,0.0,0.0,0.0,0.0,0.0,0.0,0.0,0.0,0.0,0.0,0.0,0.0,0.0,0.0,0.0,0.0,0.0,0.0,0.0,0.0,0.9087,0.9166,0.9833,1.0333,1.0761,1.1156,1.0903,1.0801,1.1014,1.0556,1.0305,1.0523,1.0536,1.0546,1.06,1.0713,1.0566,1.0079,1.0147,0.9619,0.8459,0.8432,0.8147,0.7514,0.7142,0.7037,0.709,0.674,0.6263,0.5777,0.5777,0.5354,0.4657,0.4657,0.4524,0.4357,0.0,0.0,0.0,0.0,0.4873,0.4841,0.4841,0.4817,0.4809,0.4809,0.4809,0.4809,0.4809,0.4809,0.4809,0.4809,0.4809,0.4809,0.4809,0.4809,0.4809,0.4809,0.4634,0.4458,0.4458,0.4282,0.4183,0.441,0.4458,0.0,0.5428,0.554,0.5496,0.5429,0.5368,0.5313,0.5267,0.5368,0.5447,0.5399,0.5574,0.564,0.5518,0.5753,0.0,0.0,0.0,0.5395,0.5677,0.5275,0.0,0.0,0.0,0.0,0.0,0.5797,0.0,0.0,0.5516,0.5623,0.0,0.0,0.0,0.0,0.0,0.0,0.0,0.0,0.0,0.0,0.0,0.0,0.0,0.0,0.0,0.0,0.8759,0.8659,0.9315,0.9577,0.9769,1.0018,0.9995,1.0043,1.029,1.0332,1.0419,1.0593,1.0628,1.071,1.0819,1.072,0.0,0.0,0.0,0.8381,0.7185,0.7185,0.7189,0.7221,0.6465,0.6192,0.6313,0.5536,0.5137,0.5013,0.5013,0.4671,0.4124,0.4124,0.3859,0.3511,0.4452,0.4816,0.4816,0.4816,0.4793,0.4729,0.4729,0.0,0.0,0.4638,0.4638,0.4638,0.4638,0.4638,0.4638,0.4638,0.4638,0.4638,0.4638,0.463,0.4624,0.4624,0.4264,0.3907,0.3907,0.3531,0.3331,0.3806,0.3907,0.4058,0.4533,0.4668,0.4663,0.454,0.452,0.4509,0.4452,0.4778,0.5009,0.4949,0.5302,0.0,0.5386,0.5289,0.5191,0.5052,0.488,0.4769,0.4753,0.4764,0.4797,0.4852,0.4863,0.4993,0.5228,0.5378,0.5485,0.5556,0.5649,0.5905,0.0,0.0,0.0,0.0,0.0,0.0,0.0,0.0,0.0,0.0,0.0,0.0,0.0,0.0,0.0,0.9663,0.9433,0.927,0.9535,0.96,0.9649,0.9698,0.9682,0.9702,0.9747,0.9904,0.9999,1.0061,1.0206,1.0309,1.0338,0.9572,0.9023,0.8809,0.7946,0.696,0.5813,0.5785,0.5324,0.4399,0.4234,0.0,0.4199,0.4033,0.3943,0.3904,0.3904,0.3842,0.3719,0.3719,0.3664,0.3571,0.3663,0.3704,0.3704,0.3704,0.3695,0.3685,0.3685,0.3676,0.3666,0.3666,0.3666,0.3666,0.3666,0.3666,0.0,0.3666,0.3666,0.3666,0.3666,0.3626,0.3586,0.3586,0.3469,0.3356,0.3356,0.3281,0.323,0.3331,0.3356,0.3381,0.3481,0.4221,0.4779,0.4736,0.4696,0.4667,0.4651,0.4635,0.458,0.4533,0.4593,0.4623,0.4548,0.4428,0.4291,0.4157,0.4412,0.4731,0.5083,0.5198,0.5215,0.5121,0.5291,0.5367,0.5354,0.567,0.5812,0.5831,0.5728,0.5803,0.0,0.0,0.0,0.0,0.0,0.0,0.0,0.0,0.0,0.0,0.0,0.9198,0.9024,0.0,0.9541,0.963,0.9574,0.9522,0.9591,0.9603,0.9603,0.9603,0.9603,0.9636,0.9746,0.9835,0.9961,1.0148,0.9711,0.9473,0.9559,0.8493,0.7628,0.7056,0.6533,0.5674,0.4508,0.4508,0.4201,0.3587,0.3587,0.3587,0.3587,0.3587,0.3587,0.3587,0.3587,0.3587,0.3587,0.3587,0.3587,0.3582,0.3523,0.35,0.35,0.35,0.3481,0.3454,0.3454,0.3436,0.3413,0.3413,0.3413,0.3413,0.3413,0.3413,0.3413,0.3413,0.3413,0.3413,0.3413,0.3363,0.334,0.334,0.3317,0.3288,0.3256,0.325,0.3242,0.3211,0.3205,0.3205,0.3205,0.3657,0.4008,0.4008,0.3975,0.3938,0.3901,0.4082,0.4172,0.4112,0.4315,0.4437,0.4392,0.4241,0.4104,0.3997,0.416,0.4362,0.459,0.4692,0.4748,0.4748,0.485,0.4926,0.4948,0.5457,0.5708,0.5684,0.5256,0.5422,0.0,0.0,0.0,0.0,0.0,0.0,0.0,0.9141,0.9237,0.881,0.9262,0.9623,0.9253,0.9527,0.9716,0.9472,0.9531,0.9603,0.9603,0.9603,0.9603,0.9603,0.9603,0.9672,0.9868,0.9713,0.9738,1.0056,0.902,0.8434,0.8551,0.7421,0.6339,0.5427,0.5176,0.459,0.3615,0.3587,0.3587,0.3587,0.3587,0.3587,0.3587,0.3587,0.3587,0.3587,0.3587,0.3587,0.3587,0.3587,0.3587,0.3587,0.3587,0.3587,0.3587,0.3587,0.3556,0.3514,0.3514,0.3485,0.3447,0.3447,0.3447,0.3447,0.3447,0.3447,0.3447,0.3447,0.3447,0.3447,0.3447,0.3437,0.3428,0.3428,0.342,0.3373,0.3323,0.3313,0.3298,0.325,0.3231,0.3223,0.3223,0.3213,0.3205,0.3205,0.3205,0.3188,0.3114,0.3501,0.3743,0.3669,0.3997,0.4232,0.4239,0.4089,0.4004,0.4046,0.3998,0.3998,0.4086,0.4153,0.4226,0.4343,0.4361,0.4428,0.4548,0.5101,0.5281,0.5127,0.4524,0.4868,0.7753,0.7701,0.7851,0.8749,0.8683,0.8691,0.0,0.9599,0.9141,0.8842,0.9013,0.9165,0.9114,0.9306,0.948,0.9563,0.9591,0.9603,0.9603,0.9603,0.9603,0.9603,0.9603,0.9672,0.9868,0.9098,0.8651,0.887,0.7883,0.729,0.7304,0.62,0.5539,0.5399,0.4369,0.3726,0.3587,0.3587,0.3587,0.3587,0.3587,0.3587,0.3587,0.3587,0.3587,0.3587,0.3587,0.3587,0.3587,0.3587,0.3587,0.3587,0.3587,0.3587,0.3587,0.3587,0.3583,0.3576,0.3576,0.3574,0.3568,0.3568,0.3568,0.3568,0.3568,0.3568,0.3568,0.3568,0.3568,0.3568,0.3568,0.3527,0.3488,0.3488,0.3448,0.341,0.3377,0.3402,0.3374,0.3367,0.3321,0.3285,0.3285,0.324,0.3205,0.3205,0.3205,0.3202,0.3196,0.3246,0.3246,0.3185,0.3227,0.3253,0.3267,0.3226,0.3402,0.3816,0.3838,0.4004,0.443,0.4442,0.445,0.4484,0.4606,0.4673,0.4685,0.4825,0.4504,0.3803,0.3734,0.4143,0.8667,0.8455,0.8333,0.9295,0.9605,0.9691,0.982,0.9728,0.9518,0.9218,0.9279,0.9381,0.9381,0.9466,0.9539,0.9591,0.9603,0.9603,0.9603,0.9051,0.8673,0.8673,0.8124,0.8066,0.8954,0.8073,0.7558,0.7762,0.6727,0.6116,0.6116,0.4979,0.4341,0.4341,0.3866,0.3587,0.3587,0.3587,0.3587,0.3587,0.3587,0.3587,0.3587,0.3587,0.3587,0.3587,0.3587,0.3587,0.3587,0.3587,0.3587,0.3587,0.3587,0.3587,0.3587,0.3587,0.3587,0.3587,0.3587,0.3587,0.3587,0.3587,0.3587,0.3587,0.3587,0.3587,0.3587,0.3587,0.3587,0.3587,0.3587,0.3568,0.3549,0.3549,0.3531,0.3504,0.3469,0.3462,0.3451,0.3418,0.3366,0.3348,0.3348,0.3327,0.3298,0.3263,0.3228,0.3205,0.3205,0.3205,0.3196,0.317,0.3167,0.3143,0.3106,0.3102,0.3182,0.3383,0.3393,0.3488,0.3681,0.3723,0.3746,0.3746,0.3798,0.3606,0.3137,0.3468,0.3201,0.2363,0.189,0.1954,0.8674,0.859,0.8566,0.9345,0.99,1.0137,0.9647,0.9685,0.9738,0.9497,0.9535,0.9603,0.9603,0.9603,0.9603,0.9603,0.9352,0.915,0.915,0.8173,0.7475,0.7546,0.6548,0.6255,0.7319,0.6742,0.6391,0.6581,0.555,0.4897,0.4897,0.4061,0.3587,0.3587,0.3587,0.3587,0.3587,0.3587,0.3587,0.3587,0.3587,0.3587,0.3587,0.3587,0.3587,0.3587,0.3587,0.3587,0.3587,0.3587,0.3587,0.3587,0.3587,0.3587,0.3587,0.3587,0.3587,0.3587,0.3587,0.3587,0.3587,0.3587,0.3587,0.3587,0.3587,0.3587,0.3587,0.3587,0.3587,0.3587,0.3587,0.3587,0.3587,0.3587,0.3587,0.3575,0.353,0.3522,0.351,0.3469,0.3447,0.3436,0.3436,0.3422,0.3371,0.3327,0.3284,0.3243,0.3209,0.3205,0.3205,0.3205,0.3205,0.3188,0.3143,0.314,0.3121,0.3126,0.3116,0.314,0.314,0.3182,0.3086,0.2873,0.2873,0.2462,0.1645,0.2035,0.179,0.0937,0.0348,0.0054,0.7063,0.744,0.7909,0.8271,0.8741,0.9187,0.9363,0.9518,0.9604,0.9591,0.9599,0.9603,0.9603,0.9603,0.9603,0.9603,0.8726,0.8046,0.8046,0.6902,0.6154,0.6423,0.5277,0.4613,0.4981,0.5045,0.5137,0.5339,0.4299,0.3643,0.3643,0.3615,0.3587,0.3587,0.3587,0.3587,0.3587,0.3587,0.3587,0.3587,0.3587,0.3587,0.3587,0.3587,0.3587,0.3587,0.3587,0.3587,0.3587,0.3587,0.3587,0.3587,0.3587,0.3587,0.3587,0.3587,0.3587,0.3587,0.3587,0.3587,0.3587,0.3587,0.3587,0.3587,0.3587,0.3587,0.3587,0.3587,0.3587,0.3587,0.3587,0.3587,0.3587,0.3587,0.3587,0.3587,0.3585,0.3585,0.3583,0.3582,0.3534,0.3493,0.3493,0.3448,0.3412,0.341,0.3409,0.3338,0.322,0.3205,0.3205,0.3205,0.3205,0.3205,0.3202,0.3202,0.3202,0.32,0.3202,0.3202,0.3202,0.3205,0.2824,0.2045,0.2046,0.162,0.0745,0.0745,0.0349,-0.0437,-0.0464,-0.0937,0.7561,0.7992,0.8403,0.8735,0.9071,0.9339,0.9494,0.9559,0.9603,0.9603,0.9531,0.947,0.947,0.947,0.9227,0.8519,0.8185,0.7698,0.6803,0.5714,0.5023,0.506,0.4099,0.3508,0.3742,0.3829,0.3943,0.4086,0.3762,0.3545,0.3585,0.3587,0.3587,0.3587,0.3587,0.3587,0.3587,0.3587,0.3587,0.3587,0.3587,0.3587,0.3587,0.3587,0.3587,0.3587,0.3587,0.3587,0.3587,0.3587,0.3587,0.3587,0.3587,0.3222,0.266,0.266,0.2297,0.199,0.3195,0.3587,0.3587,0.3587,0.3587,0.3587,0.3587,0.3587,0.3587,0.3587,0.3138,0.2829,0.3446,0.3137,0.266,0.266,0.266,0.252,0.1933,0.1822,0.1822,0.1822,0.1785,0.1778,0.1778,0.1743,0.173,0.1683,0.2657,0.3371,0.3331,0.329,0.3265,0.3265,0.3229,0.3205,0.3205,0.3205,0.3205,0.3205,0.3243,0.3265,0.3265,0.2756,0.2335,0.2085,0.1451,0.0718,-0.0108,-0.0108,-0.0519,-0.1362,-0.1362,-0.1534,0.8121,0.8475,0.8759,0.9181,0.9368,0.9482,0.9575,0.9603,0.9558,0.942,0.9288,0.9143,0.9008,0.8683,0.8211,0.7542,0.6945,0.6267,0.5445,0.4466,0.3854,0.3885,0.3248,0.292,0.3247,0.3122,0.3147,0.3434,0.3506,0.3546,0.3585,0.3587,0.3587,0.3587,0.3587,0.3587,0.3587,0.3587,0.3587,0.3587,0.3587,0.3587,0.3587,0.3587,0.3587,0.3587,0.325,0.3109,0.3081,0.2774,0.2634,0.2634,0.2634,0.2269,0.1737,0.1737,0.1373,0.1065,0.2242,0.2634,0.2634,0.2634,0.2634,0.2634,0.2634,0.2634,0.2634,0.2634,0.2213,0.1877,0.2466,0.2185,0.1737,0.1737,0.1737,0.1569,0.1009,0.0897,0.0897,0.0897,0.0897,0.0897,0.0897,0.0897,0.0894,0.0829,0.1776,0.2486,0.2428,0.269,0.2881,0.2881,0.2825,0.2805,0.2805,0.2495,0.2315,0.2315,0.2653,0.2724,0.2383,0.2197,0.1816,0.1182,0.0591,-0.0136,-0.0965,-0.0965,-0.1248,-0.1795,-0.1795,-0.1795,0.8645,0.8826,0.8959,0.9474,0.9579,0.9579,0.9579,0.9562,0.9424,0.902,0.8828,0.859,0.8204,0.733,0.6675,0.6683,0.5183,0.4023,0.3989,0.3213,0.2694,0.2932,0.2747,0.28,0.3305,0.2827,0.2748,0.331,0.3493,0.3585,0.3587,0.3587,0.3587,0.3587,0.3587,0.3587,0.3587,0.3587,0.3587,0.3587,0.3587,0.3587,0.3587,0.3587,0.3587,0.3475,0.2576,0.2184,0.2072,0.1233,0.0897,0.0897,0.0897,0.0869,0.0841,0.0841,0.0813,0.0757,0.0757,0.0813,0.0897,0.0897,0.0897,0.0897,0.0897,0.0897,0.0897,0.0897,0.0869,0.0841,0.0897,0.0869,0.0841,0.0841,0.0841,0.0813,0.0785,0.0757,0.0757,0.0757,0.0757,0.0757,0.0757,0.0757,0.0757,0.0757,0.0757,0.0748,0.0724,0.1494,0.2027,0.2027,0.2025,0.2024,0.2024,0.1224,0.0692,0.0692,0.1546,0.1627,0.0746,0.1521,0.1184,-0.0465,-0.0547,-0.0966,-0.1795,-0.1795,-0.1795,-0.1795,-0.1795,-0.1795,0.8905,0.9198,0.9429,0.9567,0.9455,0.9307,0.9307,0.8985,0.8597,0.8257,0.7866,0.7548,0.7347,0.6733,0.6034,0.5354,0.4762,0.3968,0.2768,0.2824,0.2812,0.2375,0.2479,0.2621,0.2722,0.2642,0.2636,0.2799,0.3068,0.3238,0.322,0.3475,0.3587,0.3587,0.3587,0.3587,0.3587,0.3587,0.3587,0.3587,0.3587,0.3587,0.3587,0.3587,0.3222,0.2548,0.2296,0.1821,0.1205,0.0981,0.0897,0.0897,0.0897,0.0505,-0.0056,-0.0056,-0.0505,-0.1121,-0.1121,-0.0224,0.0897,0.0897,0.0897,0.0897,0.0897,0.0897,0.0897,0.0897,0.0421,0.0084,0.0729,0.0393,-0.014,-0.014,-0.0112,-0.0252,-0.0953,-0.1121,-0.1121,-0.1121,-0.1121,-0.1121,-0.1121,-0.1121,-0.1121,-0.1121,-0.1121,-0.0643,0.0693,0.1012,0.114,0.114,0.11,0.1065,0.1065,0.0825,0.0692,0.0692,0.097,0.1032,0.0787,0.044,0.0028,-0.0418,-0.1114,-0.1592,-0.1795,-0.1795,-0.1795,-0.1795,-0.1795,-0.1795,0.9234,0.9449,0.9603,0.9603,0.948,0.9277,0.8898,0.8559,0.815,0.7407,0.6815,0.635,0.6052,0.5242,0.4433,0.3865,0.3438,0.2881,0.2037,0.2365,0.2568,0.2181,0.231,0.2445,0.2538,0.2354,0.2343,0.2572,0.2918,0.3108,0.3108,0.3418,0.3587,0.3587,0.3587,0.3587,0.3587,0.3587,0.3587,0.3587,0.3587,0.3587,0.3587,0.3166,0.2688,0.2156,0.14,0.0784,0.0308,-0.0112,-0.028,-0.028,-0.028,-0.0589,-0.1009,-0.1009,-0.1346,-0.1795,-0.1795,-0.1121,-0.028,-0.028,-0.028,-0.028,-0.028,-0.028,-0.028,-0.028,-0.0645,-0.0897,-0.0421,-0.0673,-0.1065,-0.1065,-0.1037,-0.1149,-0.1683,-0.1795,-0.1795,-0.1795,-0.1795,-0.1795,-0.1795,-0.1795,-0.1795,-0.1795,-0.1795,-0.143,-0.0421,0.0056,0.0276,0.0276,0.0247,0.0218,0.0218,-0.0163,-0.0409,-0.0409,0.0027,0.0083,-0.0332,-0.039,-0.0589,-0.1009,-0.1542,-0.1795,-0.1795,-0.1795,-0.1795,-0.1795,-0.1795,-0.1795,0.951,0.9603,0.9603,0.9603,0.9558,0.9312,0.8468,0.8194,0.7749,0.6445,0.5742,0.5191,0.458,0.3462,0.2627,0.2632,0.2026,0.1617,0.174,0.2055,0.2229,0.2156,0.2184,0.2282,0.2473,0.2109,0.2058,0.25,0.2897,0.312,0.312,0.343,0.3604,0.3639,0.364,0.364,0.364,0.3632,0.3632,0.3639,0.3632,0.3547,0.3413,0.2594,0.2086,0.1748,0.0253,-0.0478,-0.0647,-0.1459,-0.1795,-0.1795,-0.1795,-0.1795,-0.1795,-0.1795,-0.1795,-0.1795,-0.1795,-0.1795,-0.1795,-0.1795,-0.1795,-0.1795,-0.1795,-0.1795,-0.1795,-0.1795,-0.1795,-0.1795,-0.1795,-0.1795,-0.1795,-0.1795,-0.1795,-0.1795,-0.1795,-0.1795,-0.1795,-0.1795,-0.1795,-0.1795,-0.1795,-0.1795,-0.1795,-0.1795,-0.1795,-0.1795,-0.1795,-0.1093,-0.0589,-0.0589,-0.0589,-0.0589,-0.0589,-0.1346,-0.1795,-0.1795,-0.1037,-0.0953,-0.1767,-0.1009,-0.0981,-0.1795,-0.1795,-0.1795,-0.1795,-0.1795,-0.1795,-0.1795,-0.1795,-0.1795,0.9547,0.9603,0.9603,0.9603,0.9343,0.8946,0.8347,0.7701,0.6806,0.5303,0.4824,0.4374,0.3387,0.2705,0.24,0.2722,0.2296,0.1936,0.203,0.2326,0.2366,0.1931,0.2077,0.2124,0.1952,0.2046,0.218,0.226,0.2834,0.3174,0.3174,0.349,0.3714,0.3765,0.3766,0.3766,0.3766,0.3715,0.3717,0.3766,0.3715,0.3284,0.2509,0.2363,0.143,-0.0058,-0.0345,-0.0887,-0.1573,-0.1721,-0.1795,-0.1795,-0.1795,-0.1795,-0.1795,-0.1795,-0.1795,-0.1795,-0.1795,-0.1795,-0.1795,-0.1795,-0.1795,-0.1795,-0.1795,-0.1795,-0.1795,-0.1795,-0.1795,-0.1795,-0.1795,-0.1795,-0.1795,-0.1795,-0.1795,-0.1795,-0.1795,-0.1795,-0.1795,-0.1795,-0.1795,-0.1795,-0.1795,-0.1795,-0.1795,-0.1795,-0.1795,-0.1795,-0.1795,-0.1655,-0.157,-0.157,-0.157,-0.157,-0.157,-0.1711,-0.1795,-0.1795,-0.1655,-0.1627,-0.1795,-0.1655,-0.1627,-0.1795,-0.1795,-0.1795,-0.1795,-0.1795,-0.1795,-0.1795,-0.1795,-0.1795,0.9579,0.92,0.8899,0.9451,0.8583,0.7537,0.7313,0.6504,0.5436,0.414,0.3646,0.3266,0.2643,0.2202,0.1964,0.2051,0.1879,0.176,0.1841,0.1973,0.2023,0.1819,0.1911,0.1939,0.1799,0.2066,0.2302,0.2441,0.2957,0.3247,0.3189,0.3563,0.3768,0.3798,0.3799,0.3799,0.3799,0.3769,0.3769,0.3798,0.3241,0.2745,0.2265,0.1295,0.0353,-0.053,-0.1023,-0.1449,-0.181,-0.1796,-0.1809,-0.1795,-0.1795,-0.1795,-0.1795,-0.1795,-0.1795,-0.1795,-0.1795,-0.1795,-0.1795,-0.1795,-0.1795,-0.1795,-0.1795,-0.1795,-0.1795,-0.1795,-0.1795,-0.1795,-0.1795,-0.1795,-0.1795,-0.1795,-0.1795,-0.1795,-0.1795,-0.1795,-0.1795,-0.1795,-0.1795,-0.1795,-0.1795,-0.1795,-0.1795,-0.1795,-0.1795,-0.1795,-0.1795,-0.1795,-0.1795,-0.1795,-0.1795,-0.1795,-0.1795,-0.1795,-0.1795,-0.1795,-0.1795,-0.1795,-0.1795,-0.1795,-0.1795,-0.1795,-0.1795,-0.1795,-0.1795,-0.1795,-0.1795,-0.1795,-0.1795,-0.1795,0.9591,0.8977,0.8499,0.9101,0.7917,0.6504,0.6167,0.5359,0.4362,0.3212,0.274,0.2436,0.2073,0.183,0.1634,0.1509,0.1528,0.1592,0.1666,0.1678,0.1709,0.1794,0.1798,0.1809,0.1798,0.2089,0.2397,0.2695,0.3174,0.3413,0.3341,0.3656,0.3808,0.3808,0.3808,0.3808,0.3808,0.3825,0.3825,0.3808,0.2814,0.2221,0.1961,0.0268,-0.0625,-0.0863,-0.1572,-0.1882,-0.183,-0.1824,-0.1804,-0.1805,-0.1805,-0.18,-0.1795,-0.1795,-0.1795,-0.1795,-0.1795,-0.1795,-0.1795,-0.1795,-0.1795,-0.1795,-0.1795,-0.1795,-0.1795,-0.1795,-0.1795,-0.1795,-0.1795,-0.1795,-0.1795,-0.1795,-0.1795,-0.1795,-0.1795,-0.1795,-0.1795,-0.1795,-0.1795,-0.1795,-0.1795,-0.1795,-0.1795,-0.1795,-0.1795,-0.1795,-0.1795,-0.1795,-0.1795,-0.1795,-0.1795,-0.1795,-0.1795,-0.1795,-0.1795,-0.1795,-0.1795,-0.1795,-0.1795,-0.1795,-0.1795,-0.1795,-0.1795,-0.1795,-0.1795,-0.1795,-0.1795,-0.1795,-0.1795,-0.1795,0.9559,0.9529,0.9249,0.8372,0.7804,0.7063,0.5485,0.4867,0.4213,0.2832,0.2623,0.2418,0.1542,0.1507,0.1639,0.1751,0.1774,0.1814,0.1952,0.1974,0.1915,0.1824,0.1807,0.1802,0.1798,0.2039,0.2361,0.2748,0.3456,0.3849,0.3843,0.387,0.3903,0.3903,0.3903,0.3903,0.3903,0.388,0.388,0.3872,0.2876,0.1938,0.1074,0.0,-0.1013,-0.1874,-0.1878,-0.1896,-0.1891,-0.1893,-0.1864,-0.1808,-0.1808,-0.1791,-0.1795,-0.1795,-0.1795,-0.1795,-0.1795,-0.1795,-0.1795,-0.1795,-0.1795,-0.1795,-0.1795,-0.1795,-0.1795,-0.1795,-0.1795,-0.1795,-0.1795,-0.1795,-0.1795,-0.1795,-0.1795,-0.1795,-0.1795,-0.1795,-0.1795,-0.1795,-0.1795,-0.1795,-0.1795,-0.1795,-0.1795,-0.1795,-0.1795,-0.1795,-0.1795,-0.1795,-0.1795,-0.1795,-0.1795,-0.1795,-0.1795,-0.1795,-0.1795,-0.1795,-0.1795,-0.1795,-0.1795,-0.1795,-0.1795,-0.1795,-0.1795,-0.1795,-0.1795,-0.1795,-0.1795,-0.1795,-0.1795,-0.1795,0.938,0.9069,0.8697,0.8899,0.7376,0.5735,0.5479,0.4247,0.2943,0.223,0.2114,0.2046,0.167,0.166,0.1729,0.1734,0.1744,0.1773,0.1868,0.1834,0.1892,0.2087,0.19,0.1917,0.2346,0.2536,0.2781,0.3203,0.332,0.3455,0.3638,0.3815,0.3889,0.3889,0.3363,0.3054,0.3054,0.2452,0.2146,0.2127,0.1133,0.0459,0.0062,-0.0956,-0.1636,-0.2007,-0.1964,-0.1948,-0.19,-0.1888,-0.1855,-0.1812,-0.1812,-0.1794,-0.1795,-0.1795,-0.1795,-0.1795,-0.1795,-0.1795,-0.1795,-0.1795,-0.1795,-0.1795,-0.1795,-0.1795,-0.1795,-0.1795,-0.1795,-0.1795,-0.1795,-0.1795,-0.1795,-0.1795,-0.1795,-0.1795,-0.1795,-0.1795,-0.1795,-0.1795,-0.1795,-0.1795,-0.1795,-0.1795,-0.1795,-0.1795,-0.1795,-0.1795,-0.1795,-0.1795,-0.1795,-0.1795,-0.1795,-0.1795,-0.1795,-0.1795,-0.1795,-0.1795,-0.1795,-0.1795,-0.1795,-0.1795,-0.1795,-0.1795,-0.1795,-0.1795,-0.1795,-0.1795,-0.1795,-0.1795,-0.1795,-0.1805,0.9144,0.8869,0.8452,0.8582,0.6818,0.4999,0.4767,0.342,0.2121,0.1856,0.1797,0.1797,0.1797,0.1797,0.1777,0.1711,0.1775,0.1851,0.1834,0.1821,0.1914,0.2184,0.1905,0.192,0.2458,0.2676,0.2892,0.3173,0.3085,0.3146,0.3486,0.3672,0.3703,0.3486,0.2837,0.2343,0.2066,0.1356,0.0986,0.0986,-0.0031,-0.0493,-0.0524,-0.1543,-0.2008,-0.2008,-0.2008,-0.1964,-0.1945,-0.1945,-0.1884,-0.1838,-0.1838,-0.1814,-0.1808,-0.1808,-0.1803,-0.1795,-0.1795,-0.1795,-0.1795,-0.1795,-0.1795,-0.1795,-0.1795,-0.1795,-0.1795,-0.1795,-0.1795,-0.1795,-0.1795,-0.1795,-0.1795,-0.1795,-0.1795,-0.1795,-0.1795,-0.1795,-0.1795,-0.1795,-0.1795,-0.1795,-0.1795,-0.1795,-0.1795,-0.1795,-0.1795,-0.1795,-0.1795,-0.1795,-0.1795,-0.1795,-0.1795,-0.1795,-0.1795,-0.1795,-0.1795,-0.1795,-0.1795,-0.1795,-0.1795,-0.1795,-0.1795,-0.1795,-0.1795,-0.1795,-0.1795,-0.1795,-0.18,-0.1808,-0.1808,-0.1825,0.8905,0.925,0.8896,0.684,0.6218,0.5451,0.2992,0.2318,0.212,0.1862,0.1797,0.1797,0.1797,0.1797,0.1778,0.1709,0.1977,0.2134,0.1917,0.2018,0.2082,0.2007,0.1824,0.1736,0.18,0.2221,0.2497,0.2498,0.2806,0.3146,0.3486,0.3517,0.3208,0.2529,0.2498,0.2035,0.1017,0.1017,0.0986,0.0986,-0.0031,-0.0493,-0.0524,-0.1543,-0.2008,-0.2008,-0.2008,-0.2007,-0.2007,-0.2007,-0.1958,-0.19,-0.19,-0.1863,-0.1811,-0.1811,-0.1792,-0.1795,-0.1795,-0.1795,-0.1795,-0.1795,-0.1795,-0.1795,-0.1795,-0.1795,-0.1795,-0.1795,-0.1795,-0.1795,-0.1795,-0.1795,-0.1795,-0.1795,-0.1795,-0.1795,-0.1795,-0.1795,-0.1795,-0.1795,-0.1795,-0.1795,-0.1795,-0.1795,-0.1795,-0.1795,-0.1795,-0.1795,-0.1795,-0.1795,-0.1795,-0.1795,-0.1795,-0.1795,-0.1795,-0.1795,-0.1795,-0.1795,-0.1795,-0.1795,-0.1795,-0.1795,-0.1795,-0.1795,-0.1795,-0.1795,-0.1795,-0.1795,-0.181,-0.1811,-0.1811,-0.1827,0.7622,0.7943,0.7948,0.728,0.6151,0.4982,0.4109,0.2953,0.2016,0.183,0.1797,0.1797,0.1797,0.1797,0.1848,0.2014,0.2128,0.2174,0.2111,0.2254,0.2318,0.2159,0.2331,0.2398,0.2215,0.2387,0.2498,0.2498,0.2376,0.2067,0.148,0.188,0.2251,0.2498,0.1819,0.0986,0.0,-0.071,-0.1049,-0.1049,-0.1358,-0.1512,-0.1543,-0.1853,-0.2008,-0.2008,-0.2008,-0.2008,-0.2008,-0.2008,-0.1959,-0.1901,-0.1901,-0.1877,-0.1871,-0.1871,-0.1865,-0.1857,-0.1857,-0.1857,-0.1857,-0.1857,-0.1857,-0.1857,-0.1857,-0.1827,-0.1795,-0.1795,-0.1795,-0.1795,-0.1795,-0.1795,-0.1795,-0.1795,-0.1795,-0.1795,-0.1795,-0.1795,-0.1795,-0.1795,-0.1795,-0.1795,-0.1795,-0.1795,-0.1795,-0.1795,-0.1795,-0.1795,-0.1795,-0.1795,-0.1795,-0.1795,-0.1795,-0.1795,-0.1795,-0.1795,-0.1795,-0.1795,-0.1795,-0.1795,-0.1795,-0.1795,-0.1795,-0.1795,-0.1795,-0.1805,-0.1798,-0.1798,-0.1813,-0.1872,-0.1863,-0.1877,0.6749,0.7196,0.725,0.6673,0.5658,0.4602,0.383,0.2802,0.1969,0.1822,0.1797,0.1797,0.1797,0.1797,0.186,0.2026,0.2107,0.2161,0.213,0.2334,0.2425,0.2189,0.2311,0.236,0.2197,0.2257,0.2376,0.2498,0.1727,0.1203,0.1079,0.0863,0.0924,0.1356,0.077,-0.0062,-0.1048,-0.1698,-0.2008,-0.2008,-0.2008,-0.2008,-0.2008,-0.2008,-0.2008,-0.2008,-0.2008,-0.2008,0.0,-0.2008,-0.1965,-0.1948,-0.1948,-0.193,-0.1903,-0.1903,-0.1896,-0.1886,-0.1886,-0.1886,-0.1886,-0.1886,-0.1886,-0.1886,-0.1886,-0.1851,-0.181,-0.1798,-0.1795,-0.1795,-0.1795,-0.1795,-0.1795,-0.1795,-0.1795,-0.1795,-0.1795,-0.1795,-0.1795,-0.1795,-0.1795,-0.1795,-0.1795,-0.1795,-0.1795,-0.1795,-0.1795,-0.1795,-0.1795,-0.1795,-0.1795,-0.1795,-0.1795,-0.1795,-0.1795,-0.1795,-0.1795,-0.1795,-0.1795,-0.1795,-0.1795,-0.1795,-0.1795,-0.1795,-0.1806,-0.1793,-0.1812,-0.1834,-0.1855,-0.1904,-0.1934,-0.1948,0.0,0.6781,0.6683,0.5201,0.4767,0.4245,0.2518,0.2048,0.0,0.1812,0.179,0.1794,0.1807,0.1802,0.1805,0.1831,0.1994,0.2087,0.2011,0.2277,0.2397,0.2167,0.1964,0.183,0.1804,0.1938,0.213,0.2436,0.0986,0.0586,0.1726,0.0308,-0.0586,-0.0678,-0.0616,-0.1048,-0.1977,-0.2008,-0.2008,-0.2008,-0.2008,-0.2008,-0.2008,-0.2008,-0.2008,-0.2008,-0.2008,-0.2008,-0.2008,-0.2008,-0.2008,-0.2008,-0.2008,-0.196,-0.1904,-0.1904,-0.1917,-0.1922,-0.1922,-0.1922,-0.1922,-0.1922,-0.1922,-0.1892,-0.1889,-0.1868,-0.1808,-0.1807,-0.1798,-0.1797,-0.1795,-0.1795,-0.1795,-0.1795,-0.1795,-0.1795,-0.1795,-0.1795,-0.1795,-0.1795,-0.1795,-0.1795,-0.1795,-0.1795,-0.1795,-0.1795,-0.1795,-0.1795,-0.1795,-0.1795,-0.1795,-0.1795,-0.1795,-0.1795,-0.1795,-0.1795,-0.1795,-0.1795,-0.1795,-0.1795,-0.1795,-0.1797,-0.1798,-0.1798,-0.1802,-0.1818,-0.1818,-0.1876,-0.1904,-0.1905,-0.1963,-0.2008,0.4916,0.0,0.5189,0.4463,0.3929,0.3366,0.0,0.2041,0.1704,0.1723,0.1728,0.177,0.1921,0.1871,0.1887,0.2147,0.2263,0.2246,0.2024,0.2118,0.2278,0.2541,0.2347,0.2107,0.1892,0.1963,0.2038,0.2099,0.1266,0.0463,-0.0247,-0.0679,-0.1357,-0.2374,-0.1913,-0.1759,-0.2008,-0.2008,-0.2008,-0.2008,-0.2008,-0.2008,-0.2008,-0.2008,-0.2008,-0.2008,-0.2008,-0.2008,-0.2008,-0.2008,-0.2008,-0.2008,-0.2008,-0.2003,-0.1966,-0.1966,-0.1961,-0.1985,-0.1985,-0.1985,-0.1985,-0.1985,-0.1985,-0.1981,-0.1928,-0.1899,-0.1868,-0.181,-0.1801,-0.1796,-0.1801,-0.1795,-0.1795,-0.1795,-0.1795,-0.1795,-0.1795,-0.1795,-0.1795,-0.1795,-0.1795,-0.1795,-0.1795,-0.1795,-0.1795,-0.1795,-0.1795,-0.1795,-0.1795,-0.1795,-0.1795,-0.1795,-0.1795,-0.1795,-0.1795,-0.1795,-0.1795,-0.1795,-0.1795,-0.1795,-0.1795,-0.1789,-0.1801,-0.1801,-0.1853,-0.188,-0.188,-0.1947,-0.1966,-0.1966,-0.2004,-0.2008,0.4411,0.4779,0.4944,0.4044,0.3715,0.3377,0.2471,0.1967,0.1708,0.1741,0.1748,0.1778,0.1889,0.1899,0.1974,0.2211,0.2256,0.2286,0.2353,0.2202,0.225,0.2646,0.2465,0.2189,0.1913,0.1971,0.1884,0.1575,0.0648,-0.0247,-0.0956,-0.1573,-0.2098,-0.2531,-0.2192,-0.2008,-0.2008,-0.2008,-0.2008,-0.2008,-0.2008,-0.2008,-0.2008,-0.2008,-0.2008,-0.2008,-0.2008,-0.2008,-0.2008,-0.2008,-0.2008,-0.2008,-0.2008,-0.2008,-0.2008,-0.2008,-0.2008,-0.2008,-0.2008,-0.2008,-0.2008,-0.2008,-0.2008,-0.2004,-0.1957,-0.1941,-0.1918,-0.1874,-0.1832,-0.1857,-0.1841,-0.1826,-0.1787,-0.1787,-0.1805,-0.1795,-0.1795,-0.1795,-0.1795,-0.1795,-0.1795,-0.1795,-0.1795,-0.1795,-0.1795,-0.1795,-0.1795,-0.1795,-0.1795,-0.1795,-0.1795,-0.1795,-0.1795,-0.18,-0.1786,-0.1787,-0.1787,-0.1787,-0.1787,-0.1822,-0.1836,-0.1853,-0.1838,-0.1853,-0.1884,-0.1908,-0.1952,-0.1969,-0.2008,-0.2008,-0.2008,-0.2008,0.4404,0.4924,0.514,0.3752,0.364,0.3518,0.2236,0.1855,0.1773,0.1781,0.1798,0.1822,0.1858,0.1947,0.2079,0.2247,0.2227,0.2341,0.2827,0.2534,0.2366,0.2726,0.2539,0.2269,0.1974,0.1789,0.1513,0.105,-0.0339,-0.111,-0.1019,-0.216,-0.2592,-0.2008,-0.2008,-0.2008,-0.2008,-0.2008,-0.2008,-0.2008,-0.2008,-0.2008,-0.2008,-0.2008,-0.2008,-0.2008,-0.2008,-0.2008,-0.2008,-0.2008,-0.2008,-0.2008,-0.2008,-0.2008,-0.2008,-0.2008,-0.2008,-0.2008,-0.2008,-0.2008,-0.2008,-0.2008,-0.2008,-0.2008,-0.2008,-0.2008,-0.1997,-0.1944,-0.1896,-0.1892,-0.1887,-0.1866,-0.1818,-0.1818,-0.1827,-0.1809,-0.1809,-0.1809,-0.1809,-0.1809,-0.1809,-0.1809,-0.1809,-0.1809,-0.1809,-0.1809,-0.1809,-0.1809,-0.1809,-0.1809,-0.1809,-0.1809,-0.1809,-0.1819,-0.1816,-0.1818,-0.182,-0.1825,-0.1821,-0.1832,-0.1892,-0.1893,-0.1907,-0.1907,-0.1908,-0.1951,-0.2008,-0.2008,-0.2008,-0.2008,-0.2008,-0.2008,0.4885,0.4911,0.4539,0.3307,0.2863,0.2549,0.1826,0.1642,0.1645,0.171,0.18,0.1932,0.2104,0.2157,0.2274,0.2565,0.2561,0.2716,0.3227,0.3108,0.2967,0.3018,0.2863,0.2591,0.2269,0.106,0.0493,0.0957,-0.0771,-0.1603,-0.1019,-0.1729,-0.2099,-0.2008,-0.2008,-0.2008,-0.2008,-0.2008,-0.2008,-0.2008,-0.2008,-0.2008,-0.2008,-0.2008,-0.2008,-0.2008,-0.2008,-0.2008,-0.2008,-0.2008,-0.2008,-0.2008,-0.2008,-0.2008,-0.2008,-0.2008,-0.2008,-0.2008,-0.2008,-0.2008,-0.2008,-0.2008,-0.2008,-0.2008,-0.2008,-0.2008,-0.2006,-0.1996,-0.1944,-0.1888,-0.1892,-0.1882,-0.1879,-0.1879,-0.1875,-0.1872,-0.1872,-0.1872,-0.1872,-0.1872,-0.1872,-0.1872,-0.1872,-0.1872,-0.1872,-0.1872,-0.1872,-0.1872,-0.1872,-0.1872,-0.1872,-0.1872,-0.1872,-0.1874,-0.1879,-0.1879,-0.189,-0.1885,-0.1893,-0.1892,-0.1893,-0.1894,-0.1939,-0.1969,-0.2,-0.2003,-0.2008,-0.2008,-0.2008,-0.2008,-0.2008,-0.2008,0.4324,0.4094,0.371,0.2929,0.2943,0.296,0.2207,0.1969,0.1942,0.2017,0.2074,0.2153,0.2277,0.2374,0.2476,0.2658,0.2773,0.2914,0.3142,0.3095,0.3005,0.2841,0.2758,0.2542,0.2118,0.1113,0.0489,0.0463,-0.0741,-0.1481,-0.1544,-0.1822,-0.2008,-0.2008,-0.2008,-0.2008,-0.2008,-0.2008,-0.2008,-0.2008,-0.2008,-0.2008,-0.2008,-0.2008,-0.2008,-0.2008,-0.2008,-0.2008,-0.2008,-0.2008,-0.2008,-0.2008,-0.2008,-0.2008,-0.2008,-0.2008,-0.2008,-0.2008,-0.2008,-0.2008,-0.2008,-0.2008,-0.2008,-0.2008,-0.2008,-0.2008,-0.2008,-0.2008,-0.1967,-0.1952,-0.1969,-0.1923,-0.191,-0.191,-0.1898,-0.1886,-0.1886,-0.1886,-0.1886,-0.1886,-0.1886,-0.1886,-0.1886,-0.1886,-0.1886,-0.1886,-0.1886,-0.1886,-0.1886,-0.1886,-0.1886,-0.1886,-0.1886,-0.1892,-0.1909,-0.191,-0.1886,-0.19,-0.1934,-0.1941,-0.1955,-0.1956,-0.1962,-0.2007,-0.2008,-0.2008,-0.2008,-0.2008,-0.2008,-0.2008,-0.1992,-0.1999,0.3964,0.3532,0.3154,0.2835,0.3028,0.3147,0.2517,0.229,0.223,0.23,0.234,0.2401,0.2472,0.2606,0.2746,0.283,0.2972,0.3104,0.3088,0.3101,0.304,0.2825,0.2687,0.2412,0.1929,0.101,0.0271,-0.0183,-0.098,-0.1597,-0.1966,-0.2003,-0.2008,-0.2008,-0.2008,-0.2008,-0.2008,-0.2008,-0.2008,-0.2008,-0.2008,-0.2008,-0.2008,-0.2008,-0.2008,-0.2008,-0.2008,-0.2008,-0.2008,-0.2008,-0.2008,-0.2008,-0.2008,-0.2008,-0.2008,-0.2008,-0.2008,-0.2008,-0.2008,-0.2008,-0.2008,-0.2008,-0.2008,-0.2008,-0.2008,-0.2008,-0.2008,-0.2008,-0.2008,-0.2008,-0.2008,-0.1959,-0.1911,-0.1911,-0.1924,-0.1937,-0.1937,-0.1937,-0.1937,-0.1937,-0.1937,-0.1937,-0.1937,-0.1937,-0.1937,-0.1937,-0.1937,-0.1937,-0.1937,-0.1937,-0.1937,-0.1937,-0.1937,-0.1917,-0.191,-0.1911,-0.1911,-0.1911,-0.1964,-0.2008,-0.2008,-0.2008,-0.2008,-0.2008,-0.2008,-0.2008,-0.2008,-0.2008,-0.2011,-0.1987,-0.2008,-0.2022,0.4582,0.3921,0.3289,0.3254,0.2685,0.2159,0.2272,0.2248,0.2243,0.236,0.2483,0.2619,0.2757,0.2923,0.3095,0.3228,0.3311,0.3384,0.338,0.3427,0.3446,0.3344,0.2916,0.2401,0.1869,0.0175,-0.0855,-0.0827,-0.2036,-0.2507,-0.1934,-0.1961,-0.2008,-0.2008,-0.2008,-0.2008,-0.2008,-0.2008,-0.2008,-0.2008,-0.2008,-0.2008,-0.2008,-0.2008,-0.2008,-0.2008,-0.2008,-0.2008,-0.2008,-0.2008,-0.2008,-0.2008,-0.2008,-0.2008,-0.2008,-0.2008,-0.2008,-0.2008,-0.2008,-0.2008,-0.2008,-0.2008,-0.2008,-0.2008,-0.2008,-0.2008,-0.2008,-0.2008,-0.2008,-0.2008,-0.2008,-0.2006,-0.2004,-0.2004,-0.2003,-0.2001,-0.2001,-0.2001,-0.2001,-0.2001,-0.2001,-0.2001,-0.2001,-0.2001,-0.2001,-0.2001,-0.2001,-0.2001,-0.2001,-0.2001,-0.2001,-0.2001,-0.2001,-0.2002,-0.2004,-0.2004,-0.2004,-0.2004,-0.2006,-0.2008,-0.2008,-0.2008,-0.2008,-0.2008,-0.2008,-0.2008,-0.2008,-0.2008,-0.199,-0.2016,-0.1986,-0.2033,0.3799,0.3249,0.2762,0.2587,0.233,0.2178,0.2379,0.2496,0.2606,0.2746,0.2844,0.2929,0.2966,0.3116,0.3255,0.3338,0.3427,0.3465,0.3465,0.3452,0.3356,0.3175,0.2937,0.2433,0.1585,0.0504,-0.034,-0.0869,-0.1721,-0.2117,-0.1902,-0.1913,-0.195,-0.195,-0.1939,-0.1948,-0.1948,-0.1967,-0.2008,-0.2008,-0.2008,-0.2008,-0.2008,-0.2008,-0.2008,-0.2008,-0.2008,-0.2008,-0.2008,-0.2008,-0.2008,-0.2008,-0.2008,-0.2008,-0.2008,-0.2008,-0.2008,-0.2008,-0.2008,-0.2008,-0.2008,-0.2008,-0.2008,-0.2008,-0.2008,-0.2008,-0.2008,-0.2008,-0.2008,-0.2008,-0.2008,-0.2008,-0.2008,-0.2008,-0.2008,-0.2008,-0.2008,-0.2008,-0.2008,-0.2008,-0.2008,-0.2008,-0.2008,-0.2008,-0.2008,-0.2008,-0.2008,-0.2008,-0.2008,-0.2008,-0.2008,-0.2008,-0.2008,-0.2008,-0.2008,-0.2008,-0.2008,-0.2008,-0.2008,-0.2008,-0.2008,-0.2008,-0.2008,-0.2008,-0.2008,-0.2008,-0.2008,-0.1994,-0.2008,-0.1988,-0.2057,-0.2081,0.316,0.2711,0.2394,0.2103,0.2125,0.226,0.2475,0.2666,0.2844,0.3005,0.3074,0.3113,0.311,0.3213,0.3316,0.3375,0.3461,0.3496,0.3496,0.3463,0.3352,0.3147,0.2767,0.2166,0.1271,0.0488,-0.0301,-0.1093,-0.1552,-0.1821,-0.1871,-0.1881,-0.1862,-0.1871,-0.1862,-0.1881,-0.1901,-0.1952,-0.1967,-0.2008,-0.2008,-0.2008,-0.2008,-0.2008,-0.2008,-0.2008,-0.2008,-0.2008,-0.2008,-0.2008,-0.2008,-0.2008,-0.2008,-0.2008,-0.2008,-0.2008,-0.2008,-0.2008,-0.2008,-0.2008,-0.2008,-0.2008,-0.2008,-0.2008,-0.2008,-0.2008,-0.2008,-0.2008,-0.2008,-0.2008,-0.2008,-0.2008,-0.2008,-0.2008,-0.2008,-0.2008,-0.2008,-0.2008,-0.2008,-0.2008,-0.2008,-0.2008,-0.2008,-0.2008,-0.2008,-0.2008,-0.2008,-0.2008,-0.2008,-0.2008,-0.2008,-0.2008,-0.2008,-0.2008,-0.2008,-0.2008,-0.2008,-0.2008,-0.2008,-0.2008,-0.2008,-0.2008,-0.2008,-0.2008,-0.2008,-0.2012,-0.199,-0.2009,-0.1996,-0.2048,-0.209,-0.2114,0.2883,0.2503,0.2317,0.1984,0.2052,0.2276,0.255,0.2698,0.2857,0.3061,0.3147,0.3188,0.3103,0.3215,0.3316,0.3377,0.3461,0.3496,0.3497,0.3497,0.3476,0.3393,0.2398,0.1491,0.0932,-0.0133,-0.1038,-0.1652,-0.1759,-0.1804,-0.1804,-0.1805,-0.1808,-0.181,-0.1811,-0.184,-0.1899,-0.1901,-0.1946,-0.2007,-0.2008,-0.2008,-0.2008,-0.2008,-0.2008,-0.2008,-0.2008,-0.2008,-0.2008,-0.2008,-0.2008,-0.2008,-0.2008,-0.2008,-0.2008,-0.2008,-0.2008,-0.2008,-0.2008,-0.2008,-0.2008,-0.2008,-0.2008,-0.2008,-0.2008,-0.2008,-0.2008,-0.2008,-0.2008,-0.2008,-0.2008,-0.2008,-0.2008,-0.2008,-0.2008,-0.2008,-0.2008,-0.2008,-0.2008,-0.2008,-0.2008,-0.2008,-0.2008,-0.2008,-0.2008,-0.2008,-0.2008,-0.2008,-0.2008,-0.2008,-0.2008,-0.2008,-0.2008,-0.2008,-0.2008,-0.2008,-0.2008,-0.2008,-0.2008,-0.2008,-0.2008,-0.2008,-0.2008,-0.2008,-0.2008,-0.199,-0.1987,-0.1987,-0.205,-0.2109,-0.211,-0.2125,0.2744,0.2368,0.2171,0.2123,0.2364,0.2664,0.2839,0.2903,0.2981,0.3139,0.3181,0.3213,0.3238,0.3271,0.3328,0.3455,0.3485,0.3511,0.3555,0.3523,0.3273,0.2634,0.2227,0.1438,0.0053,-0.0399,-0.091,-0.1708,-0.1751,-0.1754,-0.1803,-0.1765,-0.1735,-0.1717,-0.1786,-0.1817,-0.1835,-0.1869,-0.1906,-0.1945,-0.1967,-0.2008,-0.2008,-0.2008,-0.2008,-0.2008,-0.2008,-0.2008,-0.2008,-0.2008,-0.2008,-0.2008,-0.2008,-0.2008,-0.2008,-0.2008,-0.2008,-0.2008,-0.2008,-0.2008,-0.2008,-0.2008,-0.2008,-0.2008,-0.2008,-0.2008,-0.2008,-0.2008,-0.2008,-0.2008,-0.2008,-0.2008,-0.2008,-0.2008,-0.2008,-0.2008,-0.2008,-0.2008,-0.2008,-0.2008,-0.2008,-0.2008,-0.2008,-0.2008,-0.2008,-0.2008,-0.2008,-0.2008,-0.2008,-0.2008,-0.2008,-0.2008,-0.2008,-0.2008,-0.2008,-0.2008,-0.2008,-0.2008,-0.2008,-0.2008,-0.2008,-0.2008,-0.2008,-0.2008,-0.1996,-0.201,-0.1987,-0.2061,-0.2091,-0.211,-0.2165,-0.2179,0.2443,0.2183,0.209,0.2248,0.2494,0.2767,0.2981,0.303,0.3068,0.3178,0.3205,0.3224,0.3285,0.3315,0.3388,0.3481,0.3516,0.3545,0.3582,0.325,0.278,0.2271,0.1544,0.0671,-0.0399,-0.0799,-0.1204,-0.173,-0.1714,-0.1712,-0.1758,-0.1714,-0.1704,-0.1704,-0.174,-0.1765,-0.1805,-0.1843,-0.1853,-0.1866,-0.1926,-0.1971,-0.1972,-0.1996,-0.2008,-0.2008,-0.2008,-0.2008,-0.2008,-0.2008,-0.2008,-0.2008,-0.2008,-0.2008,-0.2008,-0.2008,-0.2008,-0.2008,-0.2008,-0.2008,-0.2008,-0.2008,-0.2008,-0.2008,-0.2008,-0.2008,-0.2008,-0.2008,-0.2008,-0.2008,-0.2008,-0.2008,-0.2008,-0.2008,-0.2008,-0.2008,-0.2008,-0.2008,-0.2008,-0.2008,-0.2008,-0.2008,-0.2008,-0.2008,-0.2008,-0.2008,-0.2008,-0.2008,-0.2008,-0.2008,-0.2008,-0.2008,-0.2008,-0.2008,-0.2008,-0.2008,-0.2008,-0.2008,-0.2008,-0.2012,-0.1992,-0.2013,-0.2012,-0.1993,-0.2009,-0.1999,-0.2054,-0.2091,-0.2116,-0.2128,-0.218,-0.2188,0.2078,0.2015,0.2091,0.2352,0.2528,0.2737,0.3048,0.3099,0.3114,0.3194,0.3205,0.3224,0.3285,0.3344,0.3431,0.3488,0.3548,0.3587,0.3587,0.28,0.2172,0.2087,0.0603,-0.0463,-0.0616,-0.1284,-0.1712,-0.1712,-0.171,-0.1708,-0.1708,-0.1705,-0.1704,-0.1704,-0.1707,-0.1747,-0.1799,-0.1806,-0.1808,-0.1804,-0.1863,-0.1877,-0.1879,-0.1971,-0.2001,-0.2003,-0.2003,-0.2005,-0.2008,-0.2008,-0.2008,-0.2008,-0.2008,-0.2008,-0.2008,-0.2008,-0.2008,-0.2008,-0.2008,-0.2008,-0.2008,-0.2008,-0.2008,-0.2008,-0.2008,-0.2008,-0.2008,-0.2008,-0.2008,-0.2008,-0.2008,-0.2008,-0.2008,-0.2008,-0.2008,-0.2008,-0.2008,-0.2008,-0.2008,-0.2008,-0.2008,-0.2008,-0.2008,-0.2008,-0.2008,-0.2008,-0.2008,-0.2008,-0.2008,-0.2008,-0.2008,-0.2008,-0.2008,-0.2008,-0.2008,-0.2008,-0.2008,-0.2008,-0.201,-0.1992,-0.1986,-0.1994,-0.1994,-0.2022,-0.1993,-0.2054,-0.2109,-0.2112,-0.2128,-0.2188,-0.2188,-0.2188,0.2022,0.2075,0.2299,0.2571,0.2809,0.3032,0.3158,0.3186,0.3189,0.3202,0.3205,0.3224,0.3285,0.3344,0.3431,0.3488,0.3548,0.3587,0.3587,0.28,0.1958,0.1255,0.0251,-0.0696,-0.1443,-0.1664,-0.1776,-0.1776,-0.1781,-0.1767,-0.1767,-0.1717,-0.1704,-0.1704,-0.1754,-0.1758,-0.1714,-0.1767,-0.1787,-0.1797,-0.1828,-0.1814,-0.1817,-0.1877,-0.1918,-0.191,-0.191,-0.1954,-0.2008,-0.2008,-0.2008,-0.2008,-0.2008,-0.2008,-0.2008,-0.2008,-0.2008,-0.2008,-0.2008,-0.2008,-0.2008,-0.2008,-0.2008,-0.2008,-0.2008,-0.2008,-0.2008,-0.2008,-0.2008,-0.2008,-0.2008,-0.2008,-0.2008,-0.2008,-0.2008,-0.2008,-0.2008,-0.2008,-0.2008,-0.2008,-0.2008,-0.2008,-0.2008,-0.2008,-0.2008,-0.2008,-0.2008,-0.2008,-0.2008,-0.2008,-0.2008,-0.2008,-0.2008,-0.2008,-0.2008,-0.2008,-0.2008,-0.2008,-0.1997,-0.2012,-0.1987,-0.2012,-0.2024,-0.2085,-0.2078,-0.2096,-0.2109,-0.2167,-0.2182,-0.2188,-0.2188,-0.2188,0.1991,0.2121,0.2327,0.2675,0.2916,0.3099,0.3155,0.3185,0.3205,0.3205,0.3205,0.3224,0.3285,0.3321,0.3362,0.3447,0.3155,0.2928,0.2928,0.179,0.0775,0.0332,-0.053,-0.1262,-0.1767,-0.1795,-0.1795,-0.1795,-0.1808,-0.1799,-0.1799,-0.1756,-0.1741,-0.1754,-0.1795,-0.1762,-0.1705,-0.1778,-0.1785,-0.1755,-0.1786,-0.1793,-0.1754,-0.1829,-0.1881,-0.1909,-0.1909,-0.1919,-0.1965,-0.1949,-0.1955,-0.1956,-0.2002,-0.2008,-0.2008,-0.2008,-0.2008,-0.2008,-0.2008,-0.2008,-0.2008,-0.2008,-0.2008,-0.2008,-0.2008,-0.2008,-0.2008,-0.2008,-0.2008,-0.2008,-0.2008,-0.2008,-0.2008,-0.2008,-0.2008,-0.2008,-0.2008,-0.2008,-0.2008,-0.2008,-0.2008,-0.2008,-0.2008,-0.2008,-0.2008,-0.2008,-0.2008,-0.2008,-0.2008,-0.2008,-0.2008,-0.2008,-0.2008,-0.2008,-0.2008,-0.1989,-0.1996,-0.1996,-0.2024,-0.2047,-0.2061,-0.2062,-0.2069,-0.2085,-0.2101,-0.2116,-0.2164,-0.2181,-0.2188,-0.2188,-0.2188,-0.2188,0.191,0.2131,0.2334,0.2731,0.2954,0.3078,0.3083,0.3154,0.319,0.319,0.3198,0.322,0.327,0.3289,0.3312,0.3362,0.2712,0.2211,0.2211,0.0701,-0.0408,-0.0408,-0.1216,-0.1787,-0.1787,-0.1792,-0.1795,-0.1795,-0.1795,-0.1795,-0.1795,-0.1795,-0.1811,-0.1814,-0.1812,-0.177,-0.1712,-0.1764,-0.1761,-0.1705,-0.1751,-0.1751,-0.1707,-0.175,-0.1829,-0.1891,-0.1891,-0.1894,-0.1872,-0.1873,-0.1889,-0.1896,-0.1957,-0.2003,-0.2008,-0.2008,-0.2008,-0.2008,-0.2008,-0.2008,-0.2008,-0.2008,-0.2008,-0.2008,-0.2008,-0.2008,-0.2008,-0.2008,-0.2008,-0.2008,-0.2008,-0.2008,-0.2008,-0.2008,-0.2008,-0.2008,-0.2008,-0.2008,-0.2008,-0.2008,-0.2008,-0.2008,-0.2008,-0.2008,-0.2008,-0.2008,-0.2008,-0.2008,-0.2008,-0.2008,-0.2008,-0.2008,-0.2008,-0.2008,-0.2008,-0.2003,-0.1987,-0.1987,-0.2052,-0.2116,-0.2108,-0.2114,-0.2117,-0.2117,-0.2117,-0.2129,-0.2188,-0.2188,-0.2188,-0.2188,-0.2188,-0.2188,0.1668,0.2063,0.2473,0.2864,0.2945,0.295,0.3081,0.3097,0.3102,0.3102,0.3169,0.3208,0.3216,0.3261,0.3298,0.3307,0.269,0.2211,0.2211,0.0694,-0.0401,-0.0401,-0.1221,-0.181,-0.181,-0.1808,-0.1795,-0.1795,-0.1795,-0.1795,-0.1795,-0.1795,-0.1793,-0.1789,-0.1789,-0.1802,-0.1798,-0.1802,-0.1761,-0.1704,-0.171,-0.1711,-0.1704,-0.1718,-0.1743,-0.1823,-0.1823,-0.181,-0.1809,-0.1811,-0.1838,-0.1895,-0.1895,-0.1954,-0.2008,-0.2008,-0.2008,-0.2008,-0.2008,-0.2008,-0.2008,-0.2008,-0.2008,-0.2008,-0.2008,-0.2008,-0.2008,-0.2008,-0.2008,-0.2008,-0.2008,-0.2008,-0.2008,-0.2008,-0.2008,-0.2008,-0.2008,-0.2008,-0.2008,-0.2008,-0.2008,-0.2008,-0.2008,-0.2008,-0.2008,-0.2008,-0.2008,-0.2008,-0.2008,-0.2008,-0.2008,-0.2008,-0.2008,-0.2008,-0.2008,-0.2003,-0.1987,-0.1987,-0.2072,-0.2105,-0.2109,-0.2168,-0.2182,-0.2182,-0.2182,-0.2184,-0.2188,-0.2188,-0.2188,-0.2188,-0.2188,-0.2188,0.1725,0.2066,0.2408,0.2651,0.2837,0.2956,0.298,0.3044,0.309,0.309,0.3112,0.3165,0.3198,0.3227,0.3091,0.2655,0.1927,0.1266,0.0801,-0.0339,-0.1129,-0.1129,-0.1493,-0.1751,-0.1751,-0.1779,-0.1797,-0.1797,-0.1813,-0.1795,-0.1795,-0.1795,-0.1795,-0.1795,-0.1795,-0.1789,-0.1803,-0.1803,-0.1787,-0.1756,-0.1726,-0.1692,-0.1703,-0.1702,-0.1711,-0.1752,-0.1797,-0.1775,-0.1748,-0.1795,-0.1812,-0.1843,-0.1832,-0.1899,-0.1958,-0.1945,-0.1962,-0.2008,-0.2008,-0.2008,-0.2008,-0.2008,-0.2008,-0.2008,-0.2008,-0.2008,-0.2008,-0.2008,-0.2008,-0.2008,-0.2008,-0.2008,-0.2008,-0.2008,-0.2008,-0.2008,-0.2008,-0.2008,-0.2008,-0.2008,-0.2008,-0.2008,-0.2008,-0.2008,-0.2008,-0.2008,-0.2008,-0.2008,-0.2008,-0.2008,-0.2008,-0.2008,-0.2008,-0.2014,-0.1999,-0.2026,-0.2051,-0.2068,-0.211,-0.2168,-0.2168,-0.2181,-0.2188,-0.2188,-0.2188,-0.2188,-0.2188,-0.2188,-0.2188,-0.2188,-0.2188,-0.2188,0.1703,0.1963,0.2183,0.2379,0.2634,0.2853,0.2888,0.2988,0.3074,0.3089,0.3105,0.3054,0.2898,0.2892,0.2699,0.2093,0.116,0.0277,-0.0328,-0.1125,-0.1677,-0.1677,-0.1702,-0.1694,-0.1694,-0.1747,-0.1765,-0.1765,-0.1787,-0.1772,-0.1772,-0.1779,-0.1811,-0.1811,-0.1791,-0.1795,-0.1795,-0.1795,-0.1811,-0.1788,-0.1758,-0.1716,-0.1714,-0.1712,-0.1711,-0.1705,-0.1747,-0.1745,-0.1708,-0.1761,-0.1803,-0.1793,-0.1811,-0.1852,-0.1887,-0.1873,-0.1902,-0.1965,-0.1965,-0.2001,-0.2008,-0.2008,-0.2008,-0.2008,-0.2008,-0.2008,-0.2008,-0.2008,-0.2008,-0.2008,-0.2008,-0.2008,-0.2008,-0.2008,-0.2008,-0.2008,-0.2008,-0.2008,-0.2008,-0.2008,-0.2008,-0.2008,-0.2008,-0.2008,-0.2008,-0.2008,-0.2008,-0.2008,-0.2008,-0.2008,-0.2008,-0.2008,-0.2008,-0.1988,-0.1985,-0.2046,-0.2109,-0.2107,-0.2171,-0.2188,-0.2188,-0.2188,-0.2188,-0.2188,-0.2188,-0.2188,-0.2188,-0.2188,-0.2188,-0.2188,-0.2188,-0.2188,0.1464,0.1626,0.1807,0.2138,0.2316,0.2522,0.2831,0.2945,0.303,0.309,0.31,0.287,0.211,0.2018,0.2043,0.2017,0.0681,-0.0354,-0.0404,-0.1087,-0.1594,-0.1594,-0.1672,-0.1691,-0.1691,-0.169,-0.1707,-0.1707,-0.1708,-0.1709,-0.1709,-0.1763,-0.1807,-0.1807,-0.1808,-0.1795,-0.1795,-0.1795,-0.1794,-0.1792,-0.179,-0.1802,-0.1801,-0.1716,-0.1703,-0.1703,-0.1704,-0.1707,-0.1707,-0.1766,-0.1796,-0.1793,-0.1796,-0.1834,-0.1883,-0.1826,-0.1853,-0.1904,-0.1904,-0.1952,-0.2008,-0.2008,-0.2008,-0.2008,-0.2008,-0.2008,-0.2008,-0.2008,-0.2008,-0.2008,-0.2008,-0.2008,-0.2008,-0.2008,-0.2008,-0.2008,-0.2008,-0.2008,-0.2008,-0.2008,-0.2008,-0.2008,-0.2008,-0.2008,-0.2008,-0.2008,-0.2008,-0.2008,-0.2008,-0.2008,-0.2008,-0.2008,-0.2008,-0.1988,-0.1985,-0.2046,-0.2109,-0.2107,-0.2171,-0.2188,-0.2188,-0.2188,-0.2188,-0.2188,-0.2188,-0.2188,-0.2188,-0.2188,-0.2188,-0.2188,-0.2188,-0.2188,0.1353,0.1501,0.1692,0.195,0.2144,0.2319,0.2541,0.2741,0.2896,0.3016,0.3032,0.2831,0.2147,0.1971,0.1616,0.063,-0.0025,-0.0581,-0.1086,-0.1415,-0.1592,-0.1592,-0.1626,-0.1633,-0.1633,-0.1686,-0.1704,-0.1704,-0.1694,-0.1704,-0.1704,-0.1714,-0.1747,-0.1747,-0.1777,-0.1803,-0.1795,-0.1795,-0.1795,-0.1795,-0.1812,-0.1806,-0.1805,-0.1774,-0.1772,-0.1761,-0.1758,-0.174,-0.1707,-0.1764,-0.1772,-0.1739,-0.1786,-0.1807,-0.183,-0.1801,-0.1825,-0.1849,-0.1887,-0.1908,-0.1951,-0.2001,-0.2008,-0.2008,-0.2008,-0.2008,-0.2008,-0.2008,-0.2008,-0.2008,-0.2008,-0.2008,-0.2008,-0.2008,-0.2008,-0.2008,-0.2008,-0.2008,-0.2008,-0.2008,-0.2008,-0.2008,-0.2008,-0.2008,-0.2008,-0.2008,-0.2008,-0.2008,-0.2008,-0.2008,-0.2008,-0.2008,-0.1992,-0.2016,-0.2077,-0.2076,-0.2106,-0.217,-0.2182,-0.2188,-0.2188,-0.2188,-0.2188,-0.2188,-0.2188,-0.2188,-0.2188,-0.2188,-0.2188,-0.2188,-0.2188,-0.2188,0.1264,0.1393,0.1584,0.1778,0.1944,0.2118,0.2351,0.2561,0.2746,0.2866,0.2758,0.2401,0.1699,0.1329,0.0782,-0.0224,-0.0625,-0.0978,-0.1515,-0.1592,-0.1592,-0.1592,-0.1592,-0.1592,-0.1592,-0.1635,-0.1673,-0.1673,-0.1665,-0.1675,-0.1675,-0.1684,-0.1699,-0.1746,-0.1766,-0.1792,-0.1795,-0.1795,-0.1795,-0.1795,-0.1795,-0.1795,-0.1794,-0.1802,-0.1803,-0.1794,-0.1801,-0.1781,-0.1736,-0.1784,-0.1781,-0.1735,-0.1762,-0.1767,-0.1807,-0.1773,-0.1793,-0.1819,-0.185,-0.1877,-0.1923,-0.1963,-0.2008,-0.2008,-0.2008,-0.2008,-0.2008,-0.2008,-0.2008,-0.2008,-0.2008,-0.2008,-0.2008,-0.2008,-0.2008,-0.2008,-0.2008,-0.2008,-0.2008,-0.2008,-0.2008,-0.2008,-0.2008,-0.2008,-0.2008,-0.2008,-0.2008,-0.2008,-0.2008,-0.2008,-0.2011,-0.199,-0.2007,-0.2035,-0.2108,-0.2097,-0.2122,-0.2186,-0.2188,-0.2188,-0.2188,-0.2188,-0.2188,-0.2188,-0.2188,-0.2188,-0.2188,-0.2188,-0.2188,-0.2188,-0.2188,-0.2188,0.0,0.0,0.0,0.1641,0.1745,0.1899,0.2293,0.2433,0.2533,0.2662,0.2277,0.1638,0.0693,0.0023,-0.0383,-0.0415,-0.1079,-0.1606,-0.1585,-0.159,-0.159,-0.159,-0.1591,-0.1592,-0.1592,-0.1592,-0.1592,-0.1592,-0.1592,-0.1592,-0.1592,-0.167,-0.174,-0.1799,-0.1802,-0.179,-0.1793,-0.1795,-0.1795,-0.1795,-0.1795,-0.1795,-0.1795,-0.1795,-0.1795,-0.1795,-0.1795,-0.1795,-0.1795,-0.1795,-0.1795,-0.1789,-0.1729,-0.175,-0.1795,-0.1711,-0.1752,-0.1811,-0.179,-0.183,-0.1894,-0.1987,-0.2008,-0.2008,-0.2008,-0.2008,-0.2008,-0.2008,-0.2008,-0.2008,-0.2008,-0.2008,-0.2008,-0.2008,-0.2008,-0.2008,-0.2008,-0.2008,-0.2008,-0.2008,-0.2008,-0.2008,-0.2008,-0.2008,-0.2008,-0.2008,-0.2008,-0.2009,-0.2009,-0.201,-0.199,-0.2017,-0.1989,-0.2045,-0.2104,-0.211,-0.2123,-0.2186,-0.2188,-0.2188,-0.2188,-0.2188,-0.2188,-0.2188,-0.2188,-0.2188,-0.2188,-0.2188,-0.2188,-0.2188,-0.2188,-0.2188,0.1298,0.0,0.0,0.0,0.0,0.0,0.1974,0.2128,0.2289,0.2565,0.25,0.2077,0.0987,0.0568,0.0046,-0.1032,-0.1422,-0.1591,-0.1528,-0.157,-0.1609,-0.1609,-0.1604,-0.1592,-0.1592,-0.1592,-0.1592,-0.1592,-0.1592,-0.1592,-0.1592,-0.1625,-0.1647,-0.1738,-0.1733,-0.1758,-0.179,-0.1812,-0.1795,-0.1795,-0.1795,-0.1795,-0.1795,-0.1795,-0.1795,-0.1795,-0.1795,-0.1795,-0.1795,-0.1795,-0.1795,-0.1791,-0.1779,-0.1756,-0.1714,-0.1699,-0.1716,-0.1728,-0.1776,-0.1817,-0.1837,-0.1949,-0.2008,-0.2008,-0.2008,-0.2008,-0.2008,-0.2008,-0.2008,-0.2008,-0.2008,-0.2008,-0.2008,-0.2008,-0.2008,-0.2008,-0.2008,-0.2008,-0.2008,-0.2008,-0.2008,-0.2008,-0.2008,-0.2008,-0.2008,-0.2008,-0.1994,-0.2007,-0.2007,-0.2057,-0.2075,-0.2082,-0.2071,-0.2091,-0.2108,-0.2129,-0.2179,-0.2188,-0.2188,-0.2188,-0.2188,-0.2188,-0.2188,-0.2188,-0.2188,-0.2188,-0.2188,-0.2188,-0.2188,-0.2188,-0.2188,-0.2188,0.1373,0.1444,0.1536,0.1525,0.0,0.0,0.1881,0.1986,0.2094,0.2341,0.2207,0.1839,0.1145,0.0799,0.0244,-0.0889,-0.1099,-0.1212,-0.1497,-0.1585,-0.1592,-0.1554,-0.1579,-0.1598,-0.1598,-0.1609,-0.1592,-0.1592,-0.1592,-0.1592,-0.1592,-0.1592,-0.163,-0.1687,-0.1704,-0.1727,-0.1758,-0.1788,-0.1804,-0.1804,-0.1789,-0.1795,-0.1795,-0.1795,-0.1795,-0.1795,-0.1795,-0.1795,-0.1795,-0.1795,-0.1795,-0.1791,-0.1775,-0.1747,-0.1701,-0.1677,-0.1657,-0.166,-0.178,-0.1793,-0.181,-0.1943,-0.2008,-0.2008,-0.2008,-0.2008,-0.2008,-0.2008,-0.2008,-0.2008,-0.2008,-0.2008,-0.2008,-0.2008,-0.2008,-0.2008,-0.2008,-0.2008,-0.2008,-0.2008,-0.2008,-0.2008,-0.2008,-0.2008,-0.2011,-0.1992,-0.2008,-0.2023,-0.2036,-0.2085,-0.2101,-0.2114,-0.2099,-0.2114,-0.2127,-0.2178,-0.2188,-0.2188,-0.2188,-0.2188,-0.2188,-0.2188,-0.2188,-0.2188,-0.2188,-0.2188,-0.2188,-0.2188,-0.2188,-0.2188,-0.2188,-0.2188,0.1486,0.1538,0.1649,0.1684,0.1628,0.0,0.1892,0.1921,0.1929,0.2062,0.1703,0.1339,0.1237,0.0866,0.0359,-0.0311,-0.0423,-0.0686,-0.1479,-0.1589,-0.1586,-0.151,-0.1555,-0.1596,-0.1596,-0.1596,-0.1612,-0.1612,-0.159,-0.1592,-0.1592,-0.1592,-0.1629,-0.1682,-0.1686,-0.17,-0.1699,-0.1756,-0.1801,-0.1804,-0.1805,-0.1792,-0.1795,-0.1795,-0.1795,-0.1795,-0.1795,-0.1795,-0.1795,-0.1795,-0.1795,-0.1789,-0.1728,-0.1704,-0.1697,-0.1613,-0.1594,-0.1639,-0.1755,-0.1797,-0.1819,-0.1968,-0.2008,-0.2008,-0.2008,-0.2008,-0.2008,-0.2008,-0.2008,-0.2008,-0.2008,-0.2008,-0.2008,-0.2008,-0.2008,-0.2008,-0.2008,-0.2008,-0.2008,-0.2008,-0.2008,-0.2008,-0.2008,-0.2008,-0.1986,-0.2014,-0.2021,-0.2035,-0.2097,-0.2105,-0.2117,-0.2111,-0.2114,-0.2125,-0.2186,-0.2188,-0.2188,-0.2188,-0.2188,-0.2188,-0.2188,-0.2188,-0.2188,-0.2188,-0.2188,-0.2188,-0.2188,-0.2188,-0.2188,-0.2188,-0.2188,-0.2188,0.1771,0.1826,0.1885,0.1738,0.1797,0.0,0.1715,0.1786,0.1917,0.2006,0.1932,0.1742,0.1354,0.1157,0.0848,0.0168,-0.0281,-0.0772,-0.136,-0.1525,-0.1594,-0.1588,-0.1592,-0.1596,-0.1596,-0.1601,-0.1605,-0.1605,-0.1603,-0.1592,-0.1592,-0.1592,-0.1594,-0.1626,-0.1675,-0.1691,-0.1696,-0.1725,-0.1752,-0.1804,-0.181,-0.1799,-0.1795,-0.1795,-0.1795,-0.1795,-0.1795,-0.1795,-0.1795,-0.1795,-0.1795,-0.1789,-0.1728,-0.1704,-0.1697,-0.1613,-0.1633,-0.1693,-0.1762,-0.1811,-0.1819,-0.1945,-0.2008,-0.2008,-0.2008,-0.2008,-0.2008,-0.2008,-0.2008,-0.2008,-0.2008,-0.2008,-0.2008,-0.2008,-0.2008,-0.2008,-0.2008,-0.2008,-0.2008,-0.2008,-0.2008,-0.2008,-0.2008,-0.2008,-0.1986,-0.2014,-0.2039,-0.2098,-0.2096,-0.2155,-0.2172,-0.2179,-0.2179,-0.2182,-0.2188,-0.2188,-0.2188,-0.2188,-0.2188,-0.2188,-0.2188,-0.2188,-0.2188,-0.2188,-0.2188,-0.2188,-0.2188,-0.2188,-0.2188,-0.2188,-0.2188,-0.2188,0.1948,0.1943,0.1995,0.1951,0.1922,0.0,0.0,0.1829,0.1843,0.1977,0.1941,0.1863,0.1722,0.1664,0.1443,0.0802,0.0284,-0.0242,-0.0824,-0.1238,-0.1499,-0.1462,-0.1486,-0.151,-0.1549,-0.154,-0.1555,-0.1595,-0.161,-0.16,-0.1591,-0.1592,-0.1592,-0.1592,-0.1632,-0.1639,-0.1639,-0.1695,-0.1718,-0.1759,-0.179,-0.1813,-0.1801,-0.1788,-0.1795,-0.1795,-0.1795,-0.1795,-0.1795,-0.1795,-0.1814,-0.1795,-0.1722,-0.1695,-0.1704,-0.1633,-0.1636,-0.1701,-0.1764,-0.1786,-0.1826,-0.1947,-0.2008,-0.2008,-0.2008,-0.2008,-0.2008,-0.2008,-0.2008,-0.2008,-0.2008,-0.2008,-0.2008,-0.2008,-0.2008,-0.2008,-0.2008,-0.2008,-0.2008,-0.2008,-0.2008,-0.2008,-0.2008,-0.1988,-0.2007,-0.2037,-0.2067,-0.2097,-0.2161,-0.2179,-0.2188,-0.2188,-0.2188,-0.2188,-0.2188,-0.2188,-0.2188,-0.2188,-0.2188,-0.2188,-0.2188,-0.2188,-0.2188,-0.2188,-0.2188,-0.2188,-0.2188,-0.2188,-0.2188,-0.2188,-0.2188,-0.2188,0.2117,0.2083,0.2121,0.219,0.205,0.1931,0.0,0.0,0.0,0.1914,0.186,0.1827,0.2015,0.2034,0.1872,0.1393,0.0903,0.043,-0.0055,-0.0748,-0.1228,-0.1297,-0.1342,-0.1408,-0.1484,-0.1457,-0.149,-0.1592,-0.1574,-0.1585,-0.1589,-0.1611,-0.1611,-0.1591,-0.1592,-0.1592,-0.1592,-0.1641,-0.1682,-0.1689,-0.1742,-0.1799,-0.1805,-0.1809,-0.1795,-0.1795,-0.1795,-0.1795,-0.1795,-0.1795,-0.1801,-0.1765,-0.1714,-0.1687,-0.1684,-0.1628,-0.1639,-0.1708,-0.1787,-0.1814,-0.1833,-0.1942,-0.2003,-0.2008,-0.2008,-0.2008,-0.2008,-0.2008,-0.2008,-0.2008,-0.2008,-0.2008,-0.2008,-0.2008,-0.2008,-0.2008,-0.2008,-0.2008,-0.2008,-0.2008,-0.2008,-0.2008,-0.2008,-0.2,-0.2029,-0.2091,-0.209,-0.212,-0.2184,-0.2188,-0.2188,-0.2188,-0.2188,-0.2188,-0.2188,-0.2188,-0.2188,-0.2188,-0.2188,-0.2188,-0.2188,-0.2188,-0.2188,-0.2188,-0.2188,-0.2188,-0.2188,-0.2188,-0.2188,-0.2188,-0.2188,-0.2188,0.237,0.239,0.2402,0.2237,0.227,0.2225,0.1839,0.0,0.1918,0.1764,0.0,0.1738,0.1813,0.0,0.0,0.1727,0.1293,0.0919,0.0853,0.0067,-0.0707,-0.1231,-0.1316,-0.1347,-0.1397,-0.1359,-0.1402,-0.1586,-0.1495,-0.1471,-0.1584,-0.1592,-0.1589,-0.1591,-0.1592,-0.1592,-0.1592,-0.162,-0.1636,-0.1688,-0.1721,-0.175,-0.1805,-0.1809,-0.1795,-0.1795,-0.1795,-0.1795,-0.1795,-0.1795,-0.1761,-0.1709,-0.1705,-0.1687,-0.1684,-0.1628,-0.1652,-0.1705,-0.1769,-0.1838,-0.1887,-0.1894,-0.1954,-0.2008,-0.2008,-0.2008,-0.2008,-0.2008,-0.2008,-0.2008,-0.2008,-0.2008,-0.2008,-0.2008,-0.2008,-0.2008,-0.2008,-0.2008,-0.2008,-0.2008,-0.2008,-0.2008,-0.2008,-0.2,-0.2029,-0.2091,-0.209,-0.212,-0.2184,-0.2188,-0.2188,-0.2188,-0.2188,-0.2188,-0.2188,-0.2188,-0.2188,-0.2188,-0.2188,-0.2188,-0.2188,-0.2188,-0.2188,-0.2188,-0.2188,-0.2188,-0.2188,-0.2188,-0.2188,-0.2188,-0.2188,-0.2188,0.2417,0.2115,0.1884,0.2223,0.1982,0.1703,0.1889,0.1906,0.1882,0.1876,0.0,0.0,0.0,0.0,0.0,0.0,0.1401,0.1059,0.1054,0.0243,-0.0455,-0.0741,-0.1011,-0.1223,-0.1327,-0.1313,-0.1331,-0.1414,-0.1373,-0.1386,-0.1483,-0.1549,-0.1602,-0.159,-0.1608,-0.1592,-0.1592,-0.1592,-0.1623,-0.1637,-0.1692,-0.1722,-0.1751,-0.1782,-0.1806,-0.1795,-0.1795,-0.1795,-0.1793,-0.1803,-0.177,-0.1703,-0.1713,-0.1688,-0.1635,-0.1622,-0.1654,-0.1708,-0.1766,-0.1837,-0.1894,-0.1942,-0.1966,-0.2008,-0.2008,-0.2008,-0.2008,-0.2008,-0.2008,-0.2008,-0.2008,-0.2008,-0.2008,-0.2008,-0.2008,-0.2008,-0.2008,-0.2008,-0.2008,-0.2008,-0.2008,-0.2012,-0.1998,-0.2025,-0.2081,-0.2094,-0.2138,-0.2174,-0.2186,-0.2188,-0.2188,-0.2188,-0.2188,-0.2188,-0.2188,-0.2188,-0.2188,-0.2188,-0.2188,-0.2188,-0.2188,-0.2188,-0.2188,-0.2188,-0.2188,-0.2188,-0.2188,-0.2188,-0.2188,-0.2188,-0.2188,-0.2188,0.2175,0.1811,0.1563,0.221,0.1903,0.1539,0.1929,0.1943,0.1899,0.1966,0.1896,0.0,0.0,0.0,0.186,0.1913,0.0,0.1339,0.1298,0.0583,-0.0059,-0.0366,-0.0806,-0.1138,-0.1232,-0.1226,-0.1239,-0.1299,-0.1272,-0.1304,-0.1419,-0.1502,-0.1574,-0.1607,-0.1605,-0.1592,-0.1592,-0.1592,-0.1592,-0.1592,-0.1673,-0.1703,-0.1705,-0.1763,-0.1794,-0.1795,-0.1795,-0.1795,-0.1793,-0.179,-0.1759,-0.1701,-0.17,-0.1669,-0.1592,-0.1592,-0.1654,-0.1708,-0.1766,-0.1844,-0.1907,-0.199,-0.2008,-0.2008,-0.2008,-0.2008,-0.2008,-0.2008,-0.2008,-0.2008,-0.2008,-0.2008,-0.2008,-0.2008,-0.2008,-0.2008,-0.2008,-0.2008,-0.2008,-0.2008,-0.2008,-0.1986,-0.2014,-0.2044,-0.2099,-0.2107,-0.2154,-0.2188,-0.2188,-0.2188,-0.2188,-0.2188,-0.2188,-0.2188,-0.2188,-0.2188,-0.2188,-0.2188,-0.2188,-0.2188,-0.2188,-0.2188,-0.2188,-0.2188,-0.2188,-0.2188,-0.2188,-0.2188,-0.2188,-0.2188,-0.2188,-0.2188,0.1536,0.1709,0.1792,0.2203,0.2279,0.2185,0.1886,0.195,0.2053,0.1922,0.2051,0.2158,0.2113,0.2153,0.2135,0.2019,0.1984,0.0,0.0,0.131,0.0623,-0.0295,-0.0818,-0.1107,-0.1105,-0.1042,-0.1086,-0.1288,-0.1187,-0.1218,-0.1488,-0.1431,-0.147,-0.1586,-0.1591,-0.1592,-0.1592,-0.1592,-0.1592,-0.1592,-0.1673,-0.1703,-0.1705,-0.1763,-0.1794,-0.1795,-0.1795,-0.1795,-0.1793,-0.179,-0.1759,-0.1701,-0.17,-0.1669,-0.1592,-0.1592,-0.1654,-0.1708,-0.1766,-0.1857,-0.1905,-0.1967,-0.2008,-0.2008,-0.2008,-0.2008,-0.2008,-0.2008,-0.2008,-0.2008,-0.2008,-0.2008,-0.2008,-0.2008,-0.2008,-0.2008,-0.2008,-0.2008,-0.2008,-0.2008,-0.2008,-0.1986,-0.2014,-0.2044,-0.2107,-0.2104,-0.2168,-0.2188,-0.2188,-0.2188,-0.2188,-0.2188,-0.2188,-0.2188,-0.2188,-0.2188,-0.2188,-0.2188,-0.2188,-0.2188,-0.2188,-0.2188,-0.2188,-0.2188,-0.2188,-0.2188,-0.2188,-0.2188,-0.2188,-0.2188,-0.2188,-0.2188,0.0835,0.0589,0.0489,0.1517,0.1298,0.1051,0.1814,0.2051,0.206,0.1921,0.2059,0.2173,0.2118,0.2163,0.2164,0.2023,0.2002,0.1918,0.0,0.1015,0.0238,-0.0573,-0.0885,-0.1014,-0.0973,-0.099,-0.1022,-0.1088,-0.1107,-0.1164,-0.1296,-0.1365,-0.1441,-0.1525,-0.1566,-0.1596,-0.1591,-0.1592,-0.1592,-0.1592,-0.1627,-0.1647,-0.1704,-0.1733,-0.1763,-0.1794,-0.1787,-0.1795,-0.1791,-0.174,-0.1714,-0.1699,-0.1651,-0.1626,-0.1594,-0.1639,-0.1671,-0.1717,-0.1837,-0.188,-0.1906,-0.1967,-0.2008,-0.2008,-0.2008,-0.2008,-0.2008,-0.2008,-0.2008,-0.2008,-0.2008,-0.2008,-0.2008,-0.2008,-0.2008,-0.2008,-0.2008,-0.2008,-0.2008,-0.2008,-0.1992,-0.2014,-0.2044,-0.2074,-0.2097,-0.2108,-0.2168,-0.2188,-0.2188,-0.2188,-0.2188,-0.2188,-0.2188,-0.2188,-0.2188,-0.2188,-0.2188,-0.2188,-0.2188,-0.2188,-0.2188,-0.2188,-0.2188,-0.2188,-0.2188,-0.2188,-0.2188,-0.2188,-0.2188,-0.2188,-0.2188,-0.2188,0.0093,-0.014,-0.0207,0.0843,0.0659,0.0464,0.1472,0.1767,0.1789,0.1672,0.1998,0.2139,0.1591,0.1902,0.2117,0.1774,0.1872,0.1859,0.0,0.0811,0.0124,-0.0541,-0.083,-0.0951,-0.0899,-0.0937,-0.0963,-0.0969,-0.1004,-0.1086,-0.1188,-0.1303,-0.14,-0.1495,-0.1569,-0.1611,-0.1591,-0.1592,-0.1592,-0.1592,-0.1592,-0.1633,-0.1689,-0.1691,-0.1748,-0.1806,-0.181,-0.1789,-0.1803,-0.1725,-0.1698,-0.1684,-0.1636,-0.1624,-0.1635,-0.1681,-0.1727,-0.1738,-0.1855,-0.1913,-0.195,-0.2001,-0.2008,-0.2008,-0.2008,-0.2008,-0.2008,-0.2008,-0.2008,-0.2008,-0.2008,-0.2008,-0.2008,-0.2008,-0.2008,-0.2008,-0.2008,-0.2008,-0.2008,-0.2008,-0.1999,-0.2028,-0.2091,-0.2089,-0.2113,-0.2124,-0.2176,-0.2188,-0.2188,-0.2188,-0.2188,-0.2188,-0.2188,-0.2188,-0.2188,-0.2188,-0.2188,-0.2188,-0.2188,-0.2188,-0.2188,-0.2188,-0.2188,-0.2188,-0.2188,-0.2188,-0.2188,-0.2188,-0.2188,-0.2188,-0.2188,-0.2188]},{"header":{"parameterUnit":"m.s-1","parameterCategory":1,"la1":30.6,"la2":29.2853,"lo1":-89.7004,"lo2":-87.6739,"dy":0.0162,"dx":0.0183,"nx":112,"ny":82,"refTime":"2024-09-18T12:00:00:Z","depth":0,"parameterNumber":3,"parameterNumberName":"V-component_of_WINDS"},"data":[0.0,0.0,0.0,0.0,0.0,0.0,0.0,0.0,0.0,0.0,0.0,0.0,0.0,0.0,0.0,0.0,0.0,0.0,0.0,0.0,0.0,0.0,0.0,0.0,0.0,0.0,0.0,0.0,0.0,0.0,0.0,0.0,0.0,0.0,0.0,0.0,0.0,0.0,0.0,0.0,0.0,0.0,0.0,0.0,0.0,0.0,0.0,0.0,0.0,0.0,0.0,0.0,0.0,0.0,0.0,0.0,0.0,0.0,0.0,0.0,0.0,0.0,0.0,0.0,0.0,0.0,0.0,0.0,0.0,0.0,0.0,0.0,0.0,0.0,0.0,0.0,0.0,0.0,0.0,0.0,0.0,0.0,0.0,0.0,0.0,0.0,0.0,0.0,0.0,0.0,2.4367,2.6241,2.9016,3.0503,2.9886,2.9861,2.8474,2.5119,0.0,0.0,0.0,0.0,0.0,0.0,0.0,0.0,0.0,0.0,0.0,0.0,0.0,0.0,0.0,0.0,0.0,0.0,0.0,0.0,0.0,0.0,0.0,0.0,0.0,0.0,0.0,0.0,0.0,0.0,0.0,0.0,0.0,0.0,0.0,0.0,0.0,0.0,0.0,0.0,0.0,0.0,0.0,0.0,0.0,0.0,0.0,0.0,0.0,0.0,0.0,0.0,0.0,0.0,0.0,0.0,0.0,0.0,0.0,0.0,0.0,0.0,0.0,0.0,0.0,0.0,0.0,0.0,0.0,0.0,0.0,0.0,0.0,0.0,0.0,0.0,0.0,0.0,0.0,0.0,0.0,0.0,0.0,0.0,0.0,0.0,0.0,0.0,0.0,0.0,0.0,0.0,0.0,0.0,0.0,0.0,0.0,0.0,0.0,0.0,0.0,0.0,0.0,0.0,2.4331,2.9251,3.1024,3.1466,3.047,3.0585,2.8954,2.4836,0.0,0.0,0.0,0.0,0.0,0.0,0.0,0.0,0.0,0.0,0.0,0.0,0.0,0.0,0.0,0.0,0.0,0.0,0.0,0.0,0.0,0.0,0.0,0.0,0.0,0.0,0.0,0.0,0.0,0.0,0.0,0.0,0.0,0.0,0.0,0.0,0.0,0.0,0.0,0.0,0.0,0.0,0.0,0.0,0.0,0.0,0.0,0.0,0.0,0.0,0.0,0.0,0.0,0.0,0.0,0.0,0.0,0.0,0.0,0.0,0.0,0.0,0.0,0.0,0.0,0.0,0.0,0.0,0.0,0.0,0.0,0.0,0.0,0.0,0.0,0.0,0.0,0.0,0.0,0.0,0.0,0.0,0.0,0.0,0.0,0.0,0.0,0.0,0.0,0.0,0.0,0.0,0.0,0.0,0.0,0.0,0.0,0.0,0.0,0.0,0.0,0.0,0.0,2.4187,2.6262,3.0086,3.1731,3.2022,3.0758,3.0782,2.9102,2.504,2.2643,0.0,0.0,0.0,0.0,0.0,0.0,0.0,0.0,0.0,0.0,0.0,0.0,0.0,0.0,0.0,0.0,0.0,0.0,0.0,0.0,0.0,0.0,0.0,0.0,0.0,0.0,0.0,0.0,0.0,0.0,0.0,0.0,0.0,0.0,0.0,0.0,0.0,0.0,0.0,0.0,0.0,0.0,0.0,0.0,0.0,0.0,0.0,0.0,0.0,0.0,0.0,0.0,0.0,0.0,0.0,0.0,0.0,0.0,0.0,0.0,0.0,0.0,0.0,0.0,0.0,0.0,0.0,0.0,0.0,0.0,0.0,0.0,0.0,0.0,0.0,0.0,0.0,0.0,0.0,0.0,0.0,0.0,0.0,0.0,0.0,0.0,0.0,0.0,0.0,0.0,0.0,0.0,0.0,0.0,0.0,0.0,0.0,0.0,0.0,0.0,0.0,0.0,2.6955,2.8656,3.041,3.2074,3.2477,3.102,3.0525,2.8693,2.4906,2.2266,0.0,0.0,0.0,0.0,0.0,0.0,0.0,0.0,0.0,0.0,0.0,0.0,0.0,0.0,0.0,0.0,0.0,0.0,0.0,0.0,0.0,0.0,0.0,0.0,0.0,0.0,0.0,0.0,0.0,0.0,0.0,0.0,0.0,0.0,0.0,0.0,0.0,0.0,0.0,0.0,0.0,0.0,0.0,0.0,0.0,0.0,0.0,0.0,0.0,0.0,0.0,0.0,0.0,0.0,0.0,0.0,0.0,0.0,0.0,0.0,0.0,0.0,0.0,0.0,0.0,0.0,0.0,0.0,0.0,0.0,0.0,0.0,0.0,0.0,0.0,0.0,0.0,0.0,0.0,0.0,0.0,0.0,0.0,0.0,0.0,0.0,0.0,0.0,0.0,0.0,0.0,0.0,0.0,0.0,0.0,0.0,0.0,0.0,0.0,0.0,0.0,0.0,2.7905,3.0904,3.0866,3.2486,3.2907,3.1311,2.9731,2.7368,2.3921,2.0849,0.0,0.0,0.0,0.0,0.0,0.0,0.0,0.0,0.0,0.0,0.0,0.0,0.0,0.0,0.0,0.0,0.0,0.0,0.0,0.0,0.0,0.0,0.0,0.0,0.0,0.0,0.0,0.0,0.0,0.0,0.0,0.0,0.0,0.0,0.0,0.0,0.0,0.0,0.0,0.0,0.0,0.0,0.0,0.0,0.0,0.0,0.0,0.0,0.0,0.0,0.0,0.0,0.0,0.0,0.0,0.0,0.0,0.0,0.0,0.0,0.0,0.0,0.0,0.0,0.0,0.0,0.0,0.0,0.0,0.0,0.0,0.0,0.0,0.0,0.0,0.0,0.0,0.0,0.0,0.0,0.0,0.0,0.0,0.0,0.0,0.0,0.0,0.0,0.0,0.0,0.0,0.0,0.0,0.0,0.0,0.0,0.0,0.0,0.0,0.0,0.0,0.0,2.7257,3.0061,3.0984,3.2591,3.2942,3.1338,3.0614,2.8391,2.3997,0.0,0.0,0.0,0.0,0.0,0.0,0.0,0.0,0.0,0.0,0.0,0.0,0.0,0.0,0.0,0.0,0.0,0.0,0.0,0.0,0.0,0.0,0.0,0.0,0.0,0.0,0.0,0.0,0.0,0.0,0.0,0.0,0.0,0.0,0.0,0.0,0.0,0.0,0.0,0.0,0.0,0.0,0.0,0.0,0.0,0.0,0.0,0.0,0.0,0.0,0.0,0.0,0.0,0.0,0.0,0.0,0.0,0.0,0.0,0.0,0.0,0.0,0.0,0.0,0.0,0.0,0.0,0.0,0.0,0.0,0.0,0.0,0.0,0.0,0.0,0.0,0.0,0.0,0.0,0.0,0.0,0.0,0.0,0.0,0.0,0.0,0.0,0.0,0.0,0.0,0.0,0.0,0.0,0.0,0.0,0.0,0.0,0.0,0.0,0.0,0.0,0.0,2.3649,2.7308,3.0088,3.1174,3.2788,3.314,3.1537,3.0931,2.8727,2.4239,0.0,0.0,0.0,0.0,0.0,0.0,0.0,0.0,0.0,0.0,0.0,0.0,0.0,0.0,0.0,0.0,0.0,0.0,0.0,0.0,0.0,0.0,0.0,0.0,0.0,0.0,0.0,0.0,0.0,0.0,0.0,0.0,0.0,0.0,0.0,0.0,0.0,0.0,0.0,0.0,0.0,0.0,0.0,0.0,0.0,0.0,0.0,0.0,0.0,0.0,0.0,0.0,0.0,0.0,0.0,0.0,0.0,0.0,0.0,0.0,0.0,0.0,0.0,0.0,0.0,0.0,0.0,0.0,0.0,0.0,0.0,0.0,0.0,0.0,0.0,0.0,0.0,0.0,0.0,0.0,0.0,0.0,0.0,0.0,0.0,0.0,0.0,0.0,0.0,0.0,0.0,0.0,0.0,0.0,0.0,0.0,0.0,0.0,0.0,0.0,0.0,0.0,2.3805,2.8404,3.1507,3.1519,3.3111,3.3534,3.1937,3.0326,2.7953,0.0,0.0,0.0,0.0,0.0,0.0,0.0,0.0,0.0,0.0,0.0,0.0,0.0,0.0,0.0,0.0,0.0,0.0,0.0,0.0,0.0,0.0,0.0,0.0,0.0,0.0,0.0,0.0,0.0,0.0,0.0,0.0,0.0,0.0,0.0,0.0,0.0,0.0,0.0,0.0,0.0,0.0,0.0,0.0,0.0,0.0,0.0,0.0,0.0,0.0,0.0,0.0,0.0,0.0,0.0,0.0,0.0,0.0,0.0,0.0,0.0,0.0,0.0,0.0,0.0,0.0,0.0,0.0,0.0,0.0,0.0,0.0,0.0,0.0,0.0,0.0,0.0,0.0,0.0,0.0,0.0,0.0,0.0,0.0,0.0,0.0,0.0,0.0,0.0,0.0,0.0,0.0,0.0,0.0,0.0,0.0,0.0,0.0,0.0,0.0,0.0,0.0,0.0,2.4917,2.9,3.1936,3.2493,3.304,3.2921,3.1886,3.0846,2.8547,2.4547,0.0,0.0,0.0,0.0,0.0,0.0,0.0,0.0,0.0,0.0,0.0,0.0,0.0,0.0,0.0,0.0,0.0,0.0,0.0,0.0,0.0,0.0,0.0,0.0,0.0,0.0,0.0,0.0,0.0,0.0,0.0,0.0,0.0,0.0,0.0,0.0,0.0,0.0,0.0,0.0,0.0,0.0,0.0,0.0,0.0,0.0,0.0,0.0,0.0,0.0,0.0,0.0,0.0,0.0,0.0,0.0,0.0,0.0,0.0,0.0,0.0,0.0,0.0,0.0,0.0,0.0,0.0,0.0,0.0,0.0,0.0,0.0,0.0,0.0,0.0,0.0,0.0,0.0,0.0,0.0,0.0,0.0,0.0,0.0,0.0,0.0,0.0,0.0,0.0,0.0,0.0,0.0,0.0,0.0,0.0,0.0,0.0,0.0,0.0,0.0,0.0,0.0,2.5806,2.9471,3.2109,3.2903,3.3293,3.3014,3.1905,3.1366,2.9291,2.5125,0.0,0.0,0.0,0.0,0.0,0.0,0.0,0.0,0.0,0.0,0.0,0.0,0.0,0.0,0.0,0.0,0.0,0.0,0.0,0.0,0.0,0.0,0.0,0.0,0.0,0.0,0.0,0.0,0.0,0.0,0.0,0.0,0.0,0.0,0.0,0.0,0.0,0.0,0.0,0.0,0.0,0.0,0.0,0.0,0.0,0.0,0.0,0.0,0.0,0.0,0.0,0.0,0.0,0.0,0.0,0.0,0.0,0.0,0.0,0.0,0.0,0.0,0.0,0.0,0.0,0.0,0.0,0.0,0.0,0.0,0.0,0.0,0.0,0.0,0.0,0.0,0.0,0.0,0.0,0.0,0.0,0.0,0.0,0.0,0.0,0.0,0.0,0.0,0.0,0.0,0.0,0.0,0.0,0.0,0.0,0.0,0.0,0.0,0.0,0.0,0.0,0.0,2.6572,2.9805,3.2147,3.3014,3.3702,3.3479,3.1924,3.1738,3.001,2.6056,0.0,0.0,0.0,0.0,0.0,0.0,0.0,0.0,0.0,0.0,0.0,0.0,0.0,0.0,0.0,0.0,0.0,0.0,0.0,0.0,0.0,0.0,0.0,0.0,0.0,0.0,0.0,0.0,0.0,0.0,0.0,0.0,0.0,0.0,0.0,0.0,0.0,0.0,0.0,0.0,0.0,0.0,0.0,0.0,0.0,0.0,0.0,0.0,0.0,0.0,0.0,0.0,0.0,0.0,0.0,0.0,0.0,0.0,0.0,0.0,2.2206,2.0096,0.0,0.0,0.0,0.0,0.0,0.0,0.0,0.0,0.0,0.0,0.0,0.0,0.0,0.0,0.0,0.0,0.0,0.0,0.0,0.0,0.0,0.0,0.0,0.0,0.0,0.0,0.0,0.0,0.0,0.0,0.0,0.0,0.0,0.0,0.0,0.0,0.0,0.0,0.0,0.0,2.7334,3.0158,3.2351,3.3794,3.3534,3.2865,3.1881,3.1218,2.9657,2.6818,2.5123,0.0,0.0,0.0,0.0,0.0,0.0,0.0,0.0,0.0,0.0,0.0,0.0,0.0,0.0,0.0,0.0,0.0,0.0,0.0,0.0,0.0,0.0,0.0,0.0,0.0,0.0,0.0,0.0,0.0,0.0,0.0,0.0,0.0,0.0,0.0,0.0,0.0,0.0,0.0,0.0,0.0,0.0,0.0,0.0,0.0,0.0,0.0,0.0,0.0,0.0,0.0,0.0,0.0,0.0,0.0,0.0,0.0,0.0,0.0,2.6184,2.4034,0.0,0.0,0.0,0.0,0.0,0.0,0.0,0.0,0.0,0.0,0.0,0.0,0.0,0.0,0.0,0.0,0.0,0.0,0.0,0.0,0.0,0.0,0.0,0.0,0.0,0.0,0.0,0.0,0.0,0.0,0.0,0.0,0.0,0.0,0.0,0.0,0.0,0.0,0.0,0.0,2.8254,3.0918,3.2916,3.4079,3.3832,3.3256,3.2457,3.1645,3.0307,2.8231,2.6558,0.0,0.0,0.0,0.0,0.0,0.0,0.0,0.0,0.0,0.0,0.0,0.0,0.0,0.0,0.0,0.0,0.0,0.0,0.0,0.0,0.0,0.0,0.0,0.0,0.0,0.0,0.0,0.0,0.0,0.0,0.0,0.0,0.0,0.0,0.0,0.0,0.0,0.0,0.0,0.0,0.0,0.0,0.0,0.0,0.0,0.0,0.0,0.0,0.0,0.0,0.0,0.0,0.0,3.0717,3.1687,3.29,3.2339,3.2892,3.4143,3.0987,2.9184,2.8394,2.6935,0.0,0.0,0.0,0.0,0.0,0.0,0.0,0.0,0.0,0.0,0.0,0.0,0.0,0.0,0.0,0.0,0.0,0.0,0.0,0.0,0.0,0.0,3.1027,3.1487,3.2199,3.1627,2.7456,0.0,0.0,0.0,0.0,0.0,0.0,0.0,0.0,0.0,0.0,0.0,2.925,3.1742,3.3495,3.4206,3.4269,3.3928,3.3105,3.2441,3.1407,2.9903,2.8268,2.6744,0.0,0.0,0.0,0.0,0.0,0.0,0.0,0.0,0.0,0.0,0.0,0.0,0.0,0.0,0.0,0.0,0.0,0.0,0.0,0.0,0.0,0.0,0.0,0.0,0.0,0.0,0.0,0.0,0.0,0.0,0.0,0.0,1.8275,2.0235,0.0,0.0,0.0,0.0,0.0,0.0,0.0,0.0,0.0,0.0,0.0,0.0,0.0,2.9156,3.0675,3.331,3.4673,3.4755,3.7097,3.8338,3.8533,3.8444,3.8531,3.8725,3.822,0.0,3.1347,3.1288,0.0,0.0,0.0,0.0,0.0,0.0,0.0,0.0,0.0,0.0,0.0,0.0,0.0,0.0,0.0,0.0,0.0,0.0,0.0,0.0,0.0,0.0,3.5182,3.4524,3.4472,3.4382,3.371,3.006,2.6398,2.4768,2.3767,2.265,0.0,0.0,0.0,0.0,0.0,0.0,3.0283,3.2263,3.369,3.4451,3.4545,3.4169,3.3246,3.3086,3.2575,3.1558,2.9978,2.8974,2.8751,2.5908,0.0,0.0,0.0,0.0,0.0,0.0,0.0,0.0,0.0,0.0,0.0,0.0,0.0,0.0,0.0,0.0,0.0,0.0,0.0,0.0,0.0,0.0,0.0,0.0,0.0,0.0,0.0,0.0,0.0,1.8403,2.0772,2.1674,2.2311,2.2174,0.0,0.0,0.0,0.0,0.0,0.0,0.0,0.0,0.0,3.208,3.3086,3.4179,3.5457,3.7527,3.8558,3.8539,4.0258,4.106,4.1066,4.1139,4.1233,4.1341,4.1341,3.981,3.7191,3.5124,3.286,3.0655,0.0,0.0,0.0,0.0,3.0156,3.0344,3.1713,3.2185,3.2114,3.1656,0.0,0.0,0.0,0.0,0.0,0.0,0.0,3.2677,3.3206,3.5161,3.7024,3.721,3.7251,3.7251,3.7251,3.4744,3.1804,2.9463,2.8703,2.7464,2.4377,2.4267,0.0,0.0,0.0,3.0022,3.1406,3.3496,3.4781,3.4618,3.4607,3.4435,3.4017,3.3567,3.3106,3.2612,3.1494,3.0623,3.0108,2.8268,2.6423,0.0,0.0,0.0,0.0,0.0,0.0,0.0,0.0,0.0,0.0,0.0,0.0,0.0,0.0,0.0,0.0,0.0,0.0,0.0,0.0,0.0,0.0,0.0,0.0,0.0,0.0,0.0,0.0,2.1018,2.3235,2.3334,2.499,2.5215,0.0,0.0,0.0,0.0,0.0,0.0,3.087,3.2544,3.4261,3.6077,3.7341,3.8454,3.9421,4.0834,4.1544,4.1544,4.246,4.29,4.2881,4.2991,4.3141,4.3333,4.3333,4.2919,4.1992,3.8702,3.6419,3.4935,3.4249,3.3842,3.3767,3.4567,3.4855,3.5083,3.6596,3.7093,3.7015,3.6627,3.5774,3.4661,3.3393,0.0,0.0,0.0,0.0,3.5629,3.6534,3.7855,3.9138,3.9893,4.0072,4.0015,3.978,3.8753,3.699,3.3977,3.3191,3.1957,2.8605,2.8553,0.0,2.8125,3.0918,3.3129,3.3232,3.5126,3.6172,3.544,3.5179,3.5035,3.4961,3.4228,3.3692,3.3574,3.2807,3.204,3.1358,3.0301,2.8783,2.6716,0.0,0.0,0.0,0.0,0.0,0.0,0.0,0.0,0.0,0.0,0.0,0.0,0.0,0.0,0.0,0.0,0.0,0.0,0.0,0.0,0.0,0.0,0.0,0.0,0.0,0.0,0.0,0.0,0.0,2.59,2.8005,0.0,0.0,0.0,0.0,2.9025,3.1981,3.4294,3.5407,3.6998,3.8789,4.0787,4.0944,4.1366,4.2181,4.3096,4.3551,4.357,4.4371,4.475,4.475,4.4775,4.4889,4.5064,4.5064,4.4668,4.3842,4.2049,4.0332,3.8818,3.8776,3.8281,3.7713,3.8526,3.881,3.8944,3.9861,4.0107,4.0105,4.0825,3.9887,3.845,3.8499,3.7396,0.0,0.0,3.8765,4.0249,4.1055,4.1952,4.2657,4.27,4.2705,4.247,4.1641,4.1411,4.0356,3.7037,3.5609,3.4655,3.368,0.0,3.355,3.3512,3.45,3.5514,3.6286,3.716,3.764,3.7469,3.6769,3.6202,3.5946,3.5185,3.4667,3.4532,3.3762,3.3317,3.3255,3.1625,3.0283,2.933,2.6101,0.0,0.0,0.0,0.0,0.0,0.0,0.0,0.0,0.0,0.0,0.0,0.0,0.0,0.0,0.0,0.0,0.0,0.0,0.0,0.0,0.0,0.0,0.0,0.0,0.0,0.0,0.0,0.0,2.842,3.0744,0.0,3.0636,3.1944,3.3285,3.4306,3.6437,3.8134,3.9227,4.0839,4.2066,4.2786,4.3322,4.372,4.4017,4.4326,4.4478,4.4478,4.4762,4.4895,4.4895,4.4895,4.5066,4.5321,4.5321,4.5274,4.5144,4.455,4.3215,4.1543,4.1543,4.1375,4.1144,4.1432,4.1543,4.1581,4.1908,4.1983,4.1976,4.2278,4.1939,4.1409,4.1464,4.1066,4.0662,4.1016,4.1547,4.2098,4.247,4.2798,4.3045,4.3135,4.315,4.3073,4.2764,4.2687,4.2343,4.1138,3.9158,3.7078,3.5182,3.5714,3.6055,3.5013,3.6535,3.7686,3.7417,3.81,3.8406,3.7782,3.7472,3.706,3.6436,3.6039,3.5538,3.4836,3.4046,3.3275,3.2589,3.1506,3.0518,2.9645,2.7893,2.5903,0.0,0.0,0.0,0.0,0.0,0.0,0.0,0.0,0.0,0.0,0.0,0.0,0.0,0.0,0.0,0.0,0.0,0.0,0.0,0.0,0.0,0.0,0.0,0.0,0.0,2.8742,3.1571,3.1295,3.384,3.5247,3.4315,3.5595,3.7057,3.8454,4.0064,4.13,4.2003,4.336,4.4099,4.4099,4.463,4.4895,4.4895,4.4895,4.5047,4.5331,4.5385,4.5567,4.5858,4.589,4.5908,4.5907,4.5907,4.5883,4.5822,4.5822,4.5083,4.3944,4.3904,4.388,4.388,4.388,4.388,4.3871,4.3825,4.3807,4.3799,4.3769,4.3731,4.3741,4.3794,4.3807,4.3816,4.3867,4.388,4.39,4.3998,4.4017,4.4036,4.4123,4.4157,4.4095,4.3824,4.3763,4.3695,4.3382,4.1777,3.9838,3.7889,3.8439,3.8685,3.7332,3.8584,3.9469,3.8899,3.9319,3.9434,3.8777,3.847,3.7951,3.7076,3.6418,3.5743,3.5083,3.3995,3.3208,3.2764,3.1709,3.0867,3.028,2.8841,2.7126,2.5163,0.0,0.0,0.0,0.0,0.0,0.0,0.0,0.0,0.0,0.0,0.0,0.0,0.0,0.0,0.0,0.0,0.0,0.0,0.0,0.0,0.0,0.0,0.0,2.7133,3.2002,3.5374,3.4587,3.7331,3.8796,3.7527,3.9518,4.1016,4.1296,4.2835,4.3745,4.3745,4.4503,4.4958,4.4958,4.4977,4.4983,4.4989,4.4989,4.5412,4.6259,4.638,4.6909,4.7716,4.7851,4.7564,4.6943,4.6943,4.6576,4.5972,4.5972,4.6027,4.6066,4.5887,4.581,4.581,4.581,4.581,4.5796,4.5661,4.5617,4.5596,4.5456,4.5429,4.5438,4.5575,4.5617,4.5641,4.5763,4.581,4.581,4.581,4.581,4.581,4.581,4.5864,4.5698,4.4919,4.4733,4.4485,4.3654,4.3323,4.2907,4.2002,4.1844,4.1555,4.0707,4.0729,0.0,4.0832,4.0813,4.0736,4.0526,3.9809,3.8937,3.7939,3.6332,3.5354,3.5315,3.3733,3.315,3.3936,3.2327,3.1411,3.1408,2.8909,2.7217,2.6385,0.0,0.0,0.0,0.0,0.0,0.0,0.0,0.0,0.0,0.0,0.0,0.0,0.0,0.0,0.0,0.0,0.0,0.0,0.0,0.0,0.0,3.1824,3.4447,3.3385,3.5633,3.7754,3.8696,4.0328,4.1462,4.1674,4.251,4.3327,4.3986,4.4448,4.4715,4.4715,4.5513,4.5988,4.5988,4.6546,4.6925,4.7064,4.7089,4.723,4.7582,4.7604,4.7757,4.7988,4.8028,4.802,4.7981,4.7981,4.7937,4.7867,4.7867,4.7875,4.775,4.6452,4.5953,4.5953,4.5953,4.5953,4.595,4.5904,4.5895,4.5889,4.5841,4.5832,4.5838,4.5886,4.5895,4.5898,4.5925,4.5953,4.5953,4.5953,4.5953,4.5953,4.5953,4.5964,4.5919,4.5684,4.5639,4.5567,4.534,4.5248,4.4704,4.3165,4.2893,4.2816,4.2565,4.2047,4.1661,4.1661,4.1161,4.0784,4.0717,4.0523,4.0027,3.911,3.794,3.6736,3.552,3.3833,3.2948,3.3126,3.2167,3.1568,3.1473,3.0727,2.9627,0.0,0.0,0.0,0.0,0.0,0.0,0.0,0.0,0.0,0.0,0.0,0.0,0.0,0.0,0.0,0.0,0.0,0.0,0.0,0.0,0.0,0.0,3.5697,3.8273,3.9075,3.9955,4.0873,4.1819,4.2833,4.3624,4.4074,4.4287,4.4747,4.5578,4.5635,4.5793,4.6142,4.6637,4.6931,4.7038,4.7483,4.7811,4.7971,4.7975,4.8203,4.8642,4.8698,4.891,4.9278,4.9327,4.9232,4.9036,4.9036,4.8887,4.8645,4.8645,4.8657,4.8574,0.0,0.0,0.0,0.0,4.6857,4.6546,4.6546,4.6313,4.5999,4.5999,4.5999,4.5999,4.5999,4.5999,4.5999,4.5999,4.5999,4.5999,4.5999,4.5999,4.5999,4.5999,4.6017,4.6035,4.6035,4.6051,4.608,4.6059,4.6035,0.0,4.4612,4.4126,4.3777,4.3431,4.2947,4.2501,4.2133,4.1648,4.1204,4.0836,4.0793,4.0448,3.9578,3.8636,0.0,0.0,0.0,3.3356,3.2932,3.2504,0.0,0.0,0.0,0.0,0.0,3.309,0.0,0.0,3.1791,3.199,0.0,0.0,0.0,0.0,0.0,0.0,0.0,0.0,0.0,0.0,0.0,0.0,0.0,0.0,0.0,0.0,3.8809,4.063,4.3706,4.4109,4.4067,4.4051,4.4737,4.5186,4.5131,4.5201,4.5582,4.6344,4.6496,4.6858,4.7574,4.7737,0.0,0.0,0.0,4.8302,4.8435,4.8435,4.8829,4.9614,4.9738,5.0205,5.0958,5.1068,5.0737,5.0062,5.0062,4.9644,4.8987,4.8987,4.9028,4.9054,4.8742,4.8629,4.8629,4.8629,4.8121,4.748,4.748,0.0,0.0,4.6311,4.6311,4.6311,4.6311,4.6311,4.6311,4.6311,4.6311,4.6311,4.6311,4.6233,4.6175,4.6175,4.6131,4.6104,4.6104,4.6154,4.6189,4.6113,4.6104,4.6091,4.6027,4.5366,4.4601,4.3887,4.3693,4.336,4.258,4.2348,4.1928,4.105,4.0967,0.0,3.9734,3.886,3.7987,3.7119,3.5565,3.4338,3.3552,3.3629,3.3999,3.4662,3.4877,3.5668,3.7055,3.8118,3.903,3.9691,3.5669,3.5053,0.0,0.0,0.0,0.0,0.0,0.0,0.0,0.0,0.0,0.0,0.0,0.0,0.0,0.0,0.0,3.9961,4.19,4.3496,4.4857,4.5043,4.5032,4.5022,4.5185,4.5281,4.5251,4.5857,4.6296,4.6462,4.713,4.7607,4.7741,4.8538,4.898,4.9019,4.9819,5.0322,5.0526,5.0529,5.0658,5.0923,5.0957,0.0,5.1215,5.1248,5.1176,5.1023,5.1023,5.0949,5.0801,5.0801,5.0805,5.0675,4.9298,4.8766,4.8766,4.8766,4.8649,4.8512,4.8512,4.8396,4.8259,4.8259,4.8259,4.8259,4.8259,4.8259,0.0,4.8259,4.8259,4.8259,4.8259,4.7733,4.7208,4.7208,4.6688,4.6187,4.6187,4.6192,4.6196,4.6189,4.6187,4.6185,4.6158,4.5939,4.5708,4.5536,4.4911,4.4404,4.4248,4.3641,4.2901,4.2022,4.1937,4.158,4.0704,3.9833,3.8983,3.8153,3.7102,3.6393,3.6168,3.6842,3.6958,3.6439,3.7795,3.8337,3.7944,4.0188,4.1351,4.1487,3.9963,3.9873,0.0,0.0,0.0,0.0,0.0,0.0,0.0,0.0,0.0,0.0,0.0,3.381,3.521,0.0,4.0031,4.2236,4.375,4.48,4.5244,4.5302,4.5302,4.5302,4.5302,4.5455,4.5851,4.6271,4.6863,4.7742,4.8271,4.8736,4.9177,4.9749,5.0106,5.021,5.0694,5.1033,5.1208,5.1208,5.1234,5.13,5.13,5.13,5.13,5.13,5.13,5.13,5.13,5.13,5.13,5.13,5.13,5.1222,5.0385,5.0053,5.0053,5.0053,4.9781,4.9391,4.9391,4.9138,4.8806,4.8806,4.8806,4.8806,4.8806,4.8806,4.8806,4.8806,4.8806,4.8806,4.8806,4.8477,4.8146,4.8146,4.7815,4.7386,4.6938,4.684,4.6724,4.6275,4.6197,4.6197,4.6197,4.6144,4.6096,4.6096,4.5726,4.5298,4.487,4.4422,4.3825,4.2948,4.285,4.266,4.2233,4.0992,3.9887,3.9054,3.8565,3.8287,3.8241,3.9094,3.956,3.956,4.0413,4.0856,4.0854,4.2522,4.3356,4.3359,4.3394,4.3373,0.0,0.0,0.0,0.0,0.0,0.0,0.0,3.0434,3.1689,3.3611,3.5733,3.7718,3.9296,4.0757,4.2297,4.3972,4.4838,4.5302,4.5302,4.5302,4.5302,4.5302,4.5302,4.5627,4.6424,4.6696,4.7468,4.9018,4.9418,4.9898,5.0591,5.0789,5.0935,5.1099,5.1125,5.1181,5.1298,5.13,5.13,5.13,5.13,5.13,5.13,5.13,5.13,5.13,5.13,5.13,5.13,5.13,5.13,5.13,5.13,5.13,5.13,5.13,5.0852,5.0248,5.0248,4.9839,4.9294,4.9294,4.9294,4.9294,4.9294,4.9294,4.9294,4.9294,4.9294,4.9294,4.9294,4.9157,4.9021,4.9021,4.8904,4.8613,4.7893,4.7756,4.7542,4.684,4.6568,4.6451,4.6451,4.6314,4.6197,4.6197,4.6197,4.5944,4.5244,4.5118,4.4746,4.387,4.3763,4.3702,4.3524,4.2224,4.1114,4.0403,4.0369,4.0369,4.036,4.1021,4.174,4.2434,4.2609,4.3034,4.3729,4.4553,4.5043,4.5218,4.593,4.5836,2.6384,2.6745,2.7495,2.9654,3.0344,3.2086,0.0,3.859,3.8259,4.0091,4.1293,4.21,4.2311,4.3088,4.401,4.4991,4.5244,4.5302,4.5302,4.5302,4.5302,4.5302,4.5302,4.5627,4.6424,4.7357,4.8294,4.9207,5.0126,5.067,5.0766,5.0952,5.1087,5.1102,5.122,5.1271,5.13,5.13,5.13,5.13,5.13,5.13,5.13,5.13,5.13,5.13,5.13,5.13,5.13,5.13,5.13,5.13,5.13,5.13,5.13,5.13,5.1242,5.1145,5.1145,5.1106,5.1028,5.1028,5.1028,5.1028,5.1028,5.1028,5.1028,5.1028,5.1028,5.1028,5.1028,5.0443,4.9878,4.9878,4.9313,4.8768,4.8672,4.8651,4.8633,4.8536,4.7873,4.7347,4.7347,4.6704,4.6197,4.6197,4.6197,4.6158,4.6061,4.6058,4.5705,4.4848,4.4747,4.4432,4.3647,4.3415,4.3226,4.3073,4.3052,4.3056,4.3054,4.317,4.3248,4.3343,4.4057,4.4462,4.4579,4.5428,4.6246,4.7014,4.7118,4.7064,3.0227,3.0814,3.1373,3.3236,3.4488,3.6166,3.9662,4.0327,4.0719,4.2568,4.3654,4.4251,4.4251,4.4532,4.4876,4.5244,4.5302,4.5302,4.5302,4.5375,4.541,4.541,4.5491,4.6037,4.7304,4.7918,4.8753,5.0066,5.0669,5.0962,5.0962,5.1125,5.1223,5.1223,5.1261,5.13,5.13,5.13,5.13,5.13,5.13,5.13,5.13,5.13,5.13,5.13,5.13,5.13,5.13,5.13,5.13,5.13,5.13,5.13,5.13,5.13,5.13,5.13,5.13,5.13,5.13,5.13,5.13,5.13,5.13,5.13,5.13,5.13,5.13,5.13,5.13,5.1028,5.0755,5.0755,5.0502,5.0112,4.9605,4.9508,4.9352,4.8884,4.8516,4.8263,4.8263,4.7951,4.7542,4.7035,4.6529,4.6197,4.6197,4.6197,4.6061,4.5691,4.5652,4.5301,4.4423,4.4364,4.4124,4.3599,4.403,4.4316,4.43,4.4806,4.5079,4.5079,4.5408,4.5815,4.632,4.6668,4.7255,4.8106,4.8107,4.8378,3.2657,3.3748,3.4761,3.6297,3.811,3.9824,4.0869,4.1743,4.2712,4.4086,4.4857,4.5302,4.5302,4.5302,4.5302,4.5302,4.5334,4.5356,4.5356,4.5482,4.5583,4.5551,4.5685,4.6337,4.7723,4.8163,4.8959,5.0412,5.0929,5.1153,5.1153,5.1245,5.13,5.13,5.13,5.13,5.13,5.13,5.13,5.13,5.13,5.13,5.13,5.13,5.13,5.13,5.13,5.13,5.13,5.13,5.13,5.13,5.13,5.13,5.13,5.13,5.13,5.13,5.13,5.13,5.13,5.13,5.13,5.13,5.13,5.13,5.13,5.13,5.13,5.13,5.13,5.13,5.13,5.13,5.13,5.1125,5.0482,5.0365,5.019,4.9605,4.9294,4.9138,4.9138,4.8943,4.8594,4.7951,4.7328,4.6743,4.6256,4.6197,4.6197,4.6197,4.6197,4.5944,4.5301,4.5262,4.4989,4.4363,4.4911,4.5262,4.5262,4.5866,4.6303,4.6552,4.6552,4.6986,4.7862,4.7808,4.8228,4.9093,4.9081,4.9551,3.2703,3.454,3.6816,3.8497,4.0793,4.2874,4.3696,4.4541,4.5182,4.5244,4.5283,4.5302,4.5302,4.5302,4.5302,4.5302,4.5419,4.5485,4.5485,4.5673,4.578,4.5703,4.5869,4.6314,4.714,4.7997,4.8871,4.9753,5.0736,5.1296,5.1296,5.1298,5.13,5.13,5.13,5.13,5.13,5.13,5.13,5.13,5.13,5.13,5.13,5.13,5.13,5.13,5.13,5.13,5.13,5.13,5.13,5.13,5.13,5.13,5.13,5.13,5.13,5.13,5.13,5.13,5.13,5.13,5.13,5.13,5.13,5.13,5.13,5.13,5.13,5.13,5.13,5.13,5.13,5.13,5.13,5.13,5.1261,5.1261,5.1242,5.1222,5.0541,4.9956,4.9956,4.9313,4.8787,4.8768,4.8748,4.8107,4.6412,4.6197,4.6197,4.6197,4.6197,4.6197,4.6158,4.6158,4.6158,4.6119,4.6158,4.6158,4.6158,4.6197,4.6594,4.7436,4.7456,4.7883,4.8764,4.8764,4.9217,5.0057,5.0056,5.0519,3.5572,3.7498,3.9427,4.1094,4.256,4.382,4.4666,4.5092,4.5302,4.5302,4.4838,4.4432,4.4432,4.4432,4.4483,4.4604,4.5123,4.5545,4.5688,4.6329,4.6566,4.5972,4.6558,4.6861,4.6569,4.7326,4.8414,4.9833,5.025,5.0696,5.1261,5.13,5.13,5.13,5.13,5.13,5.13,5.13,5.13,5.13,5.13,5.13,5.13,5.13,5.13,5.13,5.13,5.13,5.13,5.13,5.13,5.13,5.13,5.1305,5.1298,5.1298,5.1335,5.1368,5.1326,5.13,5.13,5.13,5.13,5.13,5.13,5.13,5.13,5.13,5.131,5.1309,5.129,5.1291,5.1298,5.1298,5.1298,5.1305,5.135,5.1374,5.1374,5.1374,5.1121,5.0926,5.0926,5.0693,5.0322,4.9757,4.9166,4.8594,4.8009,4.7425,4.7055,4.7055,4.6548,4.6197,4.6197,4.6197,4.6197,4.6197,4.6743,4.7055,4.7055,4.7616,4.8068,4.8353,4.8357,4.8784,4.9668,4.9668,5.0114,5.0958,5.0958,5.1129,3.8309,3.9871,4.1208,4.3195,4.4074,4.4609,4.5168,4.5302,4.5211,4.4921,4.4171,4.3483,4.3192,4.2919,4.2992,4.3749,4.4639,4.5488,4.6223,4.7191,4.7637,4.7066,4.7565,4.7743,4.7173,4.7632,4.8413,4.949,5.0131,5.0716,5.1261,5.13,5.13,5.13,5.13,5.13,5.13,5.13,5.13,5.13,5.13,5.13,5.13,5.13,5.13,5.13,5.1303,5.1292,5.1294,5.1331,5.1339,5.1339,5.1339,5.1336,5.1338,5.1338,5.1368,5.1395,5.1357,5.1339,5.1339,5.1339,5.1339,5.1339,5.1339,5.1339,5.1339,5.1339,5.1339,5.1333,5.1347,5.134,5.1338,5.1338,5.1338,5.1343,5.1396,5.1398,5.1398,5.1398,5.1398,5.1398,5.1398,5.1398,5.1203,5.0657,5.0086,4.9508,4.8885,4.8304,4.796,4.796,4.7455,4.7124,4.7124,4.7121,4.7131,4.7131,4.7641,4.7969,4.7968,4.8505,4.8951,4.9263,4.9254,4.9687,5.0557,5.0557,5.0844,5.1394,5.1394,5.1394,4.0673,4.1633,4.2264,4.469,4.5307,4.5307,4.5307,4.5231,4.494,4.4087,4.3149,4.2221,4.1362,4.0792,4.0983,4.2644,4.3993,4.5408,4.7077,4.8213,4.8851,4.8818,4.8848,4.8845,4.8794,4.8844,4.8868,4.8872,5.0348,5.1261,5.13,5.13,5.13,5.13,5.13,5.13,5.13,5.13,5.13,5.13,5.13,5.13,5.13,5.13,5.13,5.1308,5.1302,5.1301,5.1306,5.1372,5.1398,5.1398,5.1398,5.1399,5.1399,5.1399,5.14,5.1401,5.1401,5.14,5.1398,5.1398,5.1398,5.1398,5.1398,5.1398,5.1398,5.1398,5.1399,5.1399,5.1398,5.1399,5.1399,5.1399,5.1399,5.14,5.14,5.1401,5.1401,5.1401,5.1401,5.1401,5.1401,5.1401,5.1401,5.1401,5.1401,5.0795,4.9155,4.8883,4.8864,4.8864,4.8825,4.8806,4.8806,4.8793,4.8804,4.8804,4.8843,4.8879,4.8861,4.8902,4.9322,5.0154,5.0173,5.0577,5.1394,5.1394,5.1394,5.1394,5.1394,5.1394,4.1896,4.3391,4.448,4.513,4.5333,4.5364,4.5364,4.4413,4.3096,4.163,3.9657,3.7729,3.6215,3.7942,3.9779,4.033,4.3922,4.6824,4.738,4.8785,4.9529,4.8888,4.9371,4.9501,4.8869,4.9382,4.9774,4.9765,5.016,5.0678,5.1266,5.1308,5.13,5.13,5.13,5.13,5.13,5.13,5.13,5.13,5.13,5.13,5.13,5.13,5.1305,5.1304,5.1296,5.1335,5.1372,5.1397,5.1398,5.1398,5.1398,5.1404,5.1406,5.1406,5.1404,5.1394,5.1394,5.1406,5.1398,5.1398,5.1398,5.1398,5.1398,5.1398,5.1398,5.1398,5.1404,5.1406,5.1401,5.1405,5.1406,5.1406,5.1406,5.1406,5.1397,5.1394,5.1394,5.1394,5.1394,5.1394,5.1394,5.1394,5.1394,5.1394,5.1394,5.1246,5.0796,5.0165,4.9772,4.9772,4.9187,4.8797,4.8797,4.8802,4.8804,4.8804,4.9404,4.9774,4.9779,5.0389,5.084,5.1053,5.1062,5.1186,5.1394,5.1394,5.1394,5.1394,5.1394,5.1394,4.3443,4.4576,4.5302,4.5302,4.5328,4.4971,4.3494,4.2426,4.0975,3.8215,3.622,3.4578,3.3262,3.5336,3.763,3.8812,4.2792,4.6277,4.7847,4.924,5.0051,4.9952,5.0377,5.0331,4.9466,5.016,5.0512,5.0129,5.0423,5.0823,5.1273,5.1292,5.13,5.13,5.13,5.13,5.13,5.13,5.13,5.13,5.13,5.13,5.13,5.1309,5.1297,5.1302,5.1328,5.1361,5.1405,5.1406,5.1405,5.1405,5.1405,5.1403,5.1396,5.1396,5.1408,5.1394,5.1394,5.1394,5.1405,5.1405,5.1405,5.1405,5.1405,5.1405,5.1405,5.1405,5.1402,5.1398,5.1404,5.1402,5.1395,5.1395,5.1396,5.1393,5.1398,5.1394,5.1394,5.1394,5.1394,5.1394,5.1394,5.1394,5.1394,5.1394,5.1394,5.1406,5.1404,5.0976,5.0663,5.0663,5.0234,4.9941,4.9941,4.9941,4.994,4.994,5.0391,5.0664,5.0663,5.1131,5.1403,5.1396,5.1403,5.1394,5.1394,5.1394,5.1394,5.1394,5.1394,5.1394,4.4862,4.5302,4.5302,4.5302,4.5211,4.4285,4.105,4.0049,3.8625,3.4461,3.2881,3.1984,3.111,3.2767,3.5097,3.7642,4.1239,4.4893,4.8328,4.9547,5.0419,5.1302,5.1301,5.0984,5.033,5.0855,5.0954,5.0328,5.1011,5.1468,5.1468,5.1468,5.1534,5.163,5.1649,5.1649,5.1649,5.1532,5.1532,5.163,5.1532,5.1538,5.1645,5.1654,5.1657,5.167,5.1601,5.156,5.1558,5.1444,5.1394,5.1394,5.1394,5.1394,5.1394,5.1394,5.1394,5.1394,5.1394,5.1394,5.1394,5.1394,5.1394,5.1394,5.1394,5.1394,5.1394,5.1394,5.1394,5.1394,5.1394,5.1394,5.1394,5.1394,5.1394,5.1394,5.1394,5.1394,5.1394,5.1394,5.1394,5.1394,5.1394,5.1394,5.1394,5.1394,5.1394,5.1394,5.1394,5.1395,5.1403,5.1403,5.1403,5.1403,5.1403,5.1408,5.1394,5.1394,5.1396,5.1397,5.1395,5.1396,5.1397,5.1394,5.1394,5.1394,5.1394,5.1394,5.1394,5.1394,5.1394,5.1394,4.5034,4.5302,4.5302,4.5302,4.4798,4.3603,4.0915,3.8714,3.6063,3.1906,2.9827,2.8316,2.6858,2.9799,3.3273,3.5834,4.0443,4.49,4.8317,4.9555,5.0413,5.1292,5.0758,5.0541,5.1115,5.0662,5.0558,5.1122,5.1915,5.2365,5.2365,5.2364,5.2701,5.3422,5.3442,5.3442,5.3442,5.2721,5.274,5.3442,5.2721,5.2749,5.3457,5.3444,5.3477,5.3496,5.2772,5.2473,5.2418,5.171,5.1394,5.1394,5.1394,5.1394,5.1394,5.1394,5.1394,5.1394,5.1394,5.1394,5.1394,5.1394,5.1394,5.1394,5.1394,5.1394,5.1394,5.1394,5.1394,5.1394,5.1394,5.1394,5.1394,5.1394,5.1394,5.1394,5.1394,5.1394,5.1394,5.1394,5.1394,5.1394,5.1394,5.1394,5.1394,5.1394,5.1394,5.1394,5.1394,5.1399,5.1402,5.1402,5.1402,5.1402,5.1402,5.1397,5.1394,5.1394,5.1399,5.14,5.1394,5.1399,5.14,5.1394,5.1394,5.1394,5.1394,5.1394,5.1394,5.1394,5.1394,5.1394,4.5187,4.5346,4.5386,4.5314,4.481,4.3155,3.8749,3.6535,3.3962,2.8884,2.7237,2.6479,2.5685,2.8372,3.154,3.4138,3.7824,4.1877,4.6213,4.7576,4.8767,5.0514,5.0745,5.0764,5.073,5.1169,5.1433,5.1407,5.2573,5.3084,5.2618,5.3025,5.3461,5.389,5.3909,5.3909,5.3909,5.3481,5.3481,5.389,5.3476,5.3504,5.3898,5.3949,5.3964,5.3982,5.3564,5.3125,5.2664,5.2254,5.1804,5.1394,5.1394,5.1394,5.1394,5.1394,5.1394,5.1394,5.1394,5.1394,5.1394,5.1394,5.1394,5.1394,5.1394,5.1394,5.1394,5.1394,5.1394,5.1394,5.1394,5.1394,5.1394,5.1394,5.1394,5.1394,5.1394,5.1394,5.1394,5.1394,5.1394,5.1394,5.1394,5.1394,5.1394,5.1394,5.1394,5.1394,5.1394,5.1394,5.1394,5.1394,5.1394,5.1394,5.1394,5.1394,5.1394,5.1394,5.1394,5.1394,5.1394,5.1394,5.1394,5.1394,5.1394,5.1394,5.1394,5.1394,5.1394,5.1394,5.1394,5.1394,4.5244,4.539,4.5442,4.5366,4.4615,4.2414,3.6732,3.4567,3.2186,2.6643,2.5537,2.5587,2.5619,2.7459,2.9936,3.2915,3.5436,3.8893,4.4246,4.5907,4.745,4.9811,5.0691,5.1003,5.0691,5.1735,5.2289,5.1961,5.3323,5.3876,5.3196,5.3978,5.4457,5.4457,5.4457,5.4457,5.4457,5.4279,5.4279,5.4457,5.4263,5.4271,5.4457,5.4511,5.4547,5.4544,5.4352,5.3893,5.323,5.3054,5.2469,5.1687,5.1687,5.155,5.1394,5.1394,5.1394,5.1394,5.1394,5.1394,5.1394,5.1394,5.1394,5.1394,5.1394,5.1394,5.1394,5.1394,5.1394,5.1394,5.1394,5.1394,5.1394,5.1394,5.1394,5.1394,5.1394,5.1394,5.1394,5.1394,5.1394,5.1394,5.1394,5.1394,5.1394,5.1394,5.1394,5.1394,5.1394,5.1394,5.1394,5.1394,5.1394,5.1394,5.1394,5.1394,5.1394,5.1394,5.1394,5.1394,5.1394,5.1394,5.1394,5.1394,5.1394,5.1394,5.1394,5.1394,5.1394,5.1394,5.1394,5.1394,4.5092,4.5317,4.5336,4.5446,4.3703,4.0839,3.6563,3.3693,3.0708,2.6391,2.549,2.555,2.5676,2.6539,2.8586,3.2727,3.4935,3.8199,4.4156,4.6384,4.8067,4.9888,5.0163,5.0808,5.2313,5.1893,5.2114,5.3562,5.4558,5.5041,5.4963,5.5784,5.6251,5.6251,5.6251,5.6251,5.6251,5.5489,5.5489,5.6253,5.5453,5.5493,5.6259,5.6269,5.6299,5.6316,5.5515,5.5143,5.5006,5.4205,5.3366,5.2586,5.2586,5.2098,5.1394,5.1394,5.1394,5.1394,5.1394,5.1394,5.1394,5.1394,5.1394,5.1394,5.1394,5.1394,5.1394,5.1394,5.1394,5.1394,5.1394,5.1394,5.1394,5.1394,5.1394,5.1394,5.1394,5.1394,5.1394,5.1394,5.1394,5.1394,5.1394,5.1394,5.1394,5.1394,5.1394,5.1394,5.1394,5.1394,5.1394,5.1394,5.1394,5.1394,5.1394,5.1394,5.1394,5.1394,5.1394,5.1394,5.1394,5.1394,5.1394,5.1394,5.1394,5.1394,5.1394,5.1394,5.1394,5.1394,5.1394,5.1394,4.4011,4.4954,4.5405,4.5386,4.3639,4.081,3.6525,3.3678,3.0738,2.6488,2.5616,2.5641,2.5688,2.5982,2.7289,3.0537,3.1632,3.384,3.8881,4.1483,4.3885,4.6633,4.8361,5.0198,5.2428,5.2791,5.3619,5.5337,5.578,5.5987,5.5976,5.6316,5.6507,5.6507,5.6501,5.6499,5.6499,5.6157,5.617,5.6503,5.6141,5.615,5.6504,5.6535,5.6578,5.6585,5.6235,5.5786,5.526,5.4928,5.3952,5.2703,5.2703,5.2176,5.1394,5.1394,5.1394,5.1394,5.1394,5.1394,5.1394,5.1394,5.1394,5.1394,5.1394,5.1394,5.1394,5.1394,5.1394,5.1394,5.1394,5.1394,5.1394,5.1394,5.1394,5.1394,5.1394,5.1394,5.1394,5.1394,5.1394,5.1394,5.1394,5.1394,5.1394,5.1394,5.1394,5.1394,5.1394,5.1394,5.1394,5.1394,5.1394,5.1394,5.1394,5.1394,5.1394,5.1394,5.1394,5.1394,5.1394,5.1394,5.1394,5.1394,5.1394,5.1394,5.1394,5.1394,5.1394,5.1394,5.1394,5.1687,4.2904,4.4336,4.5054,4.5069,4.3354,4.0533,3.6211,3.3419,3.0571,2.6537,2.5699,2.5699,2.5699,2.5699,2.6444,2.8738,2.9556,3.1391,3.5734,3.8785,4.1753,4.4947,4.7168,4.9553,5.2364,5.3879,5.5178,5.6415,5.6498,5.6494,5.6494,5.6502,5.65,5.6494,5.6491,5.6494,5.6505,5.6507,5.6495,5.6495,5.6504,5.6502,5.6501,5.6561,5.6605,5.6605,5.6605,5.6255,5.5689,5.5689,5.4811,5.3464,5.3464,5.2781,5.1785,5.1785,5.1629,5.1394,5.1394,5.1394,5.1394,5.1394,5.1394,5.1394,5.1394,5.1394,5.1394,5.1394,5.1394,5.1394,5.1394,5.1394,5.1394,5.1394,5.1394,5.1394,5.1394,5.1394,5.1394,5.1394,5.1394,5.1394,5.1394,5.1394,5.1394,5.1394,5.1394,5.1394,5.1394,5.1394,5.1394,5.1394,5.1394,5.1394,5.1394,5.1394,5.1394,5.1394,5.1394,5.1394,5.1394,5.1394,5.1394,5.1394,5.1394,5.1394,5.1394,5.1394,5.1531,5.1785,5.1785,5.2253,4.1896,4.34,4.4092,4.4438,4.2556,3.9568,3.5538,3.2633,2.9847,2.6419,2.5699,2.5699,2.5699,2.5699,2.6248,2.7936,2.9661,3.2293,3.6571,4.0184,4.3348,4.5972,4.7074,4.8953,5.2371,5.4994,5.6488,5.6507,5.6493,5.6494,5.6494,5.6492,5.6491,5.6506,5.6507,5.6506,5.6495,5.6495,5.6495,5.6495,5.6504,5.6502,5.6501,5.6561,5.6605,5.6605,5.6605,5.6585,5.6585,5.6585,5.6079,5.526,5.526,5.4206,5.2684,5.2684,5.2137,5.1394,5.1394,5.1394,5.1394,5.1394,5.1394,5.1394,5.1394,5.1394,5.1394,5.1394,5.1394,5.1394,5.1394,5.1394,5.1394,5.1394,5.1394,5.1394,5.1394,5.1394,5.1394,5.1394,5.1394,5.1394,5.1394,5.1394,5.1394,5.1394,5.1394,5.1394,5.1394,5.1394,5.1394,5.1394,5.1394,5.1394,5.1394,5.1394,5.1394,5.1394,5.1394,5.1394,5.1394,5.1394,5.1394,5.1394,5.1394,5.1394,5.1394,5.1394,5.1843,5.2684,5.2684,5.3152,3.5859,3.7368,3.8006,3.812,3.6754,3.4762,3.2298,3.0325,2.8385,2.6167,2.5699,2.5699,2.5699,2.5699,2.6635,2.9502,3.0433,3.2094,3.5797,3.931,4.2045,4.3462,4.799,5.1683,5.3411,5.5359,5.6507,5.6507,5.6532,5.6544,5.6504,5.6492,5.6498,5.6507,5.6494,5.6495,5.6504,5.6558,5.6572,5.6572,5.6566,5.6562,5.6561,5.6591,5.6605,5.6605,5.6605,5.6605,5.6605,5.6605,5.6098,5.5299,5.5299,5.4597,5.358,5.358,5.3405,5.3171,5.3171,5.3171,5.3171,5.3171,5.3171,5.3171,5.3171,5.2331,5.1394,5.1394,5.1394,5.1394,5.1394,5.1394,5.1394,5.1394,5.1394,5.1394,5.1394,5.1394,5.1394,5.1394,5.1394,5.1394,5.1394,5.1394,5.1394,5.1394,5.1394,5.1394,5.1394,5.1394,5.1394,5.1394,5.1394,5.1394,5.1394,5.1394,5.1394,5.1394,5.1394,5.1394,5.1394,5.1394,5.1394,5.1394,5.1394,5.1687,5.2293,5.2293,5.2742,5.36,5.4206,5.4616,3.1752,3.3853,3.476,3.4835,3.3926,3.2488,3.0503,2.9104,2.7723,2.605,2.5699,2.5699,2.5699,2.5699,2.6399,2.8522,2.9671,3.139,3.4524,3.8503,4.1902,4.4067,4.9243,5.274,5.2982,5.5149,5.6532,5.6507,5.6536,5.653,5.6493,5.6497,5.6496,5.6507,5.6499,5.6504,5.6533,5.6576,5.6605,5.6605,5.6605,5.6605,5.6605,5.6605,5.6605,5.6605,5.6605,5.6605,0.0,5.6605,5.6274,5.5786,5.5786,5.5259,5.4498,5.4498,5.4283,5.401,5.401,5.401,5.401,5.401,5.401,5.401,5.401,5.3014,5.1824,5.1492,5.1394,5.1394,5.1394,5.1394,5.1394,5.1394,5.1394,5.1394,5.1394,5.1394,5.1394,5.1394,5.1394,5.1394,5.1394,5.1394,5.1394,5.1394,5.1394,5.1394,5.1394,5.1394,5.1394,5.1394,5.1394,5.1394,5.1394,5.1394,5.1394,5.1394,5.1394,5.1394,5.1394,5.1394,5.1394,5.1394,5.1726,5.2157,5.2703,5.3367,5.3952,5.4517,5.5376,5.5786,0.0,3.1904,3.3221,3.3426,3.2879,3.1709,2.9522,2.8403,0.0,2.5913,2.5601,2.566,2.5835,2.5777,2.5816,2.6186,2.8289,3.0808,3.3475,3.8253,4.3039,4.7274,5.0685,5.2409,5.1668,5.4633,5.6561,5.651,5.6515,5.6501,5.6497,5.6503,5.6501,5.65,5.65,5.6533,5.6606,5.6605,5.6605,5.6605,5.6605,5.6605,5.6605,5.6605,5.6605,5.6605,5.6605,5.6605,5.6605,5.6605,5.6605,5.6605,5.6605,5.6118,5.5397,5.5397,5.4888,5.4185,5.4185,5.4185,5.4185,5.4185,5.4185,5.4166,5.4108,5.3483,5.2606,5.1746,5.1492,5.1472,5.1414,5.1394,5.1394,5.1394,5.1394,5.1394,5.1394,5.1394,5.1394,5.1394,5.1394,5.1394,5.1394,5.1394,5.1394,5.1394,5.1394,5.1394,5.1394,5.1394,5.1394,5.1394,5.1394,5.1394,5.1394,5.1394,5.1394,5.1394,5.1394,5.1394,5.1394,5.1453,5.1492,5.1492,5.241,5.2879,5.2898,5.4577,5.5397,5.5416,5.6216,5.6605,2.3315,0.0,2.5293,2.5392,2.5342,2.5147,0.0,2.4407,2.4374,2.4647,2.4705,2.5309,2.7257,2.6555,2.6985,3.0941,3.2617,3.4556,3.7836,4.2173,4.637,5.0053,5.1802,5.2888,5.3345,5.5336,5.6584,5.6582,5.6587,5.6541,5.6503,5.6558,5.6546,5.6493,5.655,5.6574,5.6605,5.6605,5.6605,5.6605,5.6605,5.6605,5.6605,5.6605,5.6605,5.6605,5.6605,5.6605,5.6605,5.6605,5.6605,5.6605,5.6605,5.6468,5.6294,5.6294,5.6157,5.598,5.598,5.598,5.598,5.598,5.598,5.5863,5.5201,5.4381,5.3502,5.2645,5.2391,5.2235,5.157,5.1394,5.1394,5.1394,5.1394,5.1394,5.1394,5.1394,5.1394,5.1394,5.1394,5.1394,5.1394,5.1394,5.1394,5.1394,5.1394,5.1394,5.1394,5.1394,5.1394,5.1394,5.1394,5.1394,5.1394,5.1394,5.1394,5.1394,5.1394,5.1394,5.1394,5.2039,5.2391,5.2391,5.3913,5.4694,5.4694,5.5767,5.6294,5.6294,5.6507,5.6605,2.0807,2.2546,2.4367,2.4493,2.4861,2.5224,2.5368,2.4824,2.4432,2.49,2.4997,2.5426,2.6808,2.6945,2.8016,3.1622,3.3577,3.6393,4.1437,4.4829,4.7935,5.1025,5.252,5.3471,5.395,5.557,5.6609,5.6599,5.6578,5.6542,5.6554,5.654,5.6543,5.6545,5.6579,5.6605,5.6605,5.6605,5.6605,5.6605,5.6605,5.6605,5.6605,5.6605,5.6605,5.6605,5.6605,5.6605,5.6605,5.6605,5.6605,5.6605,5.6605,5.6605,5.6605,5.6605,5.6605,5.6605,5.6605,5.6605,5.6605,5.6605,5.6605,5.6507,5.604,5.5571,5.4927,5.3659,5.3308,5.319,5.2722,5.2292,5.2,5.2,5.1687,5.1394,5.1394,5.1394,5.1394,5.1394,5.1394,5.1394,5.1394,5.1394,5.1394,5.1394,5.1394,5.1394,5.1394,5.1394,5.1394,5.1394,5.1394,5.155,5.1961,5.2,5.2,5.2,5.2,5.2175,5.2585,5.3053,5.3484,5.3894,5.4811,5.5494,5.5903,5.6372,5.6605,5.6605,5.6605,5.6605,2.0609,2.3673,2.6677,2.6079,2.6746,2.753,2.7448,2.6321,2.5348,2.5465,2.5718,2.605,2.6576,2.7842,2.9497,3.1639,3.4264,3.8268,4.4617,4.6885,4.8712,5.0943,5.2849,5.3995,5.4007,5.5577,5.6581,5.6592,5.6542,5.6532,5.6592,5.6541,5.6542,5.6605,5.6605,5.6605,5.6605,5.6605,5.6605,5.6605,5.6605,5.6605,5.6605,5.6605,5.6605,5.6605,5.6605,5.6605,5.6605,5.6605,5.6605,5.6605,5.6605,5.6605,5.6605,5.6605,5.6605,5.6605,5.6605,5.6605,5.6605,5.6605,5.6605,5.6605,5.6605,5.6605,5.6293,5.4809,5.4303,5.4166,5.4029,5.3444,5.2898,5.2898,5.2331,5.1804,5.1804,5.1804,5.1804,5.1804,5.1804,5.1804,5.1804,5.1804,5.1804,5.1804,5.1804,5.1804,5.1804,5.1804,5.1804,5.1804,5.1804,5.2097,5.284,5.2898,5.2957,5.3094,5.2976,5.3289,5.4166,5.4205,5.4615,5.5475,5.5494,5.5864,5.6605,5.6605,5.6605,5.6605,5.6605,5.6605,2.2923,2.5945,2.7677,2.344,2.4187,2.5596,2.4209,2.3674,2.3712,2.4452,2.5738,2.7628,3.0572,3.1332,3.2773,3.6688,4.0074,4.3626,4.7645,4.9062,4.9853,5.0241,5.2441,5.3942,5.3995,5.5537,5.6541,5.6593,5.6538,5.652,5.6592,5.6595,5.6582,5.6605,5.6605,5.6605,5.6605,5.6605,5.6605,5.6605,5.6605,5.6605,5.6605,5.6605,5.6605,5.6605,5.6605,5.6605,5.6605,5.6605,5.6605,5.6605,5.6605,5.6605,5.6605,5.6605,5.6605,5.6605,5.6605,5.6605,5.6605,5.6605,5.6605,5.6605,5.6605,5.6605,5.6546,5.6273,5.5669,5.4928,5.4186,5.3893,5.3795,5.3795,5.3698,5.36,5.36,5.36,5.36,5.36,5.36,5.36,5.36,5.36,5.36,5.36,5.36,5.36,5.36,5.36,5.36,5.36,5.36,5.3659,5.3795,5.3795,5.4127,5.485,5.4205,5.4186,5.5065,5.5104,5.5513,5.6372,5.639,5.6468,5.6605,5.6605,5.6605,5.6605,5.6605,5.6605,2.1802,2.4464,2.6716,2.4867,2.7421,3.0226,2.9488,2.8604,2.8214,2.9071,2.9889,3.1039,3.3086,3.4215,3.6263,4.0557,4.4151,4.6804,4.7944,4.8847,4.9577,5.0036,5.1547,5.2927,5.3904,5.5125,5.6052,5.656,5.6577,5.6563,5.66,5.6592,5.6605,5.6605,5.6605,5.6605,5.6605,5.6605,5.6605,5.6605,5.6605,5.6605,5.6605,5.6605,5.6605,5.6605,5.6605,5.6605,5.6605,5.6605,5.6605,5.6605,5.6605,5.6605,5.6605,5.6605,5.6605,5.6605,5.6605,5.6605,5.6605,5.6605,5.6605,5.6605,5.6605,5.6605,5.6605,5.6605,5.6313,5.5903,5.5512,5.5064,5.4693,5.4693,5.4342,5.401,5.401,5.401,5.401,5.401,5.401,5.401,5.401,5.401,5.401,5.401,5.401,5.401,5.401,5.401,5.401,5.401,5.401,5.4186,5.4654,5.4693,5.487,5.526,5.5376,5.5571,5.5981,5.6001,5.6196,5.6585,5.6605,5.6605,5.6605,5.6605,5.6605,5.6605,5.7055,5.725,2.1453,2.3545,2.604,2.7118,3.0239,3.325,3.4126,3.3007,3.2149,3.3417,3.4002,3.4604,3.5637,3.7566,4.0219,4.3913,4.6918,4.8573,4.7908,4.8534,4.9262,4.9744,5.0749,5.1995,5.3559,5.4463,5.5253,5.5937,5.6163,5.6286,5.6294,5.6488,5.6605,5.6605,5.6605,5.6605,5.6605,5.6605,5.6605,5.6605,5.6605,5.6605,5.6605,5.6605,5.6605,5.6605,5.6605,5.6605,5.6605,5.6605,5.6605,5.6605,5.6605,5.6605,5.6605,5.6605,5.6605,5.6605,5.6605,5.6605,5.6605,5.6605,5.6605,5.6605,5.6605,5.6605,5.6605,5.6605,5.6605,5.6605,5.6605,5.6098,5.5592,5.5592,5.5083,5.4614,5.4614,5.4614,5.4614,5.4614,5.4614,5.4614,5.4614,5.4614,5.4614,5.4614,5.4614,5.4614,5.4614,5.4614,5.4614,5.4614,5.4614,5.4888,5.5553,5.5592,5.5592,5.5592,5.6235,5.6605,5.6605,5.6605,5.6605,5.6605,5.6605,5.6605,5.6605,5.6605,5.6702,5.6899,5.7504,5.7914,2.4497,2.5758,2.7027,2.8703,2.8879,2.9491,3.2753,3.2148,3.1581,3.402,3.5793,3.7448,3.9122,4.2125,4.4972,4.6901,4.8109,4.8769,4.8711,4.9393,4.9666,4.8968,5.0384,5.1761,5.2701,5.3535,5.4056,5.4173,5.4884,5.5334,5.5396,5.6157,5.6605,5.6605,5.6605,5.6605,5.6605,5.6605,5.6605,5.6605,5.6605,5.6605,5.6605,5.6605,5.6605,5.6605,5.6605,5.6605,5.6605,5.6605,5.6605,5.6605,5.6605,5.6605,5.6605,5.6605,5.6605,5.6605,5.6605,5.6605,5.6605,5.6605,5.6605,5.6605,5.6605,5.6605,5.6605,5.6605,5.6605,5.6605,5.6605,5.6546,5.6507,5.6507,5.6468,5.641,5.641,5.641,5.641,5.641,5.641,5.641,5.641,5.641,5.641,5.641,5.641,5.641,5.641,5.641,5.641,5.641,5.641,5.6449,5.6507,5.6507,5.6507,5.6507,5.6566,5.6605,5.6605,5.6605,5.6605,5.6605,5.6605,5.6605,5.6605,5.6605,5.6977,5.7719,5.7778,5.8226,2.293,2.4473,2.6556,2.8849,3.0027,3.1389,3.4292,3.5694,3.6979,3.8966,4.0349,4.1557,4.2749,4.4911,4.6918,4.8107,4.9001,4.9547,4.9547,4.9372,4.9143,4.8842,4.8896,4.953,5.0952,5.1365,5.1991,5.3118,5.3468,5.3884,5.4459,5.4791,5.4985,5.4985,5.5513,5.5786,5.5786,5.6333,5.6605,5.6605,5.6605,5.6605,5.6605,5.6605,5.6605,5.6605,5.6605,5.6605,5.6605,5.6605,5.6605,5.6605,5.6605,5.6605,5.6605,5.6605,5.6605,5.6605,5.6605,5.6605,5.6605,5.6605,5.6605,5.6605,5.6605,5.6605,5.6605,5.6605,5.6605,5.6605,5.6605,5.6605,5.6605,5.6605,5.6605,5.6605,5.6605,5.6605,5.6605,5.6605,5.6605,5.6605,5.6605,5.6605,5.6605,5.6605,5.6605,5.6605,5.6605,5.6605,5.6605,5.6605,5.6605,5.6605,5.6605,5.6605,5.6605,5.6605,5.6605,5.6605,5.6605,5.6605,5.6605,5.6605,5.6605,5.6605,5.6605,5.7094,5.7504,5.7837,5.8909,5.9592,2.2573,2.3791,2.5748,2.8085,3.0394,3.2832,3.5676,3.8129,4.0349,4.2315,4.3622,4.452,4.4834,4.6314,4.7795,4.8652,4.9488,4.9995,4.9995,4.9527,4.9085,4.8824,4.826,4.8389,4.9573,4.9685,5.0175,5.1375,5.1715,5.2136,5.274,5.3033,5.3307,5.358,5.4167,5.4733,5.5299,5.5884,5.6333,5.6605,5.6605,5.6605,5.6605,5.6605,5.6605,5.6605,5.6605,5.6605,5.6605,5.6605,5.6605,5.6605,5.6605,5.6605,5.6605,5.6605,5.6605,5.6605,5.6605,5.6605,5.6605,5.6605,5.6605,5.6605,5.6605,5.6605,5.6605,5.6605,5.6605,5.6605,5.6605,5.6605,5.6605,5.6605,5.6605,5.6605,5.6605,5.6605,5.6605,5.6605,5.6605,5.6605,5.6605,5.6605,5.6605,5.6605,5.6605,5.6605,5.6605,5.6605,5.6605,5.6605,5.6605,5.6605,5.6605,5.6605,5.6605,5.6605,5.6605,5.6605,5.6605,5.6605,5.6605,5.6605,5.6605,5.6722,5.6977,5.7523,5.8071,5.8656,5.9846,6.0549,2.4243,2.4325,2.4775,2.6508,2.9577,3.3066,3.6473,3.8578,4.0544,4.3094,4.5007,4.5944,4.5089,4.6334,4.7795,4.8672,4.9488,4.9995,5.0014,5.0014,4.9703,4.8906,4.8808,4.8805,4.88,4.8808,4.8797,4.882,4.9598,5.0085,5.0104,5.0905,5.1765,5.2645,5.2684,5.3523,5.5241,5.5299,5.5728,5.6585,5.6605,5.6605,5.6605,5.6605,5.6605,5.6605,5.6605,5.6605,5.6605,5.6605,5.6605,5.6605,5.6605,5.6605,5.6605,5.6605,5.6605,5.6605,5.6605,5.6605,5.6605,5.6605,5.6605,5.6605,5.6605,5.6605,5.6605,5.6605,5.6605,5.6605,5.6605,5.6605,5.6605,5.6605,5.6605,5.6605,5.6605,5.6605,5.6605,5.6605,5.6605,5.6605,5.6605,5.6605,5.6605,5.6605,5.6605,5.6605,5.6605,5.6605,5.6605,5.6605,5.6605,5.6605,5.6605,5.6605,5.6605,5.6605,5.6605,5.6605,5.6605,5.6605,5.6605,5.6605,5.6605,5.6996,5.7798,5.7817,5.8714,6.0393,6.0412,6.0861,2.3512,2.5613,2.8374,3.0121,3.4078,3.809,4.0291,4.1187,4.2297,4.489,4.5847,4.6314,4.6665,4.7152,4.7971,4.941,4.9839,5.0209,5.0833,5.0385,4.9932,4.9735,4.9168,4.8807,4.8808,4.8807,4.9054,4.9678,4.9383,4.9441,5.0065,4.9754,4.9696,4.9951,5.1141,5.2038,5.2546,5.4382,5.5436,5.5689,5.6313,5.6605,5.6605,5.6605,5.6605,5.6605,5.6605,5.6605,5.6605,5.6605,5.6605,5.6605,5.6605,5.6605,5.6605,5.6605,5.6605,5.6605,5.6605,5.6605,5.6605,5.6605,5.6605,5.6605,5.6605,5.6605,5.6605,5.6605,5.6605,5.6605,5.6605,5.6605,5.6605,5.6605,5.6605,5.6605,5.6605,5.6605,5.6605,5.6605,5.6605,5.6605,5.6605,5.6605,5.6605,5.6605,5.6605,5.6605,5.6605,5.6605,5.6605,5.6605,5.6605,5.6605,5.6605,5.6605,5.6605,5.6605,5.6605,5.6605,5.6605,5.6605,5.6605,5.6605,5.7153,5.7562,5.7798,5.9026,5.9885,6.0412,6.1036,6.1446,2.4802,2.6982,2.9653,3.2403,3.5949,3.9571,4.263,4.3332,4.3877,4.5808,4.6197,4.647,4.7347,4.7776,4.8456,4.9781,5.0287,5.0696,5.1222,5.0853,5.0412,5.0124,4.9644,4.9175,4.8826,4.8802,4.9028,4.954,4.9091,4.9032,4.9559,4.9091,4.8798,4.8798,4.9813,5.0535,5.0886,5.278,5.3913,5.4284,5.5142,5.557,5.559,5.6273,5.6605,5.6605,5.6605,5.6605,5.6605,5.6605,5.6605,5.6605,5.6605,5.6605,5.6605,5.6605,5.6605,5.6605,5.6605,5.6605,5.6605,5.6605,5.6605,5.6605,5.6605,5.6605,5.6605,5.6605,5.6605,5.6605,5.6605,5.6605,5.6605,5.6605,5.6605,5.6605,5.6605,5.6605,5.6605,5.6605,5.6605,5.6605,5.6605,5.6605,5.6605,5.6605,5.6605,5.6605,5.6605,5.6605,5.6605,5.6605,5.6605,5.6605,5.6605,5.6605,5.6605,5.6605,5.6605,5.6742,5.7055,5.6761,5.6742,5.7074,5.7543,5.8149,5.8831,5.9885,6.0588,6.0939,6.1465,6.1699,2.7167,2.8366,2.9672,3.3903,3.6436,3.9143,4.3937,4.503,4.5244,4.6042,4.6197,4.647,4.7347,4.8204,4.906,4.9878,5.0735,5.13,5.13,5.1291,5.1028,5.0308,5.0211,4.99,4.9117,4.9046,4.9032,4.9032,4.8954,4.8915,4.8915,4.8837,4.8798,4.8798,4.8876,4.9266,4.9967,5.0925,5.1765,5.2469,5.3346,5.3756,5.3815,5.557,5.641,5.6488,5.6488,5.6527,5.6605,5.6605,5.6605,5.6605,5.6605,5.6605,5.6605,5.6605,5.6605,5.6605,5.6605,5.6605,5.6605,5.6605,5.6605,5.6605,5.6605,5.6605,5.6605,5.6605,5.6605,5.6605,5.6605,5.6605,5.6605,5.6605,5.6605,5.6605,5.6605,5.6605,5.6605,5.6605,5.6605,5.6605,5.6605,5.6605,5.6605,5.6605,5.6605,5.6605,5.6605,5.6605,5.6605,5.6605,5.6605,5.6605,5.6605,5.6605,5.6605,5.6605,5.6663,5.7035,5.7778,5.7094,5.7094,5.7894,5.7993,5.8812,6.0393,6.0471,6.0939,6.1699,6.1699,6.1699,2.6427,2.9674,3.3143,3.6766,4.0489,4.3703,4.5515,4.5925,4.5964,4.6158,4.6197,4.647,4.7347,4.8204,4.906,4.9878,5.0735,5.13,5.13,5.1291,5.1252,5.1137,5.1113,5.105,5.0858,5.0832,5.0848,5.0848,5.0203,4.9812,4.9812,4.9169,4.8798,4.8798,4.9461,4.9578,4.9072,5.0614,5.116,5.0671,5.153,5.196,5.2019,5.3756,5.4927,5.5573,5.5573,5.5962,5.6605,5.6605,5.6605,5.6605,5.6605,5.6605,5.6605,5.6605,5.6605,5.6605,5.6605,5.6605,5.6605,5.6605,5.6605,5.6605,5.6605,5.6605,5.6605,5.6605,5.6605,5.6605,5.6605,5.6605,5.6605,5.6605,5.6605,5.6605,5.6605,5.6605,5.6605,5.6605,5.6605,5.6605,5.6605,5.6605,5.6605,5.6605,5.6605,5.6605,5.6605,5.6605,5.6605,5.6605,5.6605,5.6605,5.6605,5.6605,5.6605,5.6605,5.7192,5.7621,5.7798,5.7621,5.7953,5.8791,5.9495,6.0022,6.0393,6.1094,6.1524,6.1699,6.1699,6.1699,2.6997,3.0101,3.3278,3.7953,4.2028,4.503,4.5477,4.5905,4.6197,4.6197,4.6197,4.647,4.7347,4.7873,4.8458,4.9294,4.9802,5.011,5.011,5.0456,5.0736,5.0761,5.1149,5.1391,5.1395,5.1394,5.1394,5.1394,5.0983,5.071,5.071,5.0282,4.9852,4.9441,4.985,4.9676,4.8818,5.0125,5.0339,4.948,5.0359,5.0554,5.0223,5.239,5.3854,5.4674,5.4674,5.4947,5.5395,5.5806,5.5981,5.602,5.6449,5.6605,5.6605,5.6605,5.6605,5.6605,5.6605,5.6605,5.6605,5.6605,5.6605,5.6605,5.6605,5.6605,5.6605,5.6605,5.6605,5.6605,5.6605,5.6605,5.6605,5.6605,5.6605,5.6605,5.6605,5.6605,5.6605,5.6605,5.6605,5.6605,5.6605,5.6605,5.6605,5.6605,5.6605,5.6605,5.6605,5.6605,5.6605,5.6605,5.6605,5.6605,5.6605,5.6957,5.7172,5.7172,5.7953,5.8616,5.9026,5.9046,5.9261,5.971,6.0178,6.0607,6.1016,6.1485,6.1699,6.1699,6.1699,6.1699,2.7101,3.0002,3.2866,3.8751,4.2241,4.4366,4.4796,4.5457,4.5983,4.5983,4.61,4.6412,4.7133,4.7405,4.7737,4.8458,4.8694,4.8798,4.8798,4.9429,4.9881,4.9881,5.0649,5.118,5.118,5.1316,5.1394,5.1394,5.1394,5.1394,5.1394,5.1394,5.1062,5.0358,5.0319,4.991,4.9032,4.9734,4.9656,4.8818,4.9383,4.9363,4.8876,5.0907,5.237,5.3326,5.3326,5.3404,5.362,5.4499,5.4948,5.5163,5.604,5.6468,5.6605,5.6605,5.6605,5.6605,5.6605,5.6605,5.6605,5.6605,5.6605,5.6605,5.6605,5.6605,5.6605,5.6605,5.6605,5.6605,5.6605,5.6605,5.6605,5.6605,5.6605,5.6605,5.6605,5.6605,5.6605,5.6605,5.6605,5.6605,5.6605,5.6605,5.6605,5.6605,5.6605,5.6605,5.6605,5.6605,5.6605,5.6605,5.6605,5.6605,5.6605,5.7348,5.7798,5.7798,5.8753,5.965,6.0373,6.0549,6.0627,6.0627,6.0627,6.0978,6.1699,6.1699,6.1699,6.1699,6.1699,6.1699,2.4044,2.9498,3.5363,4.0641,4.1791,4.2182,4.4405,4.4991,4.5069,4.5069,4.5671,4.6236,4.6353,4.6996,4.7542,4.7659,4.8304,4.8798,4.8798,4.8901,4.8963,4.8963,4.9731,5.026,5.026,5.0964,5.1394,5.1394,5.1394,5.1394,5.1394,5.1394,5.1355,5.1238,5.1238,5.0808,4.9928,5.0046,4.9656,4.8798,4.8212,4.8231,4.8798,4.8446,4.9149,5.0612,5.0612,5.1042,5.1804,5.2684,5.3484,5.4264,5.5124,5.5942,5.6605,5.6605,5.6605,5.6605,5.6605,5.6605,5.6605,5.6605,5.6605,5.6605,5.6605,5.6605,5.6605,5.6605,5.6605,5.6605,5.6605,5.6605,5.6605,5.6605,5.6605,5.6605,5.6605,5.6605,5.6605,5.6605,5.6605,5.6605,5.6605,5.6605,5.6605,5.6605,5.6605,5.6605,5.6605,5.6605,5.6605,5.6605,5.6605,5.6605,5.6605,5.7348,5.7798,5.7798,5.9339,6.0276,6.0393,6.1133,6.1524,6.1524,6.1524,6.1582,6.1699,6.1699,6.1699,6.1699,6.1699,6.1699,2.4471,2.9772,3.4702,3.7915,4.0252,4.1947,4.2611,4.3879,4.4894,4.4894,4.5205,4.5613,4.61,4.6509,4.6773,4.676,4.7089,4.7366,4.7395,4.7811,4.8131,4.8131,4.8864,4.9363,4.9363,5.0164,5.0671,5.0671,5.112,5.1394,5.1394,5.1394,5.1394,5.1394,5.1394,5.1219,5.0827,5.0827,5.0398,4.952,4.8661,4.8466,4.8779,4.7978,4.8251,4.9402,4.9889,5.0047,5.0048,5.1414,5.1902,5.1959,5.3308,5.4381,5.52,5.5689,5.6177,5.6605,5.6605,5.6605,5.6605,5.6605,5.6605,5.6605,5.6605,5.6605,5.6605,5.6605,5.6605,5.6605,5.6605,5.6605,5.6605,5.6605,5.6605,5.6605,5.6605,5.6605,5.6605,5.6605,5.6605,5.6605,5.6605,5.6605,5.6605,5.6605,5.6605,5.6605,5.6605,5.6605,5.6605,5.6605,5.6605,5.6781,5.7231,5.8031,5.8734,5.9222,6.0432,6.1133,6.1133,6.1504,6.1699,6.1699,6.1699,6.1699,6.1699,6.1699,6.1699,6.1699,6.1699,6.1699,2.4159,2.8291,3.1722,3.4292,3.7662,4.0485,4.0973,4.2728,4.4307,4.4522,4.4756,4.5092,4.5748,4.6042,4.6191,4.6203,4.6216,4.6249,4.6288,4.6861,4.7275,4.7275,4.7997,4.8505,4.8505,4.9266,4.9773,4.9773,5.0378,5.0731,5.0731,5.0945,5.1062,5.1062,5.1277,5.1394,5.1394,5.1394,5.1062,5.0417,4.9559,4.913,4.9091,4.827,4.8231,4.8818,4.9266,4.9207,4.8915,5.0438,5.0827,5.0554,5.1863,5.3034,5.4049,5.4479,5.5338,5.6274,5.6274,5.641,5.6605,5.6605,5.6605,5.6605,5.6605,5.6605,5.6605,5.6605,5.6605,5.6605,5.6605,5.6605,5.6605,5.6605,5.6605,5.6605,5.6605,5.6605,5.6605,5.6605,5.6605,5.6605,5.6605,5.6605,5.6605,5.6605,5.6605,5.6605,5.6605,5.6605,5.6605,5.6605,5.6605,5.6938,5.7739,5.8597,5.9474,6.0334,6.1211,6.1699,6.1699,6.1699,6.1699,6.1699,6.1699,6.1699,6.1699,6.1699,6.1699,6.1699,6.1699,6.1699,2.1102,2.344,2.6051,3.1059,3.3651,3.6064,4.0174,4.1791,4.2666,4.3504,4.4325,4.4908,4.495,4.5639,4.6205,4.6206,4.6245,4.6307,4.6307,4.6335,4.6379,4.6379,4.7138,4.7665,4.7665,4.8388,4.8876,4.8876,4.8915,4.8935,4.8935,4.9715,5.0163,5.0163,5.0964,5.1394,5.1394,5.1394,5.1375,5.1316,5.0456,5.0026,5.0007,4.913,4.8759,4.8759,4.8036,4.8134,4.8876,4.9793,5.0632,5.1336,5.1433,5.2507,5.3912,5.3113,5.3913,5.5377,5.5377,5.5903,5.6605,5.6605,5.6605,5.6605,5.6605,5.6605,5.6605,5.6605,5.6605,5.6605,5.6605,5.6605,5.6605,5.6605,5.6605,5.6605,5.6605,5.6605,5.6605,5.6605,5.6605,5.6605,5.6605,5.6605,5.6605,5.6605,5.6605,5.6605,5.6605,5.6605,5.6605,5.6605,5.6605,5.6938,5.7739,5.8597,5.9474,6.0334,6.1211,6.1699,6.1699,6.1699,6.1699,6.1699,6.1699,6.1699,6.1699,6.1699,6.1699,6.1699,6.1699,6.1699,1.966,2.1804,2.4394,2.7881,3.0902,3.369,3.6337,3.8888,4.1089,4.2471,4.3018,4.356,4.4694,4.5152,4.5557,4.6167,4.6289,4.6305,4.6296,4.6306,4.6301,4.6301,4.6573,4.6768,4.6768,4.7529,4.8036,4.8036,4.8505,4.8798,4.8798,4.9091,4.9266,4.9266,5.0105,5.0827,5.1394,5.1394,5.1394,5.1394,5.1081,5.0925,5.0905,5.0027,4.9949,5.0418,4.9578,4.9051,4.8876,4.9734,4.9949,4.9794,5.0359,5.0944,5.1589,5.2391,5.3094,5.3796,5.4909,5.5494,5.5864,5.641,5.6605,5.6605,5.6605,5.6605,5.6605,5.6605,5.6605,5.6605,5.6605,5.6605,5.6605,5.6605,5.6605,5.6605,5.6605,5.6605,5.6605,5.6605,5.6605,5.6605,5.6605,5.6605,5.6605,5.6605,5.6605,5.6605,5.6605,5.6605,5.6605,5.6605,5.7055,5.7719,5.8557,5.9436,6.0315,6.1172,6.1524,6.1699,6.1699,6.1699,6.1699,6.1699,6.1699,6.1699,6.1699,6.1699,6.1699,6.1699,6.1699,6.1699,1.8218,2.0245,2.2836,2.5426,2.8019,3.0767,3.3883,3.6629,3.8966,4.0661,4.1725,4.2686,4.3854,4.4296,4.4798,4.5702,4.5855,4.5966,4.6264,4.6301,4.6301,4.6301,4.6301,4.6301,4.6301,4.6827,4.7158,4.7158,4.7666,4.7959,4.7959,4.8232,4.8662,4.9227,4.9793,5.0515,5.1394,5.1394,5.1394,5.1394,5.1394,5.1394,5.1375,5.0808,5.0847,5.1375,5.0788,5.0203,4.9716,5.03,5.0203,4.9677,4.9676,4.9832,5.0163,5.077,5.1336,5.2078,5.3816,5.4616,5.5064,5.6216,5.6605,5.6605,5.6605,5.6605,5.6605,5.6605,5.6605,5.6605,5.6605,5.6605,5.6605,5.6605,5.6605,5.6605,5.6605,5.6605,5.6605,5.6605,5.6605,5.6605,5.6605,5.6605,5.6605,5.6605,5.6605,5.6605,5.6605,5.6605,5.6702,5.6977,5.7484,5.8265,5.9435,6.0061,6.0764,6.1641,6.1699,6.1699,6.1699,6.1699,6.1699,6.1699,6.1699,6.1699,6.1699,6.1699,6.1699,6.1699,6.1699,6.1699,0.0,0.0,0.0,2.3654,2.4959,2.716,3.3045,3.5072,3.622,3.8071,4.0483,4.2273,4.2358,4.3047,4.3904,4.4783,4.4967,4.5284,4.6105,4.6242,4.6262,4.6262,4.6281,4.6301,4.6301,4.6301,4.6301,4.6301,4.6301,4.6301,4.6301,4.7099,4.8328,4.9967,5.0046,5.0476,5.1355,5.1394,5.1394,5.1394,5.1394,5.1394,5.1394,5.1394,5.1394,5.1394,5.1394,5.1394,5.1394,5.1394,5.1394,5.1238,4.9501,4.9344,4.985,4.8231,4.864,5.028,5.2078,5.325,5.4244,5.6019,5.6605,5.6605,5.6605,5.6605,5.6605,5.6605,5.6605,5.6605,5.6605,5.6605,5.6605,5.6605,5.6605,5.6605,5.6605,5.6605,5.6605,5.6605,5.6605,5.6605,5.6605,5.6605,5.6605,5.6605,5.6624,5.6644,5.6644,5.6663,5.6977,5.7758,5.7856,5.8558,6.0256,6.0412,6.0803,6.1641,6.1699,6.1699,6.1699,6.1699,6.1699,6.1699,6.1699,6.1699,6.1699,6.1699,6.1699,6.1699,6.1699,6.1699,1.8137,0.0,0.0,0.0,0.0,0.0,2.8232,3.0198,3.2478,3.6688,3.8141,3.9222,4.1101,4.1656,4.2109,4.2976,4.4176,4.4855,4.4466,4.4953,4.5362,4.5362,4.5929,4.6301,4.6301,4.6301,4.6301,4.6301,4.6301,4.6301,4.6301,4.6534,4.7159,4.825,4.8856,4.9578,5.0456,5.1081,5.1394,5.1394,5.1394,5.1394,5.1394,5.1394,5.1394,5.1394,5.1394,5.1394,5.1394,5.1394,5.1394,5.1297,5.0164,4.95,4.9091,4.8642,4.8387,4.8719,5.1669,5.2859,5.3445,5.5825,5.6605,5.6605,5.6605,5.6605,5.6605,5.6605,5.6605,5.6605,5.6605,5.6605,5.6605,5.6605,5.6605,5.6605,5.6605,5.6605,5.6605,5.6605,5.6605,5.6605,5.6605,5.6605,5.6605,5.6605,5.7094,5.7465,5.7465,5.801,5.8498,5.8713,5.93,5.9885,6.0354,6.0978,6.1446,6.168,6.1699,6.1699,6.1699,6.1699,6.1699,6.1699,6.1699,6.1699,6.1699,6.1699,6.1699,6.1699,6.1699,6.1699,1.9639,2.0653,2.231,2.2155,0.0,0.0,2.6692,2.7957,2.9476,3.3218,3.5146,3.6614,3.8147,3.9601,4.0605,4.0752,4.2857,4.4417,4.4252,4.4679,4.4874,4.4504,4.5226,4.5753,4.5753,4.6085,4.6301,4.6301,4.6301,4.6301,4.6301,4.6301,4.669,4.7568,4.8056,4.87,4.9559,5.0417,5.0866,5.0866,5.1238,5.1394,5.1394,5.1394,5.1394,5.1394,5.1394,5.1394,5.1394,5.1394,5.1394,5.1277,5.0047,4.9246,4.872,4.8017,4.7451,4.7549,5.0965,5.2157,5.2645,5.563,5.6605,5.6605,5.6605,5.6605,5.6605,5.6605,5.6605,5.6605,5.6605,5.6605,5.6605,5.6605,5.6605,5.6605,5.6605,5.6605,5.6605,5.6605,5.6605,5.6605,5.6605,5.6605,5.6702,5.7055,5.7504,5.7933,5.8304,5.8791,5.924,5.9591,6.01,6.0549,6.092,6.1407,6.1699,6.1699,6.1699,6.1699,6.1699,6.1699,6.1699,6.1699,6.1699,6.1699,6.1699,6.1699,6.1699,6.1699,6.1699,6.1699,2.1589,2.2349,2.3771,2.4278,2.3459,0.0,2.6847,2.7257,2.7373,2.9028,3.1829,3.4075,3.4353,3.6904,3.8729,3.8046,4.0779,4.3354,4.4428,4.4815,4.4718,4.3939,4.4524,4.4991,4.4991,4.5695,4.6163,4.6163,4.6242,4.6301,4.6301,4.6301,4.6651,4.7431,4.7548,4.7938,4.8662,4.952,5.0007,5.0104,5.0886,5.1316,5.1394,5.1394,5.1394,5.1394,5.1394,5.1394,5.1394,5.1394,5.1394,5.1238,4.9481,4.8798,4.8603,4.6925,4.6359,4.6924,5.0243,5.1453,5.2097,5.5492,5.6605,5.6605,5.6605,5.6605,5.6605,5.6605,5.6605,5.6605,5.6605,5.6605,5.6605,5.6605,5.6605,5.6605,5.6605,5.6605,5.6605,5.6605,5.6605,5.6605,5.6605,5.6605,5.6879,5.768,5.7875,5.8265,5.9123,5.9338,5.9689,6.0451,6.0549,6.0861,6.1621,6.1699,6.1699,6.1699,6.1699,6.1699,6.1699,6.1699,6.1699,6.1699,6.1699,6.1699,6.1699,6.1699,6.1699,6.1699,6.1699,6.1699,2.5329,2.5912,2.675,2.4861,2.5699,0.0,2.453,2.5543,2.7198,2.8249,2.8998,3.0106,3.2218,3.3144,3.3778,3.4316,3.6737,3.9328,4.154,4.3665,4.4933,4.4776,4.4894,4.4991,4.4991,4.5147,4.5245,4.5245,4.5909,4.6301,4.6301,4.6301,4.6379,4.6554,4.7236,4.7685,4.7821,4.8641,4.9402,5.0104,5.026,5.071,5.1394,5.1394,5.1394,5.1394,5.1394,5.1394,5.1394,5.1394,5.1394,5.1238,4.9481,4.8798,4.8603,4.6925,4.6749,4.7724,5.0457,5.1863,5.2918,5.5689,5.6605,5.6605,5.6605,5.6605,5.6605,5.6605,5.6605,5.6605,5.6605,5.6605,5.6605,5.6605,5.6605,5.6605,5.6605,5.6605,5.6605,5.6605,5.6605,5.6605,5.6605,5.6605,5.6879,5.768,5.8402,5.9162,6.0022,6.0762,6.125,6.1426,6.1446,6.1524,6.1699,6.1699,6.1699,6.1699,6.1699,6.1699,6.1699,6.1699,6.1699,6.1699,6.1699,6.1699,6.1699,6.1699,6.1699,6.1699,6.1699,6.1699,2.7646,2.7568,2.8093,2.7685,2.7276,0.0,0.0,2.5951,2.6146,2.784,2.7549,2.773,3.0322,3.0795,3.1099,3.1963,3.4667,3.6952,3.7784,4.0508,4.2258,4.1869,4.2552,4.3235,4.3664,4.4094,4.4524,4.4972,4.5401,4.5831,4.6281,4.6301,4.6301,4.6301,4.6729,4.6944,4.6944,4.7782,4.8426,4.8855,4.9694,5.0338,5.0769,5.1199,5.1394,5.1394,5.1394,5.1394,5.1394,5.1394,5.114,5.0613,4.9306,4.8545,4.8056,4.6768,4.6846,4.7958,5.0516,5.1961,5.3133,5.5747,5.6605,5.6605,5.6605,5.6605,5.6605,5.6605,5.6605,5.6605,5.6605,5.6605,5.6605,5.6605,5.6605,5.6605,5.6605,5.6605,5.6605,5.6605,5.6605,5.6605,5.6605,5.6938,5.7484,5.8324,5.9183,6.0061,6.0938,6.1426,6.1699,6.1699,6.1699,6.1699,6.1699,6.1699,6.1699,6.1699,6.1699,6.1699,6.1699,6.1699,6.1699,6.1699,6.1699,6.1699,6.1699,6.1699,6.1699,6.1699,6.1699,6.1699,3.0043,2.9556,2.9866,3.0605,2.9088,2.7608,0.0,0.0,0.0,2.7159,2.6399,2.6128,2.8366,2.8639,2.8806,2.9674,3.2448,3.4255,3.3555,3.6105,3.8144,3.8337,3.9684,4.0952,4.1829,4.2397,4.3353,4.4874,4.4386,4.4679,4.6223,4.6144,4.6124,4.6281,4.6301,4.6301,4.6301,4.7002,4.7431,4.7626,4.9129,4.9948,5.0124,5.1003,5.1394,5.1394,5.1394,5.1394,5.1394,5.1394,5.0788,4.9773,4.9072,4.831,4.749,4.6612,4.6944,4.8153,5.0378,5.1941,5.3328,5.5611,5.6468,5.6605,5.6605,5.6605,5.6605,5.6605,5.6605,5.6605,5.6605,5.6605,5.6605,5.6605,5.6605,5.6605,5.6605,5.6605,5.6605,5.6605,5.6605,5.6605,5.6605,5.727,5.8109,5.8967,5.9846,6.0705,6.1582,6.1699,6.1699,6.1699,6.1699,6.1699,6.1699,6.1699,6.1699,6.1699,6.1699,6.1699,6.1699,6.1699,6.1699,6.1699,6.1699,6.1699,6.1699,6.1699,6.1699,6.1699,6.1699,6.1699,3.4156,3.4448,3.435,3.1503,3.2205,3.2071,2.6303,0.0,2.7218,2.5231,0.0,2.4861,2.5933,0.0,0.0,2.6134,2.7861,2.9048,2.8952,3.0605,3.3215,3.6991,3.8298,3.9196,4.0015,3.9547,4.0796,4.4718,4.2141,4.2123,4.6086,4.5578,4.55,4.6281,4.6301,4.6301,4.6301,4.6397,4.6846,4.7607,4.8524,4.9344,5.0124,5.1003,5.1394,5.1394,5.1394,5.1394,5.1394,5.1394,5.0438,4.8935,4.8837,4.831,4.749,4.6612,4.7295,4.8818,4.9871,5.1823,5.4029,5.5104,5.5962,5.6605,5.6605,5.6605,5.6605,5.6605,5.6605,5.6605,5.6605,5.6605,5.6605,5.6605,5.6605,5.6605,5.6605,5.6605,5.6605,5.6605,5.6605,5.6605,5.6605,5.727,5.8109,5.8967,5.9846,6.0705,6.1582,6.1699,6.1699,6.1699,6.1699,6.1699,6.1699,6.1699,6.1699,6.1699,6.1699,6.1699,6.1699,6.1699,6.1699,6.1699,6.1699,6.1699,6.1699,6.1699,6.1699,6.1699,6.1699,6.1699,3.4838,3.4897,3.4851,3.3363,3.2694,3.1516,2.812,2.7042,2.6711,2.6614,0.0,0.0,0.0,0.0,0.0,0.0,2.7014,2.7323,2.6815,2.7811,2.9821,3.3136,3.4301,3.5565,3.7418,3.82,3.9352,4.1147,3.9937,4.0328,4.3138,4.4367,4.5167,4.5539,4.6046,4.6301,4.6301,4.6301,4.6475,4.6866,4.7704,4.8544,4.9383,5.0242,5.0925,5.1394,5.1394,5.1394,5.1355,5.0847,4.991,4.8759,4.829,4.7587,4.6807,4.6436,4.7354,4.8915,4.9793,5.1803,5.4225,5.5611,5.6294,5.6605,5.6605,5.6605,5.6605,5.6605,5.6605,5.6605,5.6605,5.6605,5.6605,5.6605,5.6605,5.6605,5.6605,5.6605,5.6605,5.6605,5.6605,5.6742,5.7211,5.7992,5.8674,5.9045,6.0274,6.1289,6.1641,6.1699,6.1699,6.1699,6.1699,6.1699,6.1699,6.1699,6.1699,6.1699,6.1699,6.1699,6.1699,6.1699,6.1699,6.1699,6.1699,6.1699,6.1699,6.1699,6.1699,6.1699,6.1699,6.1699,3.6204,3.6068,3.5806,3.4578,3.2875,3.0977,2.894,2.7568,2.6945,2.7684,2.7121,0.0,0.0,0.0,2.6399,2.714,0.0,2.6959,2.5846,2.6048,2.7051,2.9158,3.079,3.2578,3.4724,3.5662,3.662,3.779,3.7009,3.7927,4.1284,4.3021,4.4367,4.5323,4.5968,4.6301,4.6301,4.6301,4.6301,4.6301,4.7177,4.8017,4.8837,4.9695,5.0574,5.1394,5.1394,5.1394,5.1336,5.0456,4.9598,4.872,4.7919,4.706,4.6301,4.6301,4.7354,4.8915,4.9793,5.1979,5.4596,5.6117,5.6605,5.6605,5.6605,5.6605,5.6605,5.6605,5.6605,5.6605,5.6605,5.6605,5.6605,5.6605,5.6605,5.6605,5.6605,5.6605,5.6605,5.6605,5.6605,5.686,5.766,5.8519,5.9181,5.9416,6.0743,6.1699,6.1699,6.1699,6.1699,6.1699,6.1699,6.1699,6.1699,6.1699,6.1699,6.1699,6.1699,6.1699,6.1699,6.1699,6.1699,6.1699,6.1699,6.1699,6.1699,6.1699,6.1699,6.1699,6.1699,6.1699,3.9638,3.9631,3.863,3.448,3.3379,3.1996,2.6965,2.7666,2.8911,2.7276,2.9558,3.1352,2.9749,3.0079,3.0061,2.8424,2.8153,0.0,0.0,2.5005,2.4836,2.574,2.8816,3.1211,3.2149,3.0803,3.1602,3.5778,3.2967,3.4353,4.1946,4.1635,4.2768,4.6145,4.6281,4.6301,4.6301,4.6301,4.6301,4.6301,4.7177,4.8017,4.8837,4.9695,5.0574,5.1394,5.1394,5.1394,5.1336,5.0456,4.9598,4.872,4.7919,4.706,4.6301,4.6301,4.7354,4.8915,4.9793,5.235,5.5416,5.6313,5.6605,5.6605,5.6605,5.6605,5.6605,5.6605,5.6605,5.6605,5.6605,5.6605,5.6605,5.6605,5.6605,5.6605,5.6605,5.6605,5.6605,5.6605,5.6605,5.686,5.766,5.8519,5.9396,6.0237,6.1114,6.1699,6.1699,6.1699,6.1699,6.1699,6.1699,6.1699,6.1699,6.1699,6.1699,6.1699,6.1699,6.1699,6.1699,6.1699,6.1699,6.1699,6.1699,6.1699,6.1699,6.1699,6.1699,6.1699,6.1699,6.1699,4.1359,4.1519,4.0759,3.7567,3.5504,3.3206,2.9143,2.8873,2.9009,2.7257,2.9675,3.1566,2.9827,3.0216,3.0235,2.8483,2.8191,2.7218,0.0,2.324,2.3007,2.388,2.7036,2.9025,2.8753,2.9261,3.0197,3.1661,3.1699,3.3319,3.7106,3.9723,4.1909,4.3665,4.4836,4.5714,4.6281,4.6301,4.6301,4.6301,4.6593,4.7178,4.8036,4.8856,4.9715,5.0574,5.116,5.1394,5.1297,4.9833,4.9072,4.8662,4.7276,4.6554,4.6379,4.6944,4.7861,4.9169,5.1784,5.3834,5.5436,5.6313,5.6605,5.6605,5.6605,5.6605,5.6605,5.6605,5.6605,5.6605,5.6605,5.6605,5.6605,5.6605,5.6605,5.6605,5.6605,5.6605,5.6605,5.6605,5.7035,5.766,5.8519,5.9378,6.0061,6.0354,6.1133,6.1699,6.1699,6.1699,6.1699,6.1699,6.1699,6.1699,6.1699,6.1699,6.1699,6.1699,6.1699,6.1699,6.1699,6.1699,6.1699,6.1699,6.1699,6.1699,6.1699,6.1699,6.1699,6.1699,6.1699,6.1699,4.2715,4.2851,4.2226,3.962,3.7729,3.5446,3.1352,3.1122,3.1199,2.9171,3.1264,3.3193,3.2383,3.1955,3.1256,2.981,2.8806,2.7006,0.0,2.2876,2.2812,2.308,2.5357,2.6819,2.6567,2.7269,2.8011,2.8636,2.967,3.1583,3.455,3.7907,4.0718,4.2806,4.4249,4.5421,4.6281,4.6301,4.6301,4.6301,4.6301,4.6768,4.7626,4.8427,4.9285,5.0143,5.1022,5.1219,5.0827,4.9384,4.8623,4.8232,4.6846,4.6495,4.6827,4.7392,4.87,5.0556,5.3112,5.4771,5.5845,5.641,5.6605,5.6605,5.6605,5.6605,5.6605,5.6605,5.6605,5.6605,5.6605,5.6605,5.6605,5.6605,5.6605,5.6605,5.6605,5.6605,5.6605,5.6605,5.725,5.807,5.8947,5.9827,6.051,6.0822,6.1348,6.1699,6.1699,6.1699,6.1699,6.1699,6.1699,6.1699,6.1699,6.1699,6.1699,6.1699,6.1699,6.1699,6.1699,6.1699,6.1699,6.1699,6.1699,6.1699,6.1699,6.1699,6.1699,6.1699,6.1699,6.1699]}]]